<?xml version="1.0" encoding="UTF-8" standalone="no" ?>
<gpx xmlns="http://www.topografix.com/GPX/1/1" xmlns:xsi="http://www.w3.org/2001/XMLSchema-instance" xsi:schemaLocation="http://www.topografix.com/GPX/1/1 http://www.topografix.com/GPX/1/1/gpx.xsd" version="1.1" creator="VisuGPX - https://www.visugpx.com">
  <metadata>
    <name>Tour de l\'Oisans, j11, Le Désert-en-Valjouffray - refuge de Font Turbat - Le Désert-en-Valjouffray</name>
    <desc><![CDATA[Tour de l\'Oisans, j11, Le Désert-en-Valjouffray - refuge de Font Turbat - Le Désert-en-Valjouffray ; une organisation de [url=http://benb.eu.org]Bassée en Balade[/url].]]></desc>
  </metadata>
  <trk>
    <name><![CDATA[JUIL-24-13 14:54:24]]></name>
    <trkseg>
      <trkpt lat="44.86929" lon="6.09043">
        <ele>1252.74</ele>
        <time>2013-07-24T05:33:41Z</time>
      </trkpt>
      <trkpt lat="44.8693" lon="6.09048">
        <ele>1252.74</ele>
        <time>2013-07-24T05:33:50Z</time>
      </trkpt>
      <trkpt lat="44.8693" lon="6.0904">
        <ele>1253.7</ele>
        <time>2013-07-24T05:33:56Z</time>
      </trkpt>
      <trkpt lat="44.86932" lon="6.09043">
        <ele>1253.7</ele>
        <time>2013-07-24T05:34:01Z</time>
      </trkpt>
      <trkpt lat="44.86931" lon="6.09039">
        <ele>1251.29</ele>
        <time>2013-07-24T05:34:04Z</time>
      </trkpt>
      <trkpt lat="44.8693" lon="6.09039">
        <ele>1255.62</ele>
        <time>2013-07-24T05:34:07Z</time>
      </trkpt>
      <trkpt lat="44.8693" lon="6.09039">
        <ele>1258.5</ele>
        <time>2013-07-24T05:34:10Z</time>
      </trkpt>
      <trkpt lat="44.86931" lon="6.09039">
        <ele>1261.87</ele>
        <time>2013-07-24T05:34:14Z</time>
      </trkpt>
      <trkpt lat="44.86933" lon="6.09039">
        <ele>1266.19</ele>
        <time>2013-07-24T05:34:19Z</time>
      </trkpt>
      <trkpt lat="44.86933" lon="6.09039">
        <ele>1270.04</ele>
        <time>2013-07-24T05:34:23Z</time>
      </trkpt>
      <trkpt lat="44.86933" lon="6.09039">
        <ele>1270.52</ele>
        <time>2013-07-24T05:34:24Z</time>
      </trkpt>
      <trkpt lat="44.86933" lon="6.09039">
        <ele>1272.92</ele>
        <time>2013-07-24T05:34:28Z</time>
      </trkpt>
      <trkpt lat="44.86933" lon="6.09039">
        <ele>1274.85</ele>
        <time>2013-07-24T05:34:32Z</time>
      </trkpt>
      <trkpt lat="44.86933" lon="6.09039">
        <ele>1278.69</ele>
        <time>2013-07-24T05:34:40Z</time>
      </trkpt>
      <trkpt lat="44.86933" lon="6.09039">
        <ele>1281.57</ele>
        <time>2013-07-24T05:34:50Z</time>
      </trkpt>
      <trkpt lat="44.86934" lon="6.0904">
        <ele>1284.94</ele>
        <time>2013-07-24T05:35:06Z</time>
      </trkpt>
      <trkpt lat="44.86927" lon="6.09041">
        <ele>1285.9</ele>
        <time>2013-07-24T05:35:40Z</time>
      </trkpt>
      <trkpt lat="44.86927" lon="6.09041">
        <ele>1286.38</ele>
        <time>2013-07-24T05:35:45Z</time>
      </trkpt>
      <trkpt lat="44.86929" lon="6.09039">
        <ele>1286.86</ele>
        <time>2013-07-24T05:35:48Z</time>
      </trkpt>
      <trkpt lat="44.86934" lon="6.09034">
        <ele>1287.34</ele>
        <time>2013-07-24T05:36:05Z</time>
      </trkpt>
      <trkpt lat="44.86931" lon="6.09038">
        <ele>1286.86</ele>
        <time>2013-07-24T05:36:36Z</time>
      </trkpt>
      <trkpt lat="44.86929" lon="6.09037">
        <ele>1286.38</ele>
        <time>2013-07-24T05:37:07Z</time>
      </trkpt>
      <trkpt lat="44.86928" lon="6.09037">
        <ele>1285.9</ele>
        <time>2013-07-24T05:37:54Z</time>
      </trkpt>
      <trkpt lat="44.86924" lon="6.09037">
        <ele>1285.42</ele>
        <time>2013-07-24T05:38:16Z</time>
      </trkpt>
      <trkpt lat="44.8692" lon="6.09038">
        <ele>1284.46</ele>
        <time>2013-07-24T05:38:27Z</time>
      </trkpt>
      <trkpt lat="44.86916" lon="6.0904">
        <ele>1283.98</ele>
        <time>2013-07-24T05:38:31Z</time>
      </trkpt>
      <trkpt lat="44.86902" lon="6.0905">
        <ele>1282.06</ele>
        <time>2013-07-24T05:38:44Z</time>
      </trkpt>
      <trkpt lat="44.86897" lon="6.09052">
        <ele>1281.09</ele>
        <time>2013-07-24T05:38:48Z</time>
      </trkpt>
      <trkpt lat="44.86891" lon="6.09065">
        <ele>1280.13</ele>
        <time>2013-07-24T05:38:56Z</time>
      </trkpt>
      <trkpt lat="44.86884" lon="6.0907">
        <ele>1279.17</ele>
        <time>2013-07-24T05:39:03Z</time>
      </trkpt>
      <trkpt lat="44.86881" lon="6.09068">
        <ele>1277.73</ele>
        <time>2013-07-24T05:39:06Z</time>
      </trkpt>
      <trkpt lat="44.86876" lon="6.09063">
        <ele>1276.77</ele>
        <time>2013-07-24T05:39:10Z</time>
      </trkpt>
      <trkpt lat="44.86874" lon="6.09061">
        <ele>1275.81</ele>
        <time>2013-07-24T05:39:12Z</time>
      </trkpt>
      <trkpt lat="44.86872" lon="6.09064">
        <ele>1275.33</ele>
        <time>2013-07-24T05:39:31Z</time>
      </trkpt>
      <trkpt lat="44.86869" lon="6.09073">
        <ele>1274.36</ele>
        <time>2013-07-24T05:40:13Z</time>
      </trkpt>
      <trkpt lat="44.86867" lon="6.09082">
        <ele>1273.4</ele>
        <time>2013-07-24T05:40:22Z</time>
      </trkpt>
      <trkpt lat="44.86862" lon="6.0912">
        <ele>1275.33</ele>
        <time>2013-07-24T05:40:38Z</time>
      </trkpt>
      <trkpt lat="44.8686" lon="6.09126">
        <ele>1275.81</ele>
        <time>2013-07-24T05:40:43Z</time>
      </trkpt>
      <trkpt lat="44.86862" lon="6.09136">
        <ele>1275.33</ele>
        <time>2013-07-24T05:40:47Z</time>
      </trkpt>
      <trkpt lat="44.86861" lon="6.09145">
        <ele>1275.33</ele>
        <time>2013-07-24T05:40:51Z</time>
      </trkpt>
      <trkpt lat="44.86861" lon="6.09176">
        <ele>1273.4</ele>
        <time>2013-07-24T05:41:06Z</time>
      </trkpt>
      <trkpt lat="44.86867" lon="6.09202">
        <ele>1272.44</ele>
        <time>2013-07-24T05:41:20Z</time>
      </trkpt>
      <trkpt lat="44.86875" lon="6.09226">
        <ele>1272.92</ele>
        <time>2013-07-24T05:41:36Z</time>
      </trkpt>
      <trkpt lat="44.86875" lon="6.0923">
        <ele>1273.88</ele>
        <time>2013-07-24T05:41:39Z</time>
      </trkpt>
      <trkpt lat="44.86874" lon="6.09234">
        <ele>1274.85</ele>
        <time>2013-07-24T05:41:41Z</time>
      </trkpt>
      <trkpt lat="44.86871" lon="6.09239">
        <ele>1274.36</ele>
        <time>2013-07-24T05:41:44Z</time>
      </trkpt>
      <trkpt lat="44.86869" lon="6.09246">
        <ele>1274.36</ele>
        <time>2013-07-24T05:41:48Z</time>
      </trkpt>
      <trkpt lat="44.86869" lon="6.09266">
        <ele>1276.77</ele>
        <time>2013-07-24T05:42:03Z</time>
      </trkpt>
      <trkpt lat="44.8687" lon="6.09268">
        <ele>1277.73</ele>
        <time>2013-07-24T05:42:08Z</time>
      </trkpt>
      <trkpt lat="44.86874" lon="6.09271">
        <ele>1278.69</ele>
        <time>2013-07-24T05:42:14Z</time>
      </trkpt>
      <trkpt lat="44.86878" lon="6.09273">
        <ele>1280.13</ele>
        <time>2013-07-24T05:42:19Z</time>
      </trkpt>
      <trkpt lat="44.86881" lon="6.09283">
        <ele>1280.61</ele>
        <time>2013-07-24T05:42:26Z</time>
      </trkpt>
      <trkpt lat="44.86886" lon="6.09301">
        <ele>1282.54</ele>
        <time>2013-07-24T05:42:41Z</time>
      </trkpt>
      <trkpt lat="44.8689" lon="6.0931">
        <ele>1283.98</ele>
        <time>2013-07-24T05:42:50Z</time>
      </trkpt>
      <trkpt lat="44.86891" lon="6.09313">
        <ele>1283.98</ele>
        <time>2013-07-24T05:42:52Z</time>
      </trkpt>
      <trkpt lat="44.86892" lon="6.09318">
        <ele>1284.94</ele>
        <time>2013-07-24T05:42:57Z</time>
      </trkpt>
      <trkpt lat="44.86897" lon="6.09331">
        <ele>1285.9</ele>
        <time>2013-07-24T05:43:13Z</time>
      </trkpt>
      <trkpt lat="44.869" lon="6.0934">
        <ele>1287.34</ele>
        <time>2013-07-24T05:43:20Z</time>
      </trkpt>
      <trkpt lat="44.86902" lon="6.09361">
        <ele>1287.82</ele>
        <time>2013-07-24T05:43:30Z</time>
      </trkpt>
      <trkpt lat="44.86904" lon="6.09368">
        <ele>1288.78</ele>
        <time>2013-07-24T05:43:35Z</time>
      </trkpt>
      <trkpt lat="44.86904" lon="6.09371">
        <ele>1288.78</ele>
        <time>2013-07-24T05:43:37Z</time>
      </trkpt>
      <trkpt lat="44.86904" lon="6.09374">
        <ele>1288.78</ele>
        <time>2013-07-24T05:43:39Z</time>
      </trkpt>
      <trkpt lat="44.86905" lon="6.09378">
        <ele>1289.27</ele>
        <time>2013-07-24T05:43:42Z</time>
      </trkpt>
      <trkpt lat="44.86907" lon="6.09385">
        <ele>1289.75</ele>
        <time>2013-07-24T05:43:47Z</time>
      </trkpt>
      <trkpt lat="44.86911" lon="6.094">
        <ele>1290.71</ele>
        <time>2013-07-24T05:43:59Z</time>
      </trkpt>
      <trkpt lat="44.86917" lon="6.09419">
        <ele>1291.67</ele>
        <time>2013-07-24T05:44:15Z</time>
      </trkpt>
      <trkpt lat="44.86919" lon="6.09431">
        <ele>1292.15</ele>
        <time>2013-07-24T05:44:24Z</time>
      </trkpt>
      <trkpt lat="44.86924" lon="6.09452">
        <ele>1292.15</ele>
        <time>2013-07-24T05:44:38Z</time>
      </trkpt>
      <trkpt lat="44.86931" lon="6.09478">
        <ele>1292.63</ele>
        <time>2013-07-24T05:44:54Z</time>
      </trkpt>
      <trkpt lat="44.86934" lon="6.09487">
        <ele>1293.59</ele>
        <time>2013-07-24T05:45:01Z</time>
      </trkpt>
      <trkpt lat="44.86939" lon="6.09511">
        <ele>1293.11</ele>
        <time>2013-07-24T05:45:17Z</time>
      </trkpt>
      <trkpt lat="44.86939" lon="6.09515">
        <ele>1293.59</ele>
        <time>2013-07-24T05:45:19Z</time>
      </trkpt>
      <trkpt lat="44.86942" lon="6.09536">
        <ele>1294.07</ele>
        <time>2013-07-24T05:45:31Z</time>
      </trkpt>
      <trkpt lat="44.86942" lon="6.09544">
        <ele>1293.59</ele>
        <time>2013-07-24T05:45:36Z</time>
      </trkpt>
      <trkpt lat="44.86943" lon="6.0955">
        <ele>1293.11</ele>
        <time>2013-07-24T05:45:40Z</time>
      </trkpt>
      <trkpt lat="44.86944" lon="6.09565">
        <ele>1293.11</ele>
        <time>2013-07-24T05:45:48Z</time>
      </trkpt>
      <trkpt lat="44.86944" lon="6.09573">
        <ele>1293.11</ele>
        <time>2013-07-24T05:45:53Z</time>
      </trkpt>
      <trkpt lat="44.86945" lon="6.09578">
        <ele>1293.11</ele>
        <time>2013-07-24T05:45:57Z</time>
      </trkpt>
      <trkpt lat="44.86946" lon="6.0959">
        <ele>1292.63</ele>
        <time>2013-07-24T05:46:04Z</time>
      </trkpt>
      <trkpt lat="44.86949" lon="6.09606">
        <ele>1293.11</ele>
        <time>2013-07-24T05:46:13Z</time>
      </trkpt>
      <trkpt lat="44.86956" lon="6.09633">
        <ele>1292.15</ele>
        <time>2013-07-24T05:46:29Z</time>
      </trkpt>
      <trkpt lat="44.86956" lon="6.09636">
        <ele>1292.15</ele>
        <time>2013-07-24T05:46:31Z</time>
      </trkpt>
      <trkpt lat="44.8696" lon="6.09658">
        <ele>1291.67</ele>
        <time>2013-07-24T05:46:43Z</time>
      </trkpt>
      <trkpt lat="44.86961" lon="6.09664">
        <ele>1291.67</ele>
        <time>2013-07-24T05:46:46Z</time>
      </trkpt>
      <trkpt lat="44.86968" lon="6.09692">
        <ele>1290.71</ele>
        <time>2013-07-24T05:47:03Z</time>
      </trkpt>
      <trkpt lat="44.86973" lon="6.09708">
        <ele>1290.71</ele>
        <time>2013-07-24T05:47:13Z</time>
      </trkpt>
      <trkpt lat="44.86976" lon="6.09714">
        <ele>1290.71</ele>
        <time>2013-07-24T05:47:17Z</time>
      </trkpt>
      <trkpt lat="44.8698" lon="6.09724">
        <ele>1290.23</ele>
        <time>2013-07-24T05:47:23Z</time>
      </trkpt>
      <trkpt lat="44.86985" lon="6.09734">
        <ele>1290.71</ele>
        <time>2013-07-24T05:47:30Z</time>
      </trkpt>
      <trkpt lat="44.86989" lon="6.09745">
        <ele>1289.75</ele>
        <time>2013-07-24T05:47:37Z</time>
      </trkpt>
      <trkpt lat="44.86989" lon="6.09749">
        <ele>1290.23</ele>
        <time>2013-07-24T05:47:39Z</time>
      </trkpt>
      <trkpt lat="44.86991" lon="6.09755">
        <ele>1289.75</ele>
        <time>2013-07-24T05:47:43Z</time>
      </trkpt>
      <trkpt lat="44.86996" lon="6.09768">
        <ele>1290.23</ele>
        <time>2013-07-24T05:47:51Z</time>
      </trkpt>
      <trkpt lat="44.86998" lon="6.09774">
        <ele>1289.75</ele>
        <time>2013-07-24T05:47:55Z</time>
      </trkpt>
      <trkpt lat="44.87002" lon="6.09781">
        <ele>1289.75</ele>
        <time>2013-07-24T05:48:00Z</time>
      </trkpt>
      <trkpt lat="44.87014" lon="6.09801">
        <ele>1290.23</ele>
        <time>2013-07-24T05:48:16Z</time>
      </trkpt>
      <trkpt lat="44.87018" lon="6.09803">
        <ele>1290.23</ele>
        <time>2013-07-24T05:48:20Z</time>
      </trkpt>
      <trkpt lat="44.87021" lon="6.09807">
        <ele>1290.23</ele>
        <time>2013-07-24T05:48:23Z</time>
      </trkpt>
      <trkpt lat="44.87033" lon="6.09826">
        <ele>1290.23</ele>
        <time>2013-07-24T05:48:37Z</time>
      </trkpt>
      <trkpt lat="44.87035" lon="6.09827">
        <ele>1289.75</ele>
        <time>2013-07-24T05:48:38Z</time>
      </trkpt>
      <trkpt lat="44.87047" lon="6.09836">
        <ele>1290.23</ele>
        <time>2013-07-24T05:48:50Z</time>
      </trkpt>
      <trkpt lat="44.87051" lon="6.09843">
        <ele>1290.23</ele>
        <time>2013-07-24T05:48:56Z</time>
      </trkpt>
      <trkpt lat="44.87055" lon="6.09845">
        <ele>1289.75</ele>
        <time>2013-07-24T05:49:04Z</time>
      </trkpt>
      <trkpt lat="44.8707" lon="6.09867">
        <ele>1289.27</ele>
        <time>2013-07-24T05:49:18Z</time>
      </trkpt>
      <trkpt lat="44.87079" lon="6.09887">
        <ele>1287.34</ele>
        <time>2013-07-24T05:49:31Z</time>
      </trkpt>
      <trkpt lat="44.87086" lon="6.09903">
        <ele>1285.9</ele>
        <time>2013-07-24T05:49:43Z</time>
      </trkpt>
      <trkpt lat="44.87105" lon="6.09912">
        <ele>1285.9</ele>
        <time>2013-07-24T05:49:58Z</time>
      </trkpt>
      <trkpt lat="44.87109" lon="6.09917">
        <ele>1285.9</ele>
        <time>2013-07-24T05:50:03Z</time>
      </trkpt>
      <trkpt lat="44.87111" lon="6.09919">
        <ele>1285.42</ele>
        <time>2013-07-24T05:50:05Z</time>
      </trkpt>
      <trkpt lat="44.87115" lon="6.09922">
        <ele>1286.38</ele>
        <time>2013-07-24T05:50:09Z</time>
      </trkpt>
      <trkpt lat="44.87132" lon="6.09934">
        <ele>1286.86</ele>
        <time>2013-07-24T05:50:27Z</time>
      </trkpt>
      <trkpt lat="44.8714" lon="6.0994">
        <ele>1286.38</ele>
        <time>2013-07-24T05:50:34Z</time>
      </trkpt>
      <trkpt lat="44.8715" lon="6.0995">
        <ele>1287.34</ele>
        <time>2013-07-24T05:50:44Z</time>
      </trkpt>
      <trkpt lat="44.87151" lon="6.09952">
        <ele>1287.34</ele>
        <time>2013-07-24T05:50:46Z</time>
      </trkpt>
      <trkpt lat="44.87163" lon="6.0996">
        <ele>1287.82</ele>
        <time>2013-07-24T05:50:57Z</time>
      </trkpt>
      <trkpt lat="44.87167" lon="6.09962">
        <ele>1287.34</ele>
        <time>2013-07-24T05:51:01Z</time>
      </trkpt>
      <trkpt lat="44.87172" lon="6.09964">
        <ele>1288.3</ele>
        <time>2013-07-24T05:51:06Z</time>
      </trkpt>
      <trkpt lat="44.87177" lon="6.09968">
        <ele>1287.82</ele>
        <time>2013-07-24T05:51:11Z</time>
      </trkpt>
      <trkpt lat="44.87182" lon="6.0997">
        <ele>1287.82</ele>
        <time>2013-07-24T05:51:15Z</time>
      </trkpt>
      <trkpt lat="44.872" lon="6.09993">
        <ele>1287.82</ele>
        <time>2013-07-24T05:51:34Z</time>
      </trkpt>
      <trkpt lat="44.87212" lon="6.10008">
        <ele>1287.82</ele>
        <time>2013-07-24T05:51:47Z</time>
      </trkpt>
      <trkpt lat="44.87214" lon="6.1001">
        <ele>1288.78</ele>
        <time>2013-07-24T05:51:49Z</time>
      </trkpt>
      <trkpt lat="44.87227" lon="6.10023">
        <ele>1288.78</ele>
        <time>2013-07-24T05:52:04Z</time>
      </trkpt>
      <trkpt lat="44.8723" lon="6.10027">
        <ele>1288.78</ele>
        <time>2013-07-24T05:52:08Z</time>
      </trkpt>
      <trkpt lat="44.87235" lon="6.10035">
        <ele>1289.75</ele>
        <time>2013-07-24T05:52:14Z</time>
      </trkpt>
      <trkpt lat="44.87237" lon="6.10036">
        <ele>1289.27</ele>
        <time>2013-07-24T05:52:16Z</time>
      </trkpt>
      <trkpt lat="44.87243" lon="6.10044">
        <ele>1289.27</ele>
        <time>2013-07-24T05:52:23Z</time>
      </trkpt>
      <trkpt lat="44.8725" lon="6.10053">
        <ele>1290.23</ele>
        <time>2013-07-24T05:52:31Z</time>
      </trkpt>
      <trkpt lat="44.87262" lon="6.10069">
        <ele>1290.23</ele>
        <time>2013-07-24T05:52:48Z</time>
      </trkpt>
      <trkpt lat="44.87276" lon="6.10084">
        <ele>1291.19</ele>
        <time>2013-07-24T05:53:02Z</time>
      </trkpt>
      <trkpt lat="44.87278" lon="6.10087">
        <ele>1290.23</ele>
        <time>2013-07-24T05:53:05Z</time>
      </trkpt>
      <trkpt lat="44.87282" lon="6.10091">
        <ele>1291.19</ele>
        <time>2013-07-24T05:53:09Z</time>
      </trkpt>
      <trkpt lat="44.87295" lon="6.10109">
        <ele>1291.19</ele>
        <time>2013-07-24T05:53:24Z</time>
      </trkpt>
      <trkpt lat="44.87309" lon="6.10125">
        <ele>1292.15</ele>
        <time>2013-07-24T05:53:40Z</time>
      </trkpt>
      <trkpt lat="44.87313" lon="6.1013">
        <ele>1291.67</ele>
        <time>2013-07-24T05:53:45Z</time>
      </trkpt>
      <trkpt lat="44.8732" lon="6.1014">
        <ele>1292.63</ele>
        <time>2013-07-24T05:53:54Z</time>
      </trkpt>
      <trkpt lat="44.87323" lon="6.10144">
        <ele>1292.15</ele>
        <time>2013-07-24T05:53:58Z</time>
      </trkpt>
      <trkpt lat="44.87329" lon="6.10151">
        <ele>1292.63</ele>
        <time>2013-07-24T05:54:04Z</time>
      </trkpt>
      <trkpt lat="44.87343" lon="6.10168">
        <ele>1293.11</ele>
        <time>2013-07-24T05:54:20Z</time>
      </trkpt>
      <trkpt lat="44.87346" lon="6.10172">
        <ele>1294.07</ele>
        <time>2013-07-24T05:54:23Z</time>
      </trkpt>
      <trkpt lat="44.87353" lon="6.10181">
        <ele>1294.07</ele>
        <time>2013-07-24T05:54:32Z</time>
      </trkpt>
      <trkpt lat="44.87357" lon="6.10182">
        <ele>1294.07</ele>
        <time>2013-07-24T05:54:36Z</time>
      </trkpt>
      <trkpt lat="44.87367" lon="6.10189">
        <ele>1294.55</ele>
        <time>2013-07-24T05:54:47Z</time>
      </trkpt>
      <trkpt lat="44.87382" lon="6.10197">
        <ele>1295.03</ele>
        <time>2013-07-24T05:54:59Z</time>
      </trkpt>
      <trkpt lat="44.87385" lon="6.10202">
        <ele>1294.55</ele>
        <time>2013-07-24T05:55:03Z</time>
      </trkpt>
      <trkpt lat="44.87398" lon="6.1022">
        <ele>1295.51</ele>
        <time>2013-07-24T05:55:19Z</time>
      </trkpt>
      <trkpt lat="44.87409" lon="6.1024">
        <ele>1295.51</ele>
        <time>2013-07-24T05:55:34Z</time>
      </trkpt>
      <trkpt lat="44.87418" lon="6.10265">
        <ele>1296.96</ele>
        <time>2013-07-24T05:55:50Z</time>
      </trkpt>
      <trkpt lat="44.87426" lon="6.10285">
        <ele>1297.44</ele>
        <time>2013-07-24T05:56:06Z</time>
      </trkpt>
      <trkpt lat="44.87426" lon="6.1029">
        <ele>1297.44</ele>
        <time>2013-07-24T05:56:10Z</time>
      </trkpt>
      <trkpt lat="44.8743" lon="6.10296">
        <ele>1298.4</ele>
        <time>2013-07-24T05:56:14Z</time>
      </trkpt>
      <trkpt lat="44.87433" lon="6.10302">
        <ele>1298.4</ele>
        <time>2013-07-24T05:56:18Z</time>
      </trkpt>
      <trkpt lat="44.8744" lon="6.10325">
        <ele>1298.4</ele>
        <time>2013-07-24T05:56:32Z</time>
      </trkpt>
      <trkpt lat="44.87442" lon="6.10334">
        <ele>1298.4</ele>
        <time>2013-07-24T05:56:38Z</time>
      </trkpt>
      <trkpt lat="44.87444" lon="6.10348">
        <ele>1299.36</ele>
        <time>2013-07-24T05:56:46Z</time>
      </trkpt>
      <trkpt lat="44.87449" lon="6.10373">
        <ele>1299.84</ele>
        <time>2013-07-24T05:57:00Z</time>
      </trkpt>
      <trkpt lat="44.8745" lon="6.10394">
        <ele>1299.84</ele>
        <time>2013-07-24T05:57:12Z</time>
      </trkpt>
      <trkpt lat="44.87451" lon="6.10407">
        <ele>1300.8</ele>
        <time>2013-07-24T05:57:20Z</time>
      </trkpt>
      <trkpt lat="44.87453" lon="6.10417">
        <ele>1300.8</ele>
        <time>2013-07-24T05:57:25Z</time>
      </trkpt>
      <trkpt lat="44.87454" lon="6.10423">
        <ele>1301.28</ele>
        <time>2013-07-24T05:57:29Z</time>
      </trkpt>
      <trkpt lat="44.87462" lon="6.10442">
        <ele>1302.24</ele>
        <time>2013-07-24T05:57:41Z</time>
      </trkpt>
      <trkpt lat="44.87465" lon="6.10456">
        <ele>1302.24</ele>
        <time>2013-07-24T05:57:48Z</time>
      </trkpt>
      <trkpt lat="44.87467" lon="6.10462">
        <ele>1302.24</ele>
        <time>2013-07-24T05:57:52Z</time>
      </trkpt>
      <trkpt lat="44.87468" lon="6.10464">
        <ele>1302.24</ele>
        <time>2013-07-24T05:57:54Z</time>
      </trkpt>
      <trkpt lat="44.87469" lon="6.10469">
        <ele>1303.2</ele>
        <time>2013-07-24T05:57:57Z</time>
      </trkpt>
      <trkpt lat="44.87472" lon="6.10487">
        <ele>1303.2</ele>
        <time>2013-07-24T05:58:08Z</time>
      </trkpt>
      <trkpt lat="44.87474" lon="6.10503">
        <ele>1303.69</ele>
        <time>2013-07-24T05:58:18Z</time>
      </trkpt>
      <trkpt lat="44.87481" lon="6.10527">
        <ele>1304.17</ele>
        <time>2013-07-24T05:58:34Z</time>
      </trkpt>
      <trkpt lat="44.87481" lon="6.1054">
        <ele>1305.13</ele>
        <time>2013-07-24T05:58:41Z</time>
      </trkpt>
      <trkpt lat="44.87482" lon="6.10548">
        <ele>1305.13</ele>
        <time>2013-07-24T05:58:46Z</time>
      </trkpt>
      <trkpt lat="44.87488" lon="6.10559">
        <ele>1305.61</ele>
        <time>2013-07-24T05:58:54Z</time>
      </trkpt>
      <trkpt lat="44.87493" lon="6.10575">
        <ele>1306.09</ele>
        <time>2013-07-24T05:59:03Z</time>
      </trkpt>
      <trkpt lat="44.87502" lon="6.10596">
        <ele>1307.05</ele>
        <time>2013-07-24T05:59:18Z</time>
      </trkpt>
      <trkpt lat="44.87509" lon="6.10609">
        <ele>1307.53</ele>
        <time>2013-07-24T05:59:29Z</time>
      </trkpt>
      <trkpt lat="44.8751" lon="6.1061">
        <ele>1308.01</ele>
        <time>2013-07-24T05:59:31Z</time>
      </trkpt>
      <trkpt lat="44.87516" lon="6.10624">
        <ele>1308.49</ele>
        <time>2013-07-24T05:59:42Z</time>
      </trkpt>
      <trkpt lat="44.87519" lon="6.10634">
        <ele>1308.97</ele>
        <time>2013-07-24T05:59:50Z</time>
      </trkpt>
      <trkpt lat="44.87532" lon="6.10649">
        <ele>1308.97</ele>
        <time>2013-07-24T06:00:04Z</time>
      </trkpt>
      <trkpt lat="44.8754" lon="6.1066">
        <ele>1309.93</ele>
        <time>2013-07-24T06:00:14Z</time>
      </trkpt>
      <trkpt lat="44.87543" lon="6.10663">
        <ele>1309.45</ele>
        <time>2013-07-24T06:00:18Z</time>
      </trkpt>
      <trkpt lat="44.87553" lon="6.10681">
        <ele>1311.38</ele>
        <time>2013-07-24T06:00:34Z</time>
      </trkpt>
      <trkpt lat="44.87562" lon="6.10696">
        <ele>1313.3</ele>
        <time>2013-07-24T06:00:50Z</time>
      </trkpt>
      <trkpt lat="44.87563" lon="6.10706">
        <ele>1314.26</ele>
        <time>2013-07-24T06:00:58Z</time>
      </trkpt>
      <trkpt lat="44.8757" lon="6.10726">
        <ele>1315.7</ele>
        <time>2013-07-24T06:01:16Z</time>
      </trkpt>
      <trkpt lat="44.87571" lon="6.10728">
        <ele>1315.7</ele>
        <time>2013-07-24T06:01:18Z</time>
      </trkpt>
      <trkpt lat="44.87573" lon="6.10733">
        <ele>1316.66</ele>
        <time>2013-07-24T06:01:23Z</time>
      </trkpt>
      <trkpt lat="44.87575" lon="6.10739">
        <ele>1317.62</ele>
        <time>2013-07-24T06:01:28Z</time>
      </trkpt>
      <trkpt lat="44.87581" lon="6.10752">
        <ele>1319.07</ele>
        <time>2013-07-24T06:01:42Z</time>
      </trkpt>
      <trkpt lat="44.87589" lon="6.10765">
        <ele>1320.03</ele>
        <time>2013-07-24T06:01:56Z</time>
      </trkpt>
      <trkpt lat="44.87592" lon="6.10781">
        <ele>1320.51</ele>
        <time>2013-07-24T06:02:08Z</time>
      </trkpt>
      <trkpt lat="44.87596" lon="6.10786">
        <ele>1320.51</ele>
        <time>2013-07-24T06:02:12Z</time>
      </trkpt>
      <trkpt lat="44.87604" lon="6.10801">
        <ele>1320.51</ele>
        <time>2013-07-24T06:02:25Z</time>
      </trkpt>
      <trkpt lat="44.87605" lon="6.10805">
        <ele>1320.99</ele>
        <time>2013-07-24T06:02:28Z</time>
      </trkpt>
      <trkpt lat="44.87611" lon="6.10822">
        <ele>1322.91</ele>
        <time>2013-07-24T06:02:45Z</time>
      </trkpt>
      <trkpt lat="44.87614" lon="6.10834">
        <ele>1323.87</ele>
        <time>2013-07-24T06:02:56Z</time>
      </trkpt>
      <trkpt lat="44.87617" lon="6.10857">
        <ele>1325.31</ele>
        <time>2013-07-24T06:03:12Z</time>
      </trkpt>
      <trkpt lat="44.87618" lon="6.10864">
        <ele>1326.28</ele>
        <time>2013-07-24T06:03:19Z</time>
      </trkpt>
      <trkpt lat="44.87622" lon="6.10883">
        <ele>1327.72</ele>
        <time>2013-07-24T06:03:35Z</time>
      </trkpt>
      <trkpt lat="44.87627" lon="6.10902">
        <ele>1329.64</ele>
        <time>2013-07-24T06:03:50Z</time>
      </trkpt>
      <trkpt lat="44.8763" lon="6.10916">
        <ele>1331.08</ele>
        <time>2013-07-24T06:04:03Z</time>
      </trkpt>
      <trkpt lat="44.87635" lon="6.10926">
        <ele>1331.56</ele>
        <time>2013-07-24T06:04:12Z</time>
      </trkpt>
      <trkpt lat="44.8764" lon="6.10944">
        <ele>1333.01</ele>
        <time>2013-07-24T06:04:26Z</time>
      </trkpt>
      <trkpt lat="44.87642" lon="6.10964">
        <ele>1334.45</ele>
        <time>2013-07-24T06:04:40Z</time>
      </trkpt>
      <trkpt lat="44.87642" lon="6.10966">
        <ele>1334.93</ele>
        <time>2013-07-24T06:04:42Z</time>
      </trkpt>
      <trkpt lat="44.87651" lon="6.10979">
        <ele>1335.89</ele>
        <time>2013-07-24T06:04:56Z</time>
      </trkpt>
      <trkpt lat="44.87656" lon="6.10989">
        <ele>1337.81</ele>
        <time>2013-07-24T06:05:09Z</time>
      </trkpt>
      <trkpt lat="44.87661" lon="6.10998">
        <ele>1337.81</ele>
        <time>2013-07-24T06:05:18Z</time>
      </trkpt>
      <trkpt lat="44.87663" lon="6.11017">
        <ele>1339.25</ele>
        <time>2013-07-24T06:05:31Z</time>
      </trkpt>
      <trkpt lat="44.87665" lon="6.11031">
        <ele>1341.18</ele>
        <time>2013-07-24T06:05:44Z</time>
      </trkpt>
      <trkpt lat="44.87668" lon="6.11047">
        <ele>1342.14</ele>
        <time>2013-07-24T06:05:57Z</time>
      </trkpt>
      <trkpt lat="44.8767" lon="6.11065">
        <ele>1342.62</ele>
        <time>2013-07-24T06:06:09Z</time>
      </trkpt>
      <trkpt lat="44.87671" lon="6.11066">
        <ele>1343.1</ele>
        <time>2013-07-24T06:06:10Z</time>
      </trkpt>
      <trkpt lat="44.87678" lon="6.11083">
        <ele>1344.54</ele>
        <time>2013-07-24T06:06:26Z</time>
      </trkpt>
      <trkpt lat="44.87685" lon="6.11092">
        <ele>1345.5</ele>
        <time>2013-07-24T06:06:38Z</time>
      </trkpt>
      <trkpt lat="44.87692" lon="6.111">
        <ele>1347.91</ele>
        <time>2013-07-24T06:06:51Z</time>
      </trkpt>
      <trkpt lat="44.87703" lon="6.11113">
        <ele>1349.35</ele>
        <time>2013-07-24T06:07:06Z</time>
      </trkpt>
      <trkpt lat="44.87709" lon="6.11124">
        <ele>1351.27</ele>
        <time>2013-07-24T06:07:19Z</time>
      </trkpt>
      <trkpt lat="44.87717" lon="6.1114">
        <ele>1353.19</ele>
        <time>2013-07-24T06:07:36Z</time>
      </trkpt>
      <trkpt lat="44.87721" lon="6.11158">
        <ele>1356.08</ele>
        <time>2013-07-24T06:07:53Z</time>
      </trkpt>
      <trkpt lat="44.87725" lon="6.11169">
        <ele>1356.56</ele>
        <time>2013-07-24T06:08:03Z</time>
      </trkpt>
      <trkpt lat="44.87727" lon="6.11176">
        <ele>1357.04</ele>
        <time>2013-07-24T06:08:10Z</time>
      </trkpt>
      <trkpt lat="44.87733" lon="6.11195">
        <ele>1359.44</ele>
        <time>2013-07-24T06:08:26Z</time>
      </trkpt>
      <trkpt lat="44.87736" lon="6.11205">
        <ele>1359.44</ele>
        <time>2013-07-24T06:08:35Z</time>
      </trkpt>
      <trkpt lat="44.8774" lon="6.11227">
        <ele>1359.92</ele>
        <time>2013-07-24T06:08:51Z</time>
      </trkpt>
      <trkpt lat="44.87743" lon="6.11238">
        <ele>1360.4</ele>
        <time>2013-07-24T06:09:00Z</time>
      </trkpt>
      <trkpt lat="44.87743" lon="6.11245">
        <ele>1360.88</ele>
        <time>2013-07-24T06:09:09Z</time>
      </trkpt>
      <trkpt lat="44.87744" lon="6.11254">
        <ele>1360.88</ele>
        <time>2013-07-24T06:09:16Z</time>
      </trkpt>
      <trkpt lat="44.87745" lon="6.11275">
        <ele>1360.4</ele>
        <time>2013-07-24T06:09:29Z</time>
      </trkpt>
      <trkpt lat="44.87752" lon="6.1128">
        <ele>1360.88</ele>
        <time>2013-07-24T06:09:38Z</time>
      </trkpt>
      <trkpt lat="44.8776" lon="6.11288">
        <ele>1359.92</ele>
        <time>2013-07-24T06:09:51Z</time>
      </trkpt>
      <trkpt lat="44.87775" lon="6.11312">
        <ele>1359.92</ele>
        <time>2013-07-24T06:10:07Z</time>
      </trkpt>
      <trkpt lat="44.87778" lon="6.11322">
        <ele>1360.4</ele>
        <time>2013-07-24T06:10:13Z</time>
      </trkpt>
      <trkpt lat="44.87787" lon="6.11334">
        <ele>1361.84</ele>
        <time>2013-07-24T06:10:25Z</time>
      </trkpt>
      <trkpt lat="44.87786" lon="6.11349">
        <ele>1362.81</ele>
        <time>2013-07-24T06:10:37Z</time>
      </trkpt>
      <trkpt lat="44.87791" lon="6.11366">
        <ele>1363.77</ele>
        <time>2013-07-24T06:10:51Z</time>
      </trkpt>
      <trkpt lat="44.87802" lon="6.11386">
        <ele>1364.73</ele>
        <time>2013-07-24T06:11:05Z</time>
      </trkpt>
      <trkpt lat="44.87808" lon="6.11401">
        <ele>1365.21</ele>
        <time>2013-07-24T06:11:17Z</time>
      </trkpt>
      <trkpt lat="44.87812" lon="6.11412">
        <ele>1365.69</ele>
        <time>2013-07-24T06:11:25Z</time>
      </trkpt>
      <trkpt lat="44.87823" lon="6.11433">
        <ele>1367.13</ele>
        <time>2013-07-24T06:11:43Z</time>
      </trkpt>
      <trkpt lat="44.87833" lon="6.11443">
        <ele>1368.09</ele>
        <time>2013-07-24T06:11:55Z</time>
      </trkpt>
      <trkpt lat="44.87845" lon="6.1146">
        <ele>1369.54</ele>
        <time>2013-07-24T06:12:12Z</time>
      </trkpt>
      <trkpt lat="44.87854" lon="6.11473">
        <ele>1370.5</ele>
        <time>2013-07-24T06:12:25Z</time>
      </trkpt>
      <trkpt lat="44.87856" lon="6.11478">
        <ele>1370.5</ele>
        <time>2013-07-24T06:12:28Z</time>
      </trkpt>
      <trkpt lat="44.87857" lon="6.11481">
        <ele>1370.5</ele>
        <time>2013-07-24T06:12:30Z</time>
      </trkpt>
      <trkpt lat="44.87872" lon="6.1149">
        <ele>1371.46</ele>
        <time>2013-07-24T06:12:45Z</time>
      </trkpt>
      <trkpt lat="44.87875" lon="6.11499">
        <ele>1371.94</ele>
        <time>2013-07-24T06:12:52Z</time>
      </trkpt>
      <trkpt lat="44.87878" lon="6.11505">
        <ele>1372.42</ele>
        <time>2013-07-24T06:12:57Z</time>
      </trkpt>
      <trkpt lat="44.87886" lon="6.11522">
        <ele>1373.38</ele>
        <time>2013-07-24T06:13:11Z</time>
      </trkpt>
      <trkpt lat="44.87891" lon="6.11533">
        <ele>1374.82</ele>
        <time>2013-07-24T06:13:21Z</time>
      </trkpt>
      <trkpt lat="44.87896" lon="6.11551">
        <ele>1376.26</ele>
        <time>2013-07-24T06:13:37Z</time>
      </trkpt>
      <trkpt lat="44.87898" lon="6.11566">
        <ele>1378.19</ele>
        <time>2013-07-24T06:13:52Z</time>
      </trkpt>
      <trkpt lat="44.87895" lon="6.1158">
        <ele>1379.63</ele>
        <time>2013-07-24T06:14:07Z</time>
      </trkpt>
      <trkpt lat="44.87894" lon="6.11584">
        <ele>1380.11</ele>
        <time>2013-07-24T06:14:10Z</time>
      </trkpt>
      <trkpt lat="44.87893" lon="6.11599">
        <ele>1381.07</ele>
        <time>2013-07-24T06:14:23Z</time>
      </trkpt>
      <trkpt lat="44.87895" lon="6.11611">
        <ele>1382.03</ele>
        <time>2013-07-24T06:14:37Z</time>
      </trkpt>
      <trkpt lat="44.87891" lon="6.11614">
        <ele>1382.99</ele>
        <time>2013-07-24T06:14:41Z</time>
      </trkpt>
      <trkpt lat="44.8788" lon="6.11624">
        <ele>1382.51</ele>
        <time>2013-07-24T06:14:54Z</time>
      </trkpt>
      <trkpt lat="44.87882" lon="6.11637">
        <ele>1383.96</ele>
        <time>2013-07-24T06:15:08Z</time>
      </trkpt>
      <trkpt lat="44.87879" lon="6.11666">
        <ele>1384.92</ele>
        <time>2013-07-24T06:15:24Z</time>
      </trkpt>
      <trkpt lat="44.87879" lon="6.11685">
        <ele>1386.36</ele>
        <time>2013-07-24T06:15:38Z</time>
      </trkpt>
      <trkpt lat="44.87884" lon="6.11701">
        <ele>1387.32</ele>
        <time>2013-07-24T06:15:50Z</time>
      </trkpt>
      <trkpt lat="44.87883" lon="6.11719">
        <ele>1387.8</ele>
        <time>2013-07-24T06:16:04Z</time>
      </trkpt>
      <trkpt lat="44.87882" lon="6.11731">
        <ele>1388.28</ele>
        <time>2013-07-24T06:16:13Z</time>
      </trkpt>
      <trkpt lat="44.87883" lon="6.11746">
        <ele>1389.24</ele>
        <time>2013-07-24T06:16:24Z</time>
      </trkpt>
      <trkpt lat="44.87888" lon="6.1176">
        <ele>1389.72</ele>
        <time>2013-07-24T06:16:33Z</time>
      </trkpt>
      <trkpt lat="44.87893" lon="6.11765">
        <ele>1385.88</ele>
        <time>2013-07-24T06:16:38Z</time>
      </trkpt>
      <trkpt lat="44.87894" lon="6.11767">
        <ele>1389.24</ele>
        <time>2013-07-24T06:16:39Z</time>
      </trkpt>
      <trkpt lat="44.87902" lon="6.11783">
        <ele>1393.09</ele>
        <time>2013-07-24T06:16:55Z</time>
      </trkpt>
      <trkpt lat="44.87903" lon="6.11783">
        <ele>1389.72</ele>
        <time>2013-07-24T06:16:56Z</time>
      </trkpt>
      <trkpt lat="44.87904" lon="6.11784">
        <ele>1399.82</ele>
        <time>2013-07-24T06:16:57Z</time>
      </trkpt>
      <trkpt lat="44.87904" lon="6.11786">
        <ele>1391.65</ele>
        <time>2013-07-24T06:16:58Z</time>
      </trkpt>
      <trkpt lat="44.87905" lon="6.11788">
        <ele>1390.2</ele>
        <time>2013-07-24T06:17:00Z</time>
      </trkpt>
      <trkpt lat="44.87919" lon="6.11804">
        <ele>1390.2</ele>
        <time>2013-07-24T06:17:19Z</time>
      </trkpt>
      <trkpt lat="44.8793" lon="6.11815">
        <ele>1391.65</ele>
        <time>2013-07-24T06:17:33Z</time>
      </trkpt>
      <trkpt lat="44.87936" lon="6.11822">
        <ele>1391.65</ele>
        <time>2013-07-24T06:17:40Z</time>
      </trkpt>
      <trkpt lat="44.87952" lon="6.11837">
        <ele>1392.13</ele>
        <time>2013-07-24T06:17:58Z</time>
      </trkpt>
      <trkpt lat="44.87956" lon="6.11841">
        <ele>1391.17</ele>
        <time>2013-07-24T06:18:02Z</time>
      </trkpt>
      <trkpt lat="44.87963" lon="6.11848">
        <ele>1391.17</ele>
        <time>2013-07-24T06:18:08Z</time>
      </trkpt>
      <trkpt lat="44.87978" lon="6.11867">
        <ele>1391.17</ele>
        <time>2013-07-24T06:18:25Z</time>
      </trkpt>
      <trkpt lat="44.87982" lon="6.11871">
        <ele>1391.17</ele>
        <time>2013-07-24T06:18:29Z</time>
      </trkpt>
      <trkpt lat="44.87992" lon="6.11895">
        <ele>1390.68</ele>
        <time>2013-07-24T06:18:45Z</time>
      </trkpt>
      <trkpt lat="44.87993" lon="6.11897">
        <ele>1391.17</ele>
        <time>2013-07-24T06:18:46Z</time>
      </trkpt>
      <trkpt lat="44.87993" lon="6.11902">
        <ele>1392.13</ele>
        <time>2013-07-24T06:18:49Z</time>
      </trkpt>
      <trkpt lat="44.87995" lon="6.1191">
        <ele>1392.13</ele>
        <time>2013-07-24T06:18:54Z</time>
      </trkpt>
      <trkpt lat="44.87997" lon="6.11912">
        <ele>1392.13</ele>
        <time>2013-07-24T06:18:56Z</time>
      </trkpt>
      <trkpt lat="44.88002" lon="6.11922">
        <ele>1392.61</ele>
        <time>2013-07-24T06:19:04Z</time>
      </trkpt>
      <trkpt lat="44.88009" lon="6.11931">
        <ele>1392.13</ele>
        <time>2013-07-24T06:19:11Z</time>
      </trkpt>
      <trkpt lat="44.88011" lon="6.11935">
        <ele>1393.09</ele>
        <time>2013-07-24T06:19:14Z</time>
      </trkpt>
      <trkpt lat="44.88013" lon="6.1194">
        <ele>1392.61</ele>
        <time>2013-07-24T06:19:18Z</time>
      </trkpt>
      <trkpt lat="44.88015" lon="6.11943">
        <ele>1393.09</ele>
        <time>2013-07-24T06:19:21Z</time>
      </trkpt>
      <trkpt lat="44.88018" lon="6.11949">
        <ele>1393.09</ele>
        <time>2013-07-24T06:19:25Z</time>
      </trkpt>
      <trkpt lat="44.88023" lon="6.11968">
        <ele>1393.09</ele>
        <time>2013-07-24T06:19:37Z</time>
      </trkpt>
      <trkpt lat="44.88027" lon="6.11976">
        <ele>1393.57</ele>
        <time>2013-07-24T06:19:43Z</time>
      </trkpt>
      <trkpt lat="44.88028" lon="6.11981">
        <ele>1393.57</ele>
        <time>2013-07-24T06:19:47Z</time>
      </trkpt>
      <trkpt lat="44.88031" lon="6.11992">
        <ele>1393.57</ele>
        <time>2013-07-24T06:19:54Z</time>
      </trkpt>
      <trkpt lat="44.88034" lon="6.11999">
        <ele>1394.05</ele>
        <time>2013-07-24T06:19:59Z</time>
      </trkpt>
      <trkpt lat="44.88039" lon="6.12014">
        <ele>1395.49</ele>
        <time>2013-07-24T06:20:09Z</time>
      </trkpt>
      <trkpt lat="44.88041" lon="6.1202">
        <ele>1395.49</ele>
        <time>2013-07-24T06:20:14Z</time>
      </trkpt>
      <trkpt lat="44.88046" lon="6.12033">
        <ele>1396.45</ele>
        <time>2013-07-24T06:20:23Z</time>
      </trkpt>
      <trkpt lat="44.8805" lon="6.12044">
        <ele>1396.45</ele>
        <time>2013-07-24T06:20:31Z</time>
      </trkpt>
      <trkpt lat="44.88054" lon="6.12055">
        <ele>1396.45</ele>
        <time>2013-07-24T06:20:40Z</time>
      </trkpt>
      <trkpt lat="44.8806" lon="6.12068">
        <ele>1397.41</ele>
        <time>2013-07-24T06:20:51Z</time>
      </trkpt>
      <trkpt lat="44.88066" lon="6.12084">
        <ele>1398.37</ele>
        <time>2013-07-24T06:21:03Z</time>
      </trkpt>
      <trkpt lat="44.88067" lon="6.12086">
        <ele>1397.89</ele>
        <time>2013-07-24T06:21:05Z</time>
      </trkpt>
      <trkpt lat="44.88073" lon="6.12105">
        <ele>1398.86</ele>
        <time>2013-07-24T06:21:18Z</time>
      </trkpt>
      <trkpt lat="44.88078" lon="6.12113">
        <ele>1398.86</ele>
        <time>2013-07-24T06:21:24Z</time>
      </trkpt>
      <trkpt lat="44.8808" lon="6.12118">
        <ele>1398.86</ele>
        <time>2013-07-24T06:21:28Z</time>
      </trkpt>
      <trkpt lat="44.88082" lon="6.12121">
        <ele>1399.82</ele>
        <time>2013-07-24T06:21:30Z</time>
      </trkpt>
      <trkpt lat="44.88083" lon="6.12126">
        <ele>1400.3</ele>
        <time>2013-07-24T06:21:34Z</time>
      </trkpt>
      <trkpt lat="44.88089" lon="6.1214">
        <ele>1399.82</ele>
        <time>2013-07-24T06:21:44Z</time>
      </trkpt>
      <trkpt lat="44.8809" lon="6.12145">
        <ele>1400.78</ele>
        <time>2013-07-24T06:21:48Z</time>
      </trkpt>
      <trkpt lat="44.881" lon="6.1216">
        <ele>1401.74</ele>
        <time>2013-07-24T06:22:03Z</time>
      </trkpt>
      <trkpt lat="44.88106" lon="6.12175">
        <ele>1403.66</ele>
        <time>2013-07-24T06:22:18Z</time>
      </trkpt>
      <trkpt lat="44.88111" lon="6.1219">
        <ele>1405.58</ele>
        <time>2013-07-24T06:22:32Z</time>
      </trkpt>
      <trkpt lat="44.88113" lon="6.12205">
        <ele>1407.51</ele>
        <time>2013-07-24T06:22:48Z</time>
      </trkpt>
      <trkpt lat="44.88116" lon="6.12222">
        <ele>1409.43</ele>
        <time>2013-07-24T06:23:04Z</time>
      </trkpt>
      <trkpt lat="44.88119" lon="6.1224">
        <ele>1411.83</ele>
        <time>2013-07-24T06:23:20Z</time>
      </trkpt>
      <trkpt lat="44.88122" lon="6.12244">
        <ele>1413.28</ele>
        <time>2013-07-24T06:23:26Z</time>
      </trkpt>
      <trkpt lat="44.88131" lon="6.12239">
        <ele>1414.72</ele>
        <time>2013-07-24T06:23:44Z</time>
      </trkpt>
      <trkpt lat="44.88134" lon="6.12243">
        <ele>1415.2</ele>
        <time>2013-07-24T06:23:48Z</time>
      </trkpt>
      <trkpt lat="44.88138" lon="6.12261">
        <ele>1417.6</ele>
        <time>2013-07-24T06:24:04Z</time>
      </trkpt>
      <trkpt lat="44.88139" lon="6.12264">
        <ele>1417.6</ele>
        <time>2013-07-24T06:24:06Z</time>
      </trkpt>
      <trkpt lat="44.88141" lon="6.12272">
        <ele>1418.56</ele>
        <time>2013-07-24T06:24:13Z</time>
      </trkpt>
      <trkpt lat="44.88141" lon="6.12275">
        <ele>1418.56</ele>
        <time>2013-07-24T06:24:15Z</time>
      </trkpt>
      <trkpt lat="44.88142" lon="6.12292">
        <ele>1420</ele>
        <time>2013-07-24T06:24:29Z</time>
      </trkpt>
      <trkpt lat="44.88146" lon="6.12306">
        <ele>1420.97</ele>
        <time>2013-07-24T06:24:39Z</time>
      </trkpt>
      <trkpt lat="44.88148" lon="6.12315">
        <ele>1421.93</ele>
        <time>2013-07-24T06:24:45Z</time>
      </trkpt>
      <trkpt lat="44.88149" lon="6.12319">
        <ele>1421.45</ele>
        <time>2013-07-24T06:24:48Z</time>
      </trkpt>
      <trkpt lat="44.88147" lon="6.12329">
        <ele>1421.93</ele>
        <time>2013-07-24T06:24:54Z</time>
      </trkpt>
      <trkpt lat="44.88148" lon="6.12333">
        <ele>1422.41</ele>
        <time>2013-07-24T06:24:58Z</time>
      </trkpt>
      <trkpt lat="44.8815" lon="6.12343">
        <ele>1422.41</ele>
        <time>2013-07-24T06:25:04Z</time>
      </trkpt>
      <trkpt lat="44.8815" lon="6.12346">
        <ele>1422.41</ele>
        <time>2013-07-24T06:25:06Z</time>
      </trkpt>
      <trkpt lat="44.88153" lon="6.12359">
        <ele>1422.41</ele>
        <time>2013-07-24T06:25:15Z</time>
      </trkpt>
      <trkpt lat="44.88155" lon="6.12361">
        <ele>1422.41</ele>
        <time>2013-07-24T06:25:17Z</time>
      </trkpt>
      <trkpt lat="44.8816" lon="6.12372">
        <ele>1420.97</ele>
        <time>2013-07-24T06:25:25Z</time>
      </trkpt>
      <trkpt lat="44.88164" lon="6.12375">
        <ele>1420.97</ele>
        <time>2013-07-24T06:25:30Z</time>
      </trkpt>
      <trkpt lat="44.8817" lon="6.12383">
        <ele>1421.45</ele>
        <time>2013-07-24T06:25:37Z</time>
      </trkpt>
      <trkpt lat="44.88171" lon="6.12386">
        <ele>1421.45</ele>
        <time>2013-07-24T06:25:39Z</time>
      </trkpt>
      <trkpt lat="44.88172" lon="6.12395">
        <ele>1420.97</ele>
        <time>2013-07-24T06:25:45Z</time>
      </trkpt>
      <trkpt lat="44.88176" lon="6.12402">
        <ele>1420.49</ele>
        <time>2013-07-24T06:25:50Z</time>
      </trkpt>
      <trkpt lat="44.88181" lon="6.12412">
        <ele>1418.56</ele>
        <time>2013-07-24T06:25:59Z</time>
      </trkpt>
      <trkpt lat="44.88184" lon="6.12418">
        <ele>1419.04</ele>
        <time>2013-07-24T06:26:03Z</time>
      </trkpt>
      <trkpt lat="44.88187" lon="6.12426">
        <ele>1418.08</ele>
        <time>2013-07-24T06:26:09Z</time>
      </trkpt>
      <trkpt lat="44.8819" lon="6.12445">
        <ele>1417.6</ele>
        <time>2013-07-24T06:26:21Z</time>
      </trkpt>
      <trkpt lat="44.88192" lon="6.12449">
        <ele>1418.08</ele>
        <time>2013-07-24T06:26:24Z</time>
      </trkpt>
      <trkpt lat="44.88201" lon="6.12467">
        <ele>1418.08</ele>
        <time>2013-07-24T06:26:38Z</time>
      </trkpt>
      <trkpt lat="44.88206" lon="6.12472">
        <ele>1418.56</ele>
        <time>2013-07-24T06:26:43Z</time>
      </trkpt>
      <trkpt lat="44.88209" lon="6.12476">
        <ele>1419.04</ele>
        <time>2013-07-24T06:26:47Z</time>
      </trkpt>
      <trkpt lat="44.88213" lon="6.12484">
        <ele>1419.52</ele>
        <time>2013-07-24T06:26:54Z</time>
      </trkpt>
      <trkpt lat="44.88221" lon="6.12503">
        <ele>1420.97</ele>
        <time>2013-07-24T06:27:11Z</time>
      </trkpt>
      <trkpt lat="44.88225" lon="6.12511">
        <ele>1422.41</ele>
        <time>2013-07-24T06:27:19Z</time>
      </trkpt>
      <trkpt lat="44.88231" lon="6.12527">
        <ele>1424.81</ele>
        <time>2013-07-24T06:27:35Z</time>
      </trkpt>
      <trkpt lat="44.88237" lon="6.12541">
        <ele>1427.21</ele>
        <time>2013-07-24T06:27:50Z</time>
      </trkpt>
      <trkpt lat="44.88244" lon="6.12554">
        <ele>1428.66</ele>
        <time>2013-07-24T06:28:04Z</time>
      </trkpt>
      <trkpt lat="44.88245" lon="6.12557">
        <ele>1429.62</ele>
        <time>2013-07-24T06:28:07Z</time>
      </trkpt>
      <trkpt lat="44.88251" lon="6.12572">
        <ele>1431.06</ele>
        <time>2013-07-24T06:28:21Z</time>
      </trkpt>
      <trkpt lat="44.88253" lon="6.12575">
        <ele>1431.54</ele>
        <time>2013-07-24T06:28:24Z</time>
      </trkpt>
      <trkpt lat="44.88258" lon="6.12581">
        <ele>1432.5</ele>
        <time>2013-07-24T06:28:33Z</time>
      </trkpt>
      <trkpt lat="44.88264" lon="6.1259">
        <ele>1433.46</ele>
        <time>2013-07-24T06:28:43Z</time>
      </trkpt>
      <trkpt lat="44.88265" lon="6.12592">
        <ele>1433.94</ele>
        <time>2013-07-24T06:28:45Z</time>
      </trkpt>
      <trkpt lat="44.8827" lon="6.12599">
        <ele>1434.91</ele>
        <time>2013-07-24T06:28:57Z</time>
      </trkpt>
      <trkpt lat="44.88272" lon="6.12603">
        <ele>1435.39</ele>
        <time>2013-07-24T06:29:01Z</time>
      </trkpt>
      <trkpt lat="44.88275" lon="6.12611">
        <ele>1435.87</ele>
        <time>2013-07-24T06:29:07Z</time>
      </trkpt>
      <trkpt lat="44.88277" lon="6.12618">
        <ele>1435.87</ele>
        <time>2013-07-24T06:29:11Z</time>
      </trkpt>
      <trkpt lat="44.88285" lon="6.12634">
        <ele>1435.87</ele>
        <time>2013-07-24T06:29:24Z</time>
      </trkpt>
      <trkpt lat="44.88295" lon="6.12653">
        <ele>1435.87</ele>
        <time>2013-07-24T06:29:39Z</time>
      </trkpt>
      <trkpt lat="44.88308" lon="6.12678">
        <ele>1435.87</ele>
        <time>2013-07-24T06:29:57Z</time>
      </trkpt>
      <trkpt lat="44.88316" lon="6.12696">
        <ele>1438.75</ele>
        <time>2013-07-24T06:30:12Z</time>
      </trkpt>
      <trkpt lat="44.8832" lon="6.12704">
        <ele>1439.71</ele>
        <time>2013-07-24T06:30:20Z</time>
      </trkpt>
      <trkpt lat="44.88329" lon="6.12723">
        <ele>1442.11</ele>
        <time>2013-07-24T06:30:37Z</time>
      </trkpt>
      <trkpt lat="44.8833" lon="6.12724">
        <ele>1442.6</ele>
        <time>2013-07-24T06:30:38Z</time>
      </trkpt>
      <trkpt lat="44.8833" lon="6.12726">
        <ele>1443.08</ele>
        <time>2013-07-24T06:30:40Z</time>
      </trkpt>
      <trkpt lat="44.88334" lon="6.12731">
        <ele>1443.08</ele>
        <time>2013-07-24T06:30:45Z</time>
      </trkpt>
      <trkpt lat="44.88338" lon="6.12741">
        <ele>1444.04</ele>
        <time>2013-07-24T06:30:55Z</time>
      </trkpt>
      <trkpt lat="44.88339" lon="6.12743">
        <ele>1445</ele>
        <time>2013-07-24T06:30:57Z</time>
      </trkpt>
      <trkpt lat="44.88342" lon="6.12763">
        <ele>1445.96</ele>
        <time>2013-07-24T06:31:10Z</time>
      </trkpt>
      <trkpt lat="44.88349" lon="6.12772">
        <ele>1445.96</ele>
        <time>2013-07-24T06:31:18Z</time>
      </trkpt>
      <trkpt lat="44.8835" lon="6.12778">
        <ele>1445.96</ele>
        <time>2013-07-24T06:31:21Z</time>
      </trkpt>
      <trkpt lat="44.88351" lon="6.12784">
        <ele>1445.96</ele>
        <time>2013-07-24T06:31:24Z</time>
      </trkpt>
      <trkpt lat="44.88353" lon="6.12798">
        <ele>1445.96</ele>
        <time>2013-07-24T06:31:34Z</time>
      </trkpt>
      <trkpt lat="44.88367" lon="6.12811">
        <ele>1445.96</ele>
        <time>2013-07-24T06:31:48Z</time>
      </trkpt>
      <trkpt lat="44.8837" lon="6.1282">
        <ele>1446.44</ele>
        <time>2013-07-24T06:31:53Z</time>
      </trkpt>
      <trkpt lat="44.88377" lon="6.12825">
        <ele>1446.92</ele>
        <time>2013-07-24T06:32:00Z</time>
      </trkpt>
      <trkpt lat="44.88383" lon="6.12832">
        <ele>1447.4</ele>
        <time>2013-07-24T06:32:06Z</time>
      </trkpt>
      <trkpt lat="44.88385" lon="6.12838">
        <ele>1447.4</ele>
        <time>2013-07-24T06:32:10Z</time>
      </trkpt>
      <trkpt lat="44.88388" lon="6.1284">
        <ele>1447.4</ele>
        <time>2013-07-24T06:32:12Z</time>
      </trkpt>
      <trkpt lat="44.88391" lon="6.12843">
        <ele>1447.88</ele>
        <time>2013-07-24T06:32:14Z</time>
      </trkpt>
      <trkpt lat="44.88398" lon="6.12869">
        <ele>1447.4</ele>
        <time>2013-07-24T06:32:31Z</time>
      </trkpt>
      <trkpt lat="44.88401" lon="6.12884">
        <ele>1448.36</ele>
        <time>2013-07-24T06:32:42Z</time>
      </trkpt>
      <trkpt lat="44.88403" lon="6.12895">
        <ele>1449.32</ele>
        <time>2013-07-24T06:32:50Z</time>
      </trkpt>
      <trkpt lat="44.88408" lon="6.12898">
        <ele>1449.81</ele>
        <time>2013-07-24T06:32:55Z</time>
      </trkpt>
      <trkpt lat="44.88408" lon="6.12902">
        <ele>1450.29</ele>
        <time>2013-07-24T06:33:00Z</time>
      </trkpt>
      <trkpt lat="44.88407" lon="6.12904">
        <ele>1450.77</ele>
        <time>2013-07-24T06:33:02Z</time>
      </trkpt>
      <trkpt lat="44.88406" lon="6.1291">
        <ele>1450.29</ele>
        <time>2013-07-24T06:33:06Z</time>
      </trkpt>
      <trkpt lat="44.88405" lon="6.1292">
        <ele>1449.81</ele>
        <time>2013-07-24T06:33:17Z</time>
      </trkpt>
      <trkpt lat="44.88401" lon="6.1294">
        <ele>1449.81</ele>
        <time>2013-07-24T06:33:31Z</time>
      </trkpt>
      <trkpt lat="44.884" lon="6.12947">
        <ele>1450.29</ele>
        <time>2013-07-24T06:33:35Z</time>
      </trkpt>
      <trkpt lat="44.88399" lon="6.12953">
        <ele>1450.29</ele>
        <time>2013-07-24T06:33:39Z</time>
      </trkpt>
      <trkpt lat="44.88402" lon="6.12973">
        <ele>1452.69</ele>
        <time>2013-07-24T06:33:55Z</time>
      </trkpt>
      <trkpt lat="44.88406" lon="6.12988">
        <ele>1454.13</ele>
        <time>2013-07-24T06:34:08Z</time>
      </trkpt>
      <trkpt lat="44.88407" lon="6.12991">
        <ele>1454.13</ele>
        <time>2013-07-24T06:34:10Z</time>
      </trkpt>
      <trkpt lat="44.88407" lon="6.12997">
        <ele>1454.61</ele>
        <time>2013-07-24T06:34:15Z</time>
      </trkpt>
      <trkpt lat="44.88407" lon="6.13005">
        <ele>1455.09</ele>
        <time>2013-07-24T06:34:21Z</time>
      </trkpt>
      <trkpt lat="44.88404" lon="6.13015">
        <ele>1457.02</ele>
        <time>2013-07-24T06:34:30Z</time>
      </trkpt>
      <trkpt lat="44.88405" lon="6.13022">
        <ele>1457.02</ele>
        <time>2013-07-24T06:34:35Z</time>
      </trkpt>
      <trkpt lat="44.88408" lon="6.13037">
        <ele>1457.02</ele>
        <time>2013-07-24T06:34:44Z</time>
      </trkpt>
      <trkpt lat="44.8841" lon="6.13042">
        <ele>1457.02</ele>
        <time>2013-07-24T06:34:48Z</time>
      </trkpt>
      <trkpt lat="44.8841" lon="6.13046">
        <ele>1457.02</ele>
        <time>2013-07-24T06:34:50Z</time>
      </trkpt>
      <trkpt lat="44.88412" lon="6.13054">
        <ele>1457.5</ele>
        <time>2013-07-24T06:34:55Z</time>
      </trkpt>
      <trkpt lat="44.88412" lon="6.13058">
        <ele>1457.5</ele>
        <time>2013-07-24T06:34:57Z</time>
      </trkpt>
      <trkpt lat="44.88413" lon="6.13062">
        <ele>1457.98</ele>
        <time>2013-07-24T06:35:00Z</time>
      </trkpt>
      <trkpt lat="44.88416" lon="6.13073">
        <ele>1458.94</ele>
        <time>2013-07-24T06:35:08Z</time>
      </trkpt>
      <trkpt lat="44.88416" lon="6.13077">
        <ele>1459.42</ele>
        <time>2013-07-24T06:35:12Z</time>
      </trkpt>
      <trkpt lat="44.88416" lon="6.1308">
        <ele>1459.42</ele>
        <time>2013-07-24T06:35:14Z</time>
      </trkpt>
      <trkpt lat="44.88417" lon="6.13093">
        <ele>1460.38</ele>
        <time>2013-07-24T06:35:23Z</time>
      </trkpt>
      <trkpt lat="44.88416" lon="6.13096">
        <ele>1460.86</ele>
        <time>2013-07-24T06:35:25Z</time>
      </trkpt>
      <trkpt lat="44.88415" lon="6.13113">
        <ele>1462.78</ele>
        <time>2013-07-24T06:35:39Z</time>
      </trkpt>
      <trkpt lat="44.88414" lon="6.13116">
        <ele>1462.78</ele>
        <time>2013-07-24T06:35:41Z</time>
      </trkpt>
      <trkpt lat="44.88413" lon="6.1312">
        <ele>1463.26</ele>
        <time>2013-07-24T06:35:44Z</time>
      </trkpt>
      <trkpt lat="44.88418" lon="6.13135">
        <ele>1464.23</ele>
        <time>2013-07-24T06:35:55Z</time>
      </trkpt>
      <trkpt lat="44.88419" lon="6.13144">
        <ele>1465.19</ele>
        <time>2013-07-24T06:36:03Z</time>
      </trkpt>
      <trkpt lat="44.88419" lon="6.13147">
        <ele>1465.67</ele>
        <time>2013-07-24T06:36:05Z</time>
      </trkpt>
      <trkpt lat="44.8842" lon="6.13159">
        <ele>1467.11</ele>
        <time>2013-07-24T06:36:15Z</time>
      </trkpt>
      <trkpt lat="44.88419" lon="6.13175">
        <ele>1468.55</ele>
        <time>2013-07-24T06:36:27Z</time>
      </trkpt>
      <trkpt lat="44.88421" lon="6.1318">
        <ele>1469.03</ele>
        <time>2013-07-24T06:36:31Z</time>
      </trkpt>
      <trkpt lat="44.88421" lon="6.13186">
        <ele>1469.51</ele>
        <time>2013-07-24T06:36:36Z</time>
      </trkpt>
      <trkpt lat="44.8842" lon="6.13189">
        <ele>1469.99</ele>
        <time>2013-07-24T06:36:39Z</time>
      </trkpt>
      <trkpt lat="44.88421" lon="6.13202">
        <ele>1471.92</ele>
        <time>2013-07-24T06:36:51Z</time>
      </trkpt>
      <trkpt lat="44.88419" lon="6.13222">
        <ele>1473.36</ele>
        <time>2013-07-24T06:37:06Z</time>
      </trkpt>
      <trkpt lat="44.88415" lon="6.13239">
        <ele>1475.28</ele>
        <time>2013-07-24T06:37:21Z</time>
      </trkpt>
      <trkpt lat="44.88414" lon="6.13251">
        <ele>1477.2</ele>
        <time>2013-07-24T06:37:33Z</time>
      </trkpt>
      <trkpt lat="44.88413" lon="6.13267">
        <ele>1479.13</ele>
        <time>2013-07-24T06:37:47Z</time>
      </trkpt>
      <trkpt lat="44.8841" lon="6.13279">
        <ele>1480.09</ele>
        <time>2013-07-24T06:37:56Z</time>
      </trkpt>
      <trkpt lat="44.88405" lon="6.13299">
        <ele>1482.01</ele>
        <time>2013-07-24T06:38:11Z</time>
      </trkpt>
      <trkpt lat="44.88404" lon="6.13312">
        <ele>1483.93</ele>
        <time>2013-07-24T06:38:22Z</time>
      </trkpt>
      <trkpt lat="44.88412" lon="6.13326">
        <ele>1485.85</ele>
        <time>2013-07-24T06:38:36Z</time>
      </trkpt>
      <trkpt lat="44.88418" lon="6.13339">
        <ele>1488.26</ele>
        <time>2013-07-24T06:38:51Z</time>
      </trkpt>
      <trkpt lat="44.88418" lon="6.13349">
        <ele>1490.18</ele>
        <time>2013-07-24T06:39:03Z</time>
      </trkpt>
      <trkpt lat="44.88418" lon="6.13352">
        <ele>1490.66</ele>
        <time>2013-07-24T06:39:07Z</time>
      </trkpt>
      <trkpt lat="44.88421" lon="6.13364">
        <ele>1493.06</ele>
        <time>2013-07-24T06:39:21Z</time>
      </trkpt>
      <trkpt lat="44.88422" lon="6.13373">
        <ele>1494.51</ele>
        <time>2013-07-24T06:39:31Z</time>
      </trkpt>
      <trkpt lat="44.88424" lon="6.13389">
        <ele>1496.43</ele>
        <time>2013-07-24T06:39:45Z</time>
      </trkpt>
      <trkpt lat="44.88424" lon="6.1339">
        <ele>1496.43</ele>
        <time>2013-07-24T06:39:47Z</time>
      </trkpt>
      <trkpt lat="44.88424" lon="6.13411">
        <ele>1498.35</ele>
        <time>2013-07-24T06:40:03Z</time>
      </trkpt>
      <trkpt lat="44.88428" lon="6.13425">
        <ele>1498.35</ele>
        <time>2013-07-24T06:40:14Z</time>
      </trkpt>
      <trkpt lat="44.88429" lon="6.1343">
        <ele>1498.83</ele>
        <time>2013-07-24T06:40:18Z</time>
      </trkpt>
      <trkpt lat="44.88429" lon="6.13438">
        <ele>1498.83</ele>
        <time>2013-07-24T06:40:23Z</time>
      </trkpt>
      <trkpt lat="44.88426" lon="6.13444">
        <ele>1498.83</ele>
        <time>2013-07-24T06:40:28Z</time>
      </trkpt>
      <trkpt lat="44.88424" lon="6.13451">
        <ele>1498.35</ele>
        <time>2013-07-24T06:40:34Z</time>
      </trkpt>
      <trkpt lat="44.88421" lon="6.13455">
        <ele>1498.35</ele>
        <time>2013-07-24T06:40:37Z</time>
      </trkpt>
      <trkpt lat="44.8842" lon="6.13458">
        <ele>1498.35</ele>
        <time>2013-07-24T06:40:39Z</time>
      </trkpt>
      <trkpt lat="44.88422" lon="6.13475">
        <ele>1500.27</ele>
        <time>2013-07-24T06:40:52Z</time>
      </trkpt>
      <trkpt lat="44.88422" lon="6.13481">
        <ele>1500.76</ele>
        <time>2013-07-24T06:40:57Z</time>
      </trkpt>
      <trkpt lat="44.88421" lon="6.13496">
        <ele>1502.2</ele>
        <time>2013-07-24T06:41:10Z</time>
      </trkpt>
      <trkpt lat="44.88415" lon="6.13507">
        <ele>1504.6</ele>
        <time>2013-07-24T06:41:22Z</time>
      </trkpt>
      <trkpt lat="44.88415" lon="6.13509">
        <ele>1504.6</ele>
        <time>2013-07-24T06:41:24Z</time>
      </trkpt>
      <trkpt lat="44.88417" lon="6.13517">
        <ele>1505.56</ele>
        <time>2013-07-24T06:41:30Z</time>
      </trkpt>
      <trkpt lat="44.88412" lon="6.13532">
        <ele>1507</ele>
        <time>2013-07-24T06:41:45Z</time>
      </trkpt>
      <trkpt lat="44.88405" lon="6.13547">
        <ele>1509.41</ele>
        <time>2013-07-24T06:42:00Z</time>
      </trkpt>
      <trkpt lat="44.88401" lon="6.13563">
        <ele>1512.29</ele>
        <time>2013-07-24T06:42:16Z</time>
      </trkpt>
      <trkpt lat="44.88396" lon="6.13574">
        <ele>1514.21</ele>
        <time>2013-07-24T06:42:29Z</time>
      </trkpt>
      <trkpt lat="44.88393" lon="6.1358">
        <ele>1514.69</ele>
        <time>2013-07-24T06:42:35Z</time>
      </trkpt>
      <trkpt lat="44.88387" lon="6.13594">
        <ele>1515.18</ele>
        <time>2013-07-24T06:42:49Z</time>
      </trkpt>
      <trkpt lat="44.88386" lon="6.13596">
        <ele>1514.69</ele>
        <time>2013-07-24T06:42:51Z</time>
      </trkpt>
      <trkpt lat="44.88384" lon="6.13598">
        <ele>1514.69</ele>
        <time>2013-07-24T06:42:53Z</time>
      </trkpt>
      <trkpt lat="44.88374" lon="6.13604">
        <ele>1515.66</ele>
        <time>2013-07-24T06:43:01Z</time>
      </trkpt>
      <trkpt lat="44.88373" lon="6.13607">
        <ele>1516.14</ele>
        <time>2013-07-24T06:43:04Z</time>
      </trkpt>
      <trkpt lat="44.8837" lon="6.13613">
        <ele>1516.62</ele>
        <time>2013-07-24T06:43:10Z</time>
      </trkpt>
      <trkpt lat="44.88369" lon="6.13614">
        <ele>1515.66</ele>
        <time>2013-07-24T06:43:12Z</time>
      </trkpt>
      <trkpt lat="44.88359" lon="6.13619">
        <ele>1516.62</ele>
        <time>2013-07-24T06:43:25Z</time>
      </trkpt>
      <trkpt lat="44.88347" lon="6.1363">
        <ele>1516.62</ele>
        <time>2013-07-24T06:43:37Z</time>
      </trkpt>
      <trkpt lat="44.88339" lon="6.1364">
        <ele>1518.06</ele>
        <time>2013-07-24T06:43:47Z</time>
      </trkpt>
      <trkpt lat="44.88332" lon="6.13651">
        <ele>1518.54</ele>
        <time>2013-07-24T06:43:55Z</time>
      </trkpt>
      <trkpt lat="44.88323" lon="6.13657">
        <ele>1518.54</ele>
        <time>2013-07-24T06:44:03Z</time>
      </trkpt>
      <trkpt lat="44.88319" lon="6.1366">
        <ele>1519.5</ele>
        <time>2013-07-24T06:44:10Z</time>
      </trkpt>
      <trkpt lat="44.88316" lon="6.13662">
        <ele>1519.02</ele>
        <time>2013-07-24T06:44:14Z</time>
      </trkpt>
      <trkpt lat="44.883" lon="6.13669">
        <ele>1519.98</ele>
        <time>2013-07-24T06:44:28Z</time>
      </trkpt>
      <trkpt lat="44.88292" lon="6.13676">
        <ele>1521.9</ele>
        <time>2013-07-24T06:44:40Z</time>
      </trkpt>
      <trkpt lat="44.88279" lon="6.13683">
        <ele>1523.83</ele>
        <time>2013-07-24T06:44:54Z</time>
      </trkpt>
      <trkpt lat="44.88272" lon="6.13688">
        <ele>1523.83</ele>
        <time>2013-07-24T06:45:02Z</time>
      </trkpt>
      <trkpt lat="44.88265" lon="6.13695">
        <ele>1522.39</ele>
        <time>2013-07-24T06:45:11Z</time>
      </trkpt>
      <trkpt lat="44.88264" lon="6.13696">
        <ele>1521.42</ele>
        <time>2013-07-24T06:45:13Z</time>
      </trkpt>
      <trkpt lat="44.88264" lon="6.13698">
        <ele>1521.42</ele>
        <time>2013-07-24T06:45:14Z</time>
      </trkpt>
      <trkpt lat="44.88264" lon="6.13699">
        <ele>1526.23</ele>
        <time>2013-07-24T06:45:15Z</time>
      </trkpt>
      <trkpt lat="44.88263" lon="6.137">
        <ele>1524.31</ele>
        <time>2013-07-24T06:45:16Z</time>
      </trkpt>
      <trkpt lat="44.88262" lon="6.13704">
        <ele>1520.94</ele>
        <time>2013-07-24T06:45:18Z</time>
      </trkpt>
      <trkpt lat="44.88262" lon="6.13705">
        <ele>1525.75</ele>
        <time>2013-07-24T06:45:19Z</time>
      </trkpt>
      <trkpt lat="44.88261" lon="6.13708">
        <ele>1523.35</ele>
        <time>2013-07-24T06:45:21Z</time>
      </trkpt>
      <trkpt lat="44.88257" lon="6.13719">
        <ele>1521.9</ele>
        <time>2013-07-24T06:45:30Z</time>
      </trkpt>
      <trkpt lat="44.88256" lon="6.1372">
        <ele>1526.71</ele>
        <time>2013-07-24T06:45:32Z</time>
      </trkpt>
      <trkpt lat="44.88253" lon="6.13724">
        <ele>1521.42</ele>
        <time>2013-07-24T06:45:36Z</time>
      </trkpt>
      <trkpt lat="44.88252" lon="6.13725">
        <ele>1526.23</ele>
        <time>2013-07-24T06:45:37Z</time>
      </trkpt>
      <trkpt lat="44.88252" lon="6.13726">
        <ele>1524.79</ele>
        <time>2013-07-24T06:45:38Z</time>
      </trkpt>
      <trkpt lat="44.88252" lon="6.1373">
        <ele>1521.9</ele>
        <time>2013-07-24T06:45:42Z</time>
      </trkpt>
      <trkpt lat="44.88251" lon="6.13731">
        <ele>1521.9</ele>
        <time>2013-07-24T06:45:43Z</time>
      </trkpt>
      <trkpt lat="44.8825" lon="6.13732">
        <ele>1524.31</ele>
        <time>2013-07-24T06:45:44Z</time>
      </trkpt>
      <trkpt lat="44.8825" lon="6.13733">
        <ele>1519.02</ele>
        <time>2013-07-24T06:45:47Z</time>
      </trkpt>
      <trkpt lat="44.8825" lon="6.13734">
        <ele>1519.02</ele>
        <time>2013-07-24T06:45:48Z</time>
      </trkpt>
      <trkpt lat="44.8825" lon="6.13734">
        <ele>1524.31</ele>
        <time>2013-07-24T06:45:49Z</time>
      </trkpt>
      <trkpt lat="44.88247" lon="6.13737">
        <ele>1525.27</ele>
        <time>2013-07-24T06:45:55Z</time>
      </trkpt>
      <trkpt lat="44.8824" lon="6.13755">
        <ele>1527.19</ele>
        <time>2013-07-24T06:46:09Z</time>
      </trkpt>
      <trkpt lat="44.88239" lon="6.13759">
        <ele>1527.19</ele>
        <time>2013-07-24T06:46:12Z</time>
      </trkpt>
      <trkpt lat="44.88238" lon="6.13767">
        <ele>1527.67</ele>
        <time>2013-07-24T06:46:16Z</time>
      </trkpt>
      <trkpt lat="44.88232" lon="6.13781">
        <ele>1527.19</ele>
        <time>2013-07-24T06:46:26Z</time>
      </trkpt>
      <trkpt lat="44.88226" lon="6.13788">
        <ele>1526.71</ele>
        <time>2013-07-24T06:46:32Z</time>
      </trkpt>
      <trkpt lat="44.88223" lon="6.13809">
        <ele>1528.15</ele>
        <time>2013-07-24T06:46:47Z</time>
      </trkpt>
      <trkpt lat="44.8822" lon="6.1382">
        <ele>1529.11</ele>
        <time>2013-07-24T06:46:55Z</time>
      </trkpt>
      <trkpt lat="44.88219" lon="6.13823">
        <ele>1529.11</ele>
        <time>2013-07-24T06:46:58Z</time>
      </trkpt>
      <trkpt lat="44.88215" lon="6.1383">
        <ele>1529.11</ele>
        <time>2013-07-24T06:47:03Z</time>
      </trkpt>
      <trkpt lat="44.88203" lon="6.13842">
        <ele>1531.04</ele>
        <time>2013-07-24T06:47:17Z</time>
      </trkpt>
      <trkpt lat="44.88191" lon="6.13856">
        <ele>1531.52</ele>
        <time>2013-07-24T06:47:30Z</time>
      </trkpt>
      <trkpt lat="44.8819" lon="6.13857">
        <ele>1532.48</ele>
        <time>2013-07-24T06:47:31Z</time>
      </trkpt>
      <trkpt lat="44.88184" lon="6.13875">
        <ele>1532</ele>
        <time>2013-07-24T06:47:44Z</time>
      </trkpt>
      <trkpt lat="44.88183" lon="6.13876">
        <ele>1532</ele>
        <time>2013-07-24T06:47:45Z</time>
      </trkpt>
      <trkpt lat="44.88179" lon="6.13885">
        <ele>1533.44</ele>
        <time>2013-07-24T06:47:55Z</time>
      </trkpt>
      <trkpt lat="44.88181" lon="6.13898">
        <ele>1535.84</ele>
        <time>2013-07-24T06:48:05Z</time>
      </trkpt>
      <trkpt lat="44.8818" lon="6.13901">
        <ele>1535.36</ele>
        <time>2013-07-24T06:48:07Z</time>
      </trkpt>
      <trkpt lat="44.88186" lon="6.13922">
        <ele>1536.32</ele>
        <time>2013-07-24T06:48:21Z</time>
      </trkpt>
      <trkpt lat="44.88189" lon="6.13937">
        <ele>1536.32</ele>
        <time>2013-07-24T06:48:32Z</time>
      </trkpt>
      <trkpt lat="44.88186" lon="6.13943">
        <ele>1535.84</ele>
        <time>2013-07-24T06:48:36Z</time>
      </trkpt>
      <trkpt lat="44.88183" lon="6.13952">
        <ele>1536.32</ele>
        <time>2013-07-24T06:48:43Z</time>
      </trkpt>
      <trkpt lat="44.88182" lon="6.13957">
        <ele>1536.32</ele>
        <time>2013-07-24T06:48:47Z</time>
      </trkpt>
      <trkpt lat="44.88184" lon="6.13963">
        <ele>1536.8</ele>
        <time>2013-07-24T06:48:51Z</time>
      </trkpt>
      <trkpt lat="44.88184" lon="6.13966">
        <ele>1536.8</ele>
        <time>2013-07-24T06:48:53Z</time>
      </trkpt>
      <trkpt lat="44.88184" lon="6.13969">
        <ele>1536.8</ele>
        <time>2013-07-24T06:48:55Z</time>
      </trkpt>
      <trkpt lat="44.88183" lon="6.13975">
        <ele>1536.8</ele>
        <time>2013-07-24T06:48:59Z</time>
      </trkpt>
      <trkpt lat="44.88184" lon="6.13981">
        <ele>1537.29</ele>
        <time>2013-07-24T06:49:03Z</time>
      </trkpt>
      <trkpt lat="44.88182" lon="6.13989">
        <ele>1538.25</ele>
        <time>2013-07-24T06:49:11Z</time>
      </trkpt>
      <trkpt lat="44.88185" lon="6.13995">
        <ele>1538.73</ele>
        <time>2013-07-24T06:49:17Z</time>
      </trkpt>
      <trkpt lat="44.88183" lon="6.14003">
        <ele>1539.69</ele>
        <time>2013-07-24T06:49:24Z</time>
      </trkpt>
      <trkpt lat="44.8818" lon="6.14017">
        <ele>1539.69</ele>
        <time>2013-07-24T06:49:37Z</time>
      </trkpt>
      <trkpt lat="44.88179" lon="6.1403">
        <ele>1541.13</ele>
        <time>2013-07-24T06:49:49Z</time>
      </trkpt>
      <trkpt lat="44.88179" lon="6.14031">
        <ele>1541.13</ele>
        <time>2013-07-24T06:49:50Z</time>
      </trkpt>
      <trkpt lat="44.88177" lon="6.14047">
        <ele>1541.13</ele>
        <time>2013-07-24T06:50:05Z</time>
      </trkpt>
      <trkpt lat="44.88172" lon="6.14058">
        <ele>1541.13</ele>
        <time>2013-07-24T06:50:19Z</time>
      </trkpt>
      <trkpt lat="44.88174" lon="6.1408">
        <ele>1542.09</ele>
        <time>2013-07-24T06:50:33Z</time>
      </trkpt>
      <trkpt lat="44.88174" lon="6.14099">
        <ele>1542.09</ele>
        <time>2013-07-24T06:50:47Z</time>
      </trkpt>
      <trkpt lat="44.88174" lon="6.14101">
        <ele>1542.57</ele>
        <time>2013-07-24T06:50:49Z</time>
      </trkpt>
      <trkpt lat="44.88174" lon="6.14105">
        <ele>1542.57</ele>
        <time>2013-07-24T06:50:52Z</time>
      </trkpt>
      <trkpt lat="44.88176" lon="6.1412">
        <ele>1543.53</ele>
        <time>2013-07-24T06:51:04Z</time>
      </trkpt>
      <trkpt lat="44.88185" lon="6.14138">
        <ele>1544.98</ele>
        <time>2013-07-24T06:51:20Z</time>
      </trkpt>
      <trkpt lat="44.88186" lon="6.14143">
        <ele>1544.5</ele>
        <time>2013-07-24T06:51:24Z</time>
      </trkpt>
      <trkpt lat="44.88192" lon="6.14161">
        <ele>1545.46</ele>
        <time>2013-07-24T06:51:37Z</time>
      </trkpt>
      <trkpt lat="44.88197" lon="6.14168">
        <ele>1545.46</ele>
        <time>2013-07-24T06:51:43Z</time>
      </trkpt>
      <trkpt lat="44.882" lon="6.14179">
        <ele>1545.46</ele>
        <time>2013-07-24T06:51:52Z</time>
      </trkpt>
      <trkpt lat="44.88202" lon="6.14192">
        <ele>1545.46</ele>
        <time>2013-07-24T06:52:02Z</time>
      </trkpt>
      <trkpt lat="44.88204" lon="6.14216">
        <ele>1546.42</ele>
        <time>2013-07-24T06:52:18Z</time>
      </trkpt>
      <trkpt lat="44.88199" lon="6.14237">
        <ele>1546.9</ele>
        <time>2013-07-24T06:52:33Z</time>
      </trkpt>
      <trkpt lat="44.88199" lon="6.14244">
        <ele>1547.38</ele>
        <time>2013-07-24T06:52:48Z</time>
      </trkpt>
      <trkpt lat="44.88198" lon="6.14244">
        <ele>1546.9</ele>
        <time>2013-07-24T06:52:59Z</time>
      </trkpt>
      <trkpt lat="44.88198" lon="6.14244">
        <ele>1546.42</ele>
        <time>2013-07-24T06:53:20Z</time>
      </trkpt>
      <trkpt lat="44.88198" lon="6.14244">
        <ele>1546.42</ele>
        <time>2013-07-24T06:53:28Z</time>
      </trkpt>
      <trkpt lat="44.88197" lon="6.14245">
        <ele>1547.38</ele>
        <time>2013-07-24T06:53:31Z</time>
      </trkpt>
      <trkpt lat="44.88195" lon="6.14245">
        <ele>1546.9</ele>
        <time>2013-07-24T06:53:53Z</time>
      </trkpt>
      <trkpt lat="44.88195" lon="6.14245">
        <ele>1547.38</ele>
        <time>2013-07-24T06:54:15Z</time>
      </trkpt>
      <trkpt lat="44.88195" lon="6.14245">
        <ele>1546.9</ele>
        <time>2013-07-24T06:54:51Z</time>
      </trkpt>
      <trkpt lat="44.88198" lon="6.14254">
        <ele>1547.86</ele>
        <time>2013-07-24T06:55:32Z</time>
      </trkpt>
      <trkpt lat="44.88198" lon="6.14256">
        <ele>1547.86</ele>
        <time>2013-07-24T06:55:33Z</time>
      </trkpt>
      <trkpt lat="44.882" lon="6.14271">
        <ele>1548.82</ele>
        <time>2013-07-24T06:55:44Z</time>
      </trkpt>
      <trkpt lat="44.88199" lon="6.14275">
        <ele>1548.82</ele>
        <time>2013-07-24T06:55:48Z</time>
      </trkpt>
      <trkpt lat="44.88192" lon="6.14286">
        <ele>1550.26</ele>
        <time>2013-07-24T06:56:03Z</time>
      </trkpt>
      <trkpt lat="44.88187" lon="6.14293">
        <ele>1551.71</ele>
        <time>2013-07-24T06:56:18Z</time>
      </trkpt>
      <trkpt lat="44.88183" lon="6.14298">
        <ele>1553.63</ele>
        <time>2013-07-24T06:56:34Z</time>
      </trkpt>
      <trkpt lat="44.88181" lon="6.14304">
        <ele>1553.63</ele>
        <time>2013-07-24T06:56:37Z</time>
      </trkpt>
      <trkpt lat="44.88172" lon="6.14317">
        <ele>1554.59</ele>
        <time>2013-07-24T06:56:49Z</time>
      </trkpt>
      <trkpt lat="44.88157" lon="6.14337">
        <ele>1556.51</ele>
        <time>2013-07-24T06:57:05Z</time>
      </trkpt>
      <trkpt lat="44.88156" lon="6.14341">
        <ele>1556.99</ele>
        <time>2013-07-24T06:57:09Z</time>
      </trkpt>
      <trkpt lat="44.88155" lon="6.1435">
        <ele>1556.99</ele>
        <time>2013-07-24T06:57:17Z</time>
      </trkpt>
      <trkpt lat="44.88151" lon="6.14358">
        <ele>1557.95</ele>
        <time>2013-07-24T06:57:33Z</time>
      </trkpt>
      <trkpt lat="44.88142" lon="6.14364">
        <ele>1558.92</ele>
        <time>2013-07-24T06:57:45Z</time>
      </trkpt>
      <trkpt lat="44.88133" lon="6.14368">
        <ele>1560.84</ele>
        <time>2013-07-24T06:57:54Z</time>
      </trkpt>
      <trkpt lat="44.88125" lon="6.14377">
        <ele>1561.32</ele>
        <time>2013-07-24T06:58:05Z</time>
      </trkpt>
      <trkpt lat="44.88119" lon="6.14392">
        <ele>1560.36</ele>
        <time>2013-07-24T06:58:16Z</time>
      </trkpt>
      <trkpt lat="44.88116" lon="6.14397">
        <ele>1560.36</ele>
        <time>2013-07-24T06:58:21Z</time>
      </trkpt>
      <trkpt lat="44.88113" lon="6.14398">
        <ele>1561.32</ele>
        <time>2013-07-24T06:58:24Z</time>
      </trkpt>
      <trkpt lat="44.88102" lon="6.14411">
        <ele>1560.84</ele>
        <time>2013-07-24T06:58:39Z</time>
      </trkpt>
      <trkpt lat="44.88086" lon="6.1442">
        <ele>1560.84</ele>
        <time>2013-07-24T06:58:52Z</time>
      </trkpt>
      <trkpt lat="44.88075" lon="6.14429">
        <ele>1560.84</ele>
        <time>2013-07-24T06:59:05Z</time>
      </trkpt>
      <trkpt lat="44.88072" lon="6.14434">
        <ele>1560.84</ele>
        <time>2013-07-24T06:59:09Z</time>
      </trkpt>
      <trkpt lat="44.88055" lon="6.14441">
        <ele>1560.36</ele>
        <time>2013-07-24T06:59:23Z</time>
      </trkpt>
      <trkpt lat="44.88041" lon="6.14447">
        <ele>1560.84</ele>
        <time>2013-07-24T06:59:35Z</time>
      </trkpt>
      <trkpt lat="44.88035" lon="6.14455">
        <ele>1561.32</ele>
        <time>2013-07-24T06:59:47Z</time>
      </trkpt>
      <trkpt lat="44.88034" lon="6.1446">
        <ele>1561.8</ele>
        <time>2013-07-24T06:59:51Z</time>
      </trkpt>
      <trkpt lat="44.88033" lon="6.14463">
        <ele>1561.8</ele>
        <time>2013-07-24T06:59:53Z</time>
      </trkpt>
      <trkpt lat="44.88026" lon="6.14479">
        <ele>1562.76</ele>
        <time>2013-07-24T07:00:05Z</time>
      </trkpt>
      <trkpt lat="44.8802" lon="6.14492">
        <ele>1562.76</ele>
        <time>2013-07-24T07:00:17Z</time>
      </trkpt>
      <trkpt lat="44.88016" lon="6.14502">
        <ele>1563.24</ele>
        <time>2013-07-24T07:00:26Z</time>
      </trkpt>
      <trkpt lat="44.88006" lon="6.14515">
        <ele>1563.24</ele>
        <time>2013-07-24T07:00:44Z</time>
      </trkpt>
      <trkpt lat="44.88" lon="6.14515">
        <ele>1563.24</ele>
        <time>2013-07-24T07:00:53Z</time>
      </trkpt>
      <trkpt lat="44.87992" lon="6.14534">
        <ele>1564.2</ele>
        <time>2013-07-24T07:01:10Z</time>
      </trkpt>
      <trkpt lat="44.87981" lon="6.14552">
        <ele>1565.64</ele>
        <time>2013-07-24T07:01:25Z</time>
      </trkpt>
      <trkpt lat="44.87978" lon="6.14553">
        <ele>1565.64</ele>
        <time>2013-07-24T07:01:43Z</time>
      </trkpt>
      <trkpt lat="44.87978" lon="6.14553">
        <ele>1565.64</ele>
        <time>2013-07-24T07:02:10Z</time>
      </trkpt>
      <trkpt lat="44.87975" lon="6.14554">
        <ele>1564.68</ele>
        <time>2013-07-24T07:02:13Z</time>
      </trkpt>
      <trkpt lat="44.87969" lon="6.14569">
        <ele>1565.64</ele>
        <time>2013-07-24T07:02:33Z</time>
      </trkpt>
      <trkpt lat="44.87954" lon="6.14576">
        <ele>1567.09</ele>
        <time>2013-07-24T07:02:49Z</time>
      </trkpt>
      <trkpt lat="44.87947" lon="6.14588">
        <ele>1567.57</ele>
        <time>2013-07-24T07:03:07Z</time>
      </trkpt>
      <trkpt lat="44.87943" lon="6.14599">
        <ele>1568.53</ele>
        <time>2013-07-24T07:03:23Z</time>
      </trkpt>
      <trkpt lat="44.87943" lon="6.14618">
        <ele>1569.49</ele>
        <time>2013-07-24T07:03:36Z</time>
      </trkpt>
      <trkpt lat="44.87944" lon="6.14619">
        <ele>1569.49</ele>
        <time>2013-07-24T07:03:38Z</time>
      </trkpt>
      <trkpt lat="44.87945" lon="6.14644">
        <ele>1570.93</ele>
        <time>2013-07-24T07:03:53Z</time>
      </trkpt>
      <trkpt lat="44.8794" lon="6.1465">
        <ele>1570.93</ele>
        <time>2013-07-24T07:04:06Z</time>
      </trkpt>
      <trkpt lat="44.87914" lon="6.14658">
        <ele>1572.37</ele>
        <time>2013-07-24T07:04:26Z</time>
      </trkpt>
      <trkpt lat="44.87907" lon="6.14673">
        <ele>1572.85</ele>
        <time>2013-07-24T07:04:42Z</time>
      </trkpt>
      <trkpt lat="44.87895" lon="6.14675">
        <ele>1572.85</ele>
        <time>2013-07-24T07:04:53Z</time>
      </trkpt>
      <trkpt lat="44.8789" lon="6.14683">
        <ele>1573.33</ele>
        <time>2013-07-24T07:04:59Z</time>
      </trkpt>
      <trkpt lat="44.87881" lon="6.14705">
        <ele>1573.82</ele>
        <time>2013-07-24T07:05:16Z</time>
      </trkpt>
      <trkpt lat="44.87869" lon="6.14723">
        <ele>1575.26</ele>
        <time>2013-07-24T07:05:34Z</time>
      </trkpt>
      <trkpt lat="44.87859" lon="6.14737">
        <ele>1576.22</ele>
        <time>2013-07-24T07:05:47Z</time>
      </trkpt>
      <trkpt lat="44.87855" lon="6.1474">
        <ele>1576.22</ele>
        <time>2013-07-24T07:05:51Z</time>
      </trkpt>
      <trkpt lat="44.87842" lon="6.14753">
        <ele>1576.22</ele>
        <time>2013-07-24T07:06:07Z</time>
      </trkpt>
      <trkpt lat="44.87836" lon="6.14766">
        <ele>1578.62</ele>
        <time>2013-07-24T07:06:20Z</time>
      </trkpt>
      <trkpt lat="44.87824" lon="6.14775">
        <ele>1578.62</ele>
        <time>2013-07-24T07:06:36Z</time>
      </trkpt>
      <trkpt lat="44.87814" lon="6.14792">
        <ele>1580.54</ele>
        <time>2013-07-24T07:06:52Z</time>
      </trkpt>
      <trkpt lat="44.87803" lon="6.14806">
        <ele>1581.51</ele>
        <time>2013-07-24T07:07:08Z</time>
      </trkpt>
      <trkpt lat="44.878" lon="6.14813">
        <ele>1581.51</ele>
        <time>2013-07-24T07:07:15Z</time>
      </trkpt>
      <trkpt lat="44.87792" lon="6.14825">
        <ele>1581.03</ele>
        <time>2013-07-24T07:07:30Z</time>
      </trkpt>
      <trkpt lat="44.87791" lon="6.1483">
        <ele>1582.47</ele>
        <time>2013-07-24T07:07:43Z</time>
      </trkpt>
      <trkpt lat="44.87787" lon="6.14844">
        <ele>1583.91</ele>
        <time>2013-07-24T07:07:59Z</time>
      </trkpt>
      <trkpt lat="44.87779" lon="6.14859">
        <ele>1584.87</ele>
        <time>2013-07-24T07:08:12Z</time>
      </trkpt>
      <trkpt lat="44.87769" lon="6.14877">
        <ele>1585.83</ele>
        <time>2013-07-24T07:08:28Z</time>
      </trkpt>
      <trkpt lat="44.87761" lon="6.14896">
        <ele>1586.79</ele>
        <time>2013-07-24T07:08:43Z</time>
      </trkpt>
      <trkpt lat="44.87753" lon="6.14909">
        <ele>1587.27</ele>
        <time>2013-07-24T07:08:54Z</time>
      </trkpt>
      <trkpt lat="44.87743" lon="6.14924">
        <ele>1588.24</ele>
        <time>2013-07-24T07:09:12Z</time>
      </trkpt>
      <trkpt lat="44.87728" lon="6.14938">
        <ele>1589.68</ele>
        <time>2013-07-24T07:09:31Z</time>
      </trkpt>
      <trkpt lat="44.87719" lon="6.14945">
        <ele>1590.16</ele>
        <time>2013-07-24T07:09:45Z</time>
      </trkpt>
      <trkpt lat="44.87708" lon="6.14953">
        <ele>1591.6</ele>
        <time>2013-07-24T07:09:57Z</time>
      </trkpt>
      <trkpt lat="44.87695" lon="6.14961">
        <ele>1593.52</ele>
        <time>2013-07-24T07:10:13Z</time>
      </trkpt>
      <trkpt lat="44.87692" lon="6.14965">
        <ele>1594.48</ele>
        <time>2013-07-24T07:10:28Z</time>
      </trkpt>
      <trkpt lat="44.87683" lon="6.14972">
        <ele>1596.41</ele>
        <time>2013-07-24T07:10:42Z</time>
      </trkpt>
      <trkpt lat="44.8767" lon="6.14978">
        <ele>1597.85</ele>
        <time>2013-07-24T07:10:57Z</time>
      </trkpt>
      <trkpt lat="44.87663" lon="6.14989">
        <ele>1599.29</ele>
        <time>2013-07-24T07:11:12Z</time>
      </trkpt>
      <trkpt lat="44.87658" lon="6.14996">
        <ele>1600.25</ele>
        <time>2013-07-24T07:11:28Z</time>
      </trkpt>
      <trkpt lat="44.87653" lon="6.1501">
        <ele>1602.66</ele>
        <time>2013-07-24T07:11:43Z</time>
      </trkpt>
      <trkpt lat="44.87646" lon="6.15017">
        <ele>1604.58</ele>
        <time>2013-07-24T07:12:00Z</time>
      </trkpt>
      <trkpt lat="44.87646" lon="6.15018">
        <ele>1605.06</ele>
        <time>2013-07-24T07:12:04Z</time>
      </trkpt>
      <trkpt lat="44.87645" lon="6.15031">
        <ele>1606.98</ele>
        <time>2013-07-24T07:12:20Z</time>
      </trkpt>
      <trkpt lat="44.87642" lon="6.15049">
        <ele>1609.38</ele>
        <time>2013-07-24T07:12:36Z</time>
      </trkpt>
      <trkpt lat="44.87639" lon="6.15063">
        <ele>1609.38</ele>
        <time>2013-07-24T07:12:50Z</time>
      </trkpt>
      <trkpt lat="44.87639" lon="6.15065">
        <ele>1609.86</ele>
        <time>2013-07-24T07:12:52Z</time>
      </trkpt>
      <trkpt lat="44.87629" lon="6.15072">
        <ele>1610.83</ele>
        <time>2013-07-24T07:13:06Z</time>
      </trkpt>
      <trkpt lat="44.87617" lon="6.15078">
        <ele>1612.27</ele>
        <time>2013-07-24T07:13:23Z</time>
      </trkpt>
      <trkpt lat="44.87608" lon="6.15083">
        <ele>1614.67</ele>
        <time>2013-07-24T07:13:38Z</time>
      </trkpt>
      <trkpt lat="44.87596" lon="6.15092">
        <ele>1616.59</ele>
        <time>2013-07-24T07:13:57Z</time>
      </trkpt>
      <trkpt lat="44.87587" lon="6.15098">
        <ele>1618.52</ele>
        <time>2013-07-24T07:14:13Z</time>
      </trkpt>
      <trkpt lat="44.87582" lon="6.15107">
        <ele>1620.92</ele>
        <time>2013-07-24T07:14:26Z</time>
      </trkpt>
      <trkpt lat="44.8758" lon="6.15119">
        <ele>1621.88</ele>
        <time>2013-07-24T07:14:41Z</time>
      </trkpt>
      <trkpt lat="44.87575" lon="6.15132">
        <ele>1625.25</ele>
        <time>2013-07-24T07:14:59Z</time>
      </trkpt>
      <trkpt lat="44.8757" lon="6.15149">
        <ele>1627.65</ele>
        <time>2013-07-24T07:15:18Z</time>
      </trkpt>
      <trkpt lat="44.87566" lon="6.15161">
        <ele>1629.57</ele>
        <time>2013-07-24T07:15:33Z</time>
      </trkpt>
      <trkpt lat="44.87561" lon="6.15173">
        <ele>1631.98</ele>
        <time>2013-07-24T07:15:51Z</time>
      </trkpt>
      <trkpt lat="44.87553" lon="6.15182">
        <ele>1634.38</ele>
        <time>2013-07-24T07:16:06Z</time>
      </trkpt>
      <trkpt lat="44.87546" lon="6.15189">
        <ele>1636.3</ele>
        <time>2013-07-24T07:16:21Z</time>
      </trkpt>
      <trkpt lat="44.87542" lon="6.15201">
        <ele>1639.19</ele>
        <time>2013-07-24T07:16:37Z</time>
      </trkpt>
      <trkpt lat="44.87535" lon="6.15215">
        <ele>1640.63</ele>
        <time>2013-07-24T07:16:55Z</time>
      </trkpt>
      <trkpt lat="44.87522" lon="6.15229">
        <ele>1641.11</ele>
        <time>2013-07-24T07:17:13Z</time>
      </trkpt>
      <trkpt lat="44.87509" lon="6.1523">
        <ele>1640.63</ele>
        <time>2013-07-24T07:17:28Z</time>
      </trkpt>
      <trkpt lat="44.87501" lon="6.15231">
        <ele>1643.03</ele>
        <time>2013-07-24T07:17:40Z</time>
      </trkpt>
      <trkpt lat="44.87492" lon="6.15239">
        <ele>1643.51</ele>
        <time>2013-07-24T07:17:55Z</time>
      </trkpt>
      <trkpt lat="44.87482" lon="6.15252">
        <ele>1645.91</ele>
        <time>2013-07-24T07:18:13Z</time>
      </trkpt>
      <trkpt lat="44.87469" lon="6.15266">
        <ele>1646.88</ele>
        <time>2013-07-24T07:18:30Z</time>
      </trkpt>
      <trkpt lat="44.87463" lon="6.15281">
        <ele>1648.32</ele>
        <time>2013-07-24T07:18:45Z</time>
      </trkpt>
      <trkpt lat="44.87453" lon="6.15298">
        <ele>1649.76</ele>
        <time>2013-07-24T07:19:02Z</time>
      </trkpt>
      <trkpt lat="44.87453" lon="6.15315">
        <ele>1652.16</ele>
        <time>2013-07-24T07:19:19Z</time>
      </trkpt>
      <trkpt lat="44.87452" lon="6.15325">
        <ele>1654.09</ele>
        <time>2013-07-24T07:19:33Z</time>
      </trkpt>
      <trkpt lat="44.87445" lon="6.1534">
        <ele>1654.57</ele>
        <time>2013-07-24T07:19:47Z</time>
      </trkpt>
      <trkpt lat="44.87438" lon="6.15358">
        <ele>1656.49</ele>
        <time>2013-07-24T07:20:03Z</time>
      </trkpt>
      <trkpt lat="44.87429" lon="6.15376">
        <ele>1658.41</ele>
        <time>2013-07-24T07:20:21Z</time>
      </trkpt>
      <trkpt lat="44.87423" lon="6.15392">
        <ele>1661.3</ele>
        <time>2013-07-24T07:20:40Z</time>
      </trkpt>
      <trkpt lat="44.87419" lon="6.15403">
        <ele>1663.22</ele>
        <time>2013-07-24T07:20:58Z</time>
      </trkpt>
      <trkpt lat="44.87417" lon="6.15419">
        <ele>1665.62</ele>
        <time>2013-07-24T07:21:14Z</time>
      </trkpt>
      <trkpt lat="44.87407" lon="6.15427">
        <ele>1667.06</ele>
        <time>2013-07-24T07:21:31Z</time>
      </trkpt>
      <trkpt lat="44.87402" lon="6.15432">
        <ele>1666.58</ele>
        <time>2013-07-24T07:21:47Z</time>
      </trkpt>
      <trkpt lat="44.87397" lon="6.15436">
        <ele>1668.02</ele>
        <time>2013-07-24T07:22:08Z</time>
      </trkpt>
      <trkpt lat="44.87395" lon="6.15444">
        <ele>1670.43</ele>
        <time>2013-07-24T07:22:24Z</time>
      </trkpt>
      <trkpt lat="44.87392" lon="6.15457">
        <ele>1673.79</ele>
        <time>2013-07-24T07:22:40Z</time>
      </trkpt>
      <trkpt lat="44.87386" lon="6.15471">
        <ele>1675.72</ele>
        <time>2013-07-24T07:22:55Z</time>
      </trkpt>
      <trkpt lat="44.87386" lon="6.1549">
        <ele>1677.16</ele>
        <time>2013-07-24T07:23:12Z</time>
      </trkpt>
      <trkpt lat="44.87383" lon="6.15506">
        <ele>1679.56</ele>
        <time>2013-07-24T07:23:29Z</time>
      </trkpt>
      <trkpt lat="44.87382" lon="6.15516">
        <ele>1682.93</ele>
        <time>2013-07-24T07:23:40Z</time>
      </trkpt>
      <trkpt lat="44.87385" lon="6.15522">
        <ele>1683.41</ele>
        <time>2013-07-24T07:23:54Z</time>
      </trkpt>
      <trkpt lat="44.87384" lon="6.15533">
        <ele>1685.33</ele>
        <time>2013-07-24T07:24:09Z</time>
      </trkpt>
      <trkpt lat="44.87383" lon="6.15544">
        <ele>1688.21</ele>
        <time>2013-07-24T07:24:23Z</time>
      </trkpt>
      <trkpt lat="44.87381" lon="6.15553">
        <ele>1689.65</ele>
        <time>2013-07-24T07:24:36Z</time>
      </trkpt>
      <trkpt lat="44.87375" lon="6.15564">
        <ele>1692.06</ele>
        <time>2013-07-24T07:24:52Z</time>
      </trkpt>
      <trkpt lat="44.87368" lon="6.1557">
        <ele>1693.5</ele>
        <time>2013-07-24T07:25:06Z</time>
      </trkpt>
      <trkpt lat="44.87361" lon="6.15573">
        <ele>1695.9</ele>
        <time>2013-07-24T07:25:18Z</time>
      </trkpt>
      <trkpt lat="44.87359" lon="6.15574">
        <ele>1695.9</ele>
        <time>2013-07-24T07:25:20Z</time>
      </trkpt>
      <trkpt lat="44.87357" lon="6.15575">
        <ele>1695.9</ele>
        <time>2013-07-24T07:25:23Z</time>
      </trkpt>
      <trkpt lat="44.8735" lon="6.1558">
        <ele>1695.9</ele>
        <time>2013-07-24T07:25:34Z</time>
      </trkpt>
      <trkpt lat="44.87345" lon="6.15592">
        <ele>1697.34</ele>
        <time>2013-07-24T07:25:48Z</time>
      </trkpt>
      <trkpt lat="44.8734" lon="6.15602">
        <ele>1699.75</ele>
        <time>2013-07-24T07:26:03Z</time>
      </trkpt>
      <trkpt lat="44.8734" lon="6.15617">
        <ele>1701.19</ele>
        <time>2013-07-24T07:26:18Z</time>
      </trkpt>
      <trkpt lat="44.87341" lon="6.15638">
        <ele>1703.11</ele>
        <time>2013-07-24T07:26:34Z</time>
      </trkpt>
      <trkpt lat="44.87335" lon="6.15658">
        <ele>1704.07</ele>
        <time>2013-07-24T07:26:52Z</time>
      </trkpt>
      <trkpt lat="44.87334" lon="6.1566">
        <ele>1703.11</ele>
        <time>2013-07-24T07:26:54Z</time>
      </trkpt>
      <trkpt lat="44.87328" lon="6.15667">
        <ele>1704.07</ele>
        <time>2013-07-24T07:27:03Z</time>
      </trkpt>
      <trkpt lat="44.87325" lon="6.15684">
        <ele>1705.04</ele>
        <time>2013-07-24T07:27:19Z</time>
      </trkpt>
      <trkpt lat="44.87321" lon="6.15686">
        <ele>1706.48</ele>
        <time>2013-07-24T07:27:25Z</time>
      </trkpt>
      <trkpt lat="44.87313" lon="6.15692">
        <ele>1707.92</ele>
        <time>2013-07-24T07:27:41Z</time>
      </trkpt>
      <trkpt lat="44.87305" lon="6.15701">
        <ele>1709.84</ele>
        <time>2013-07-24T07:27:54Z</time>
      </trkpt>
      <trkpt lat="44.87302" lon="6.1571">
        <ele>1710.8</ele>
        <time>2013-07-24T07:28:03Z</time>
      </trkpt>
      <trkpt lat="44.87299" lon="6.15723">
        <ele>1711.76</ele>
        <time>2013-07-24T07:28:19Z</time>
      </trkpt>
      <trkpt lat="44.87296" lon="6.15733">
        <ele>1714.17</ele>
        <time>2013-07-24T07:28:34Z</time>
      </trkpt>
      <trkpt lat="44.87296" lon="6.15733">
        <ele>1715.13</ele>
        <time>2013-07-24T07:28:35Z</time>
      </trkpt>
      <trkpt lat="44.87284" lon="6.15736">
        <ele>1716.57</ele>
        <time>2013-07-24T07:28:48Z</time>
      </trkpt>
      <trkpt lat="44.87279" lon="6.15738">
        <ele>1717.05</ele>
        <time>2013-07-24T07:28:53Z</time>
      </trkpt>
      <trkpt lat="44.87271" lon="6.15744">
        <ele>1717.53</ele>
        <time>2013-07-24T07:29:03Z</time>
      </trkpt>
      <trkpt lat="44.87264" lon="6.15751">
        <ele>1718.49</ele>
        <time>2013-07-24T07:29:14Z</time>
      </trkpt>
      <trkpt lat="44.87261" lon="6.15765">
        <ele>1719.94</ele>
        <time>2013-07-24T07:29:28Z</time>
      </trkpt>
      <trkpt lat="44.87261" lon="6.15771">
        <ele>1720.9</ele>
        <time>2013-07-24T07:29:34Z</time>
      </trkpt>
      <trkpt lat="44.87259" lon="6.15783">
        <ele>1722.34</ele>
        <time>2013-07-24T07:29:48Z</time>
      </trkpt>
      <trkpt lat="44.87259" lon="6.15796">
        <ele>1724.26</ele>
        <time>2013-07-24T07:30:03Z</time>
      </trkpt>
      <trkpt lat="44.87255" lon="6.15807">
        <ele>1726.18</ele>
        <time>2013-07-24T07:30:18Z</time>
      </trkpt>
      <trkpt lat="44.87254" lon="6.15808">
        <ele>1726.18</ele>
        <time>2013-07-24T07:30:19Z</time>
      </trkpt>
      <trkpt lat="44.87249" lon="6.15825">
        <ele>1726.67</ele>
        <time>2013-07-24T07:30:34Z</time>
      </trkpt>
      <trkpt lat="44.87248" lon="6.15828">
        <ele>1727.63</ele>
        <time>2013-07-24T07:30:38Z</time>
      </trkpt>
      <trkpt lat="44.87246" lon="6.15829">
        <ele>1727.63</ele>
        <time>2013-07-24T07:30:40Z</time>
      </trkpt>
      <trkpt lat="44.87238" lon="6.15836">
        <ele>1729.07</ele>
        <time>2013-07-24T07:30:53Z</time>
      </trkpt>
      <trkpt lat="44.87231" lon="6.15843">
        <ele>1730.51</ele>
        <time>2013-07-24T07:31:05Z</time>
      </trkpt>
      <trkpt lat="44.87224" lon="6.15852">
        <ele>1731.47</ele>
        <time>2013-07-24T07:31:18Z</time>
      </trkpt>
      <trkpt lat="44.87219" lon="6.15859">
        <ele>1733.39</ele>
        <time>2013-07-24T07:31:29Z</time>
      </trkpt>
      <trkpt lat="44.87215" lon="6.15868">
        <ele>1734.84</ele>
        <time>2013-07-24T07:31:44Z</time>
      </trkpt>
      <trkpt lat="44.87209" lon="6.15876">
        <ele>1735.8</ele>
        <time>2013-07-24T07:31:57Z</time>
      </trkpt>
      <trkpt lat="44.87211" lon="6.15888">
        <ele>1737.72</ele>
        <time>2013-07-24T07:32:09Z</time>
      </trkpt>
      <trkpt lat="44.8721" lon="6.15893">
        <ele>1738.2</ele>
        <time>2013-07-24T07:32:14Z</time>
      </trkpt>
      <trkpt lat="44.87207" lon="6.15898">
        <ele>1738.2</ele>
        <time>2013-07-24T07:32:20Z</time>
      </trkpt>
      <trkpt lat="44.87199" lon="6.15906">
        <ele>1740.12</ele>
        <time>2013-07-24T07:32:34Z</time>
      </trkpt>
      <trkpt lat="44.8719" lon="6.1591">
        <ele>1741.57</ele>
        <time>2013-07-24T07:32:46Z</time>
      </trkpt>
      <trkpt lat="44.87188" lon="6.15911">
        <ele>1741.08</ele>
        <time>2013-07-24T07:32:48Z</time>
      </trkpt>
      <trkpt lat="44.87185" lon="6.15911">
        <ele>1741.08</ele>
        <time>2013-07-24T07:32:51Z</time>
      </trkpt>
      <trkpt lat="44.8718" lon="6.15912">
        <ele>1742.53</ele>
        <time>2013-07-24T07:32:55Z</time>
      </trkpt>
      <trkpt lat="44.87175" lon="6.15913">
        <ele>1742.05</ele>
        <time>2013-07-24T07:33:00Z</time>
      </trkpt>
      <trkpt lat="44.87164" lon="6.15914">
        <ele>1743.49</ele>
        <time>2013-07-24T07:33:13Z</time>
      </trkpt>
      <trkpt lat="44.87151" lon="6.15913">
        <ele>1744.93</ele>
        <time>2013-07-24T07:33:27Z</time>
      </trkpt>
      <trkpt lat="44.87151" lon="6.15913">
        <ele>1744.93</ele>
        <time>2013-07-24T07:33:28Z</time>
      </trkpt>
      <trkpt lat="44.87152" lon="6.15925">
        <ele>1746.85</ele>
        <time>2013-07-24T07:33:41Z</time>
      </trkpt>
      <trkpt lat="44.87151" lon="6.15928">
        <ele>1747.81</ele>
        <time>2013-07-24T07:33:47Z</time>
      </trkpt>
      <trkpt lat="44.87142" lon="6.15929">
        <ele>1749.26</ele>
        <time>2013-07-24T07:33:59Z</time>
      </trkpt>
      <trkpt lat="44.87134" lon="6.15932">
        <ele>1750.7</ele>
        <time>2013-07-24T07:34:12Z</time>
      </trkpt>
      <trkpt lat="44.87129" lon="6.15936">
        <ele>1753.1</ele>
        <time>2013-07-24T07:34:24Z</time>
      </trkpt>
      <trkpt lat="44.87127" lon="6.15938">
        <ele>1753.58</ele>
        <time>2013-07-24T07:34:31Z</time>
      </trkpt>
      <trkpt lat="44.87125" lon="6.15941">
        <ele>1754.06</ele>
        <time>2013-07-24T07:34:37Z</time>
      </trkpt>
      <trkpt lat="44.87118" lon="6.15943">
        <ele>1755.5</ele>
        <time>2013-07-24T07:34:46Z</time>
      </trkpt>
      <trkpt lat="44.87111" lon="6.15944">
        <ele>1757.43</ele>
        <time>2013-07-24T07:34:56Z</time>
      </trkpt>
      <trkpt lat="44.87115" lon="6.1595">
        <ele>1758.87</ele>
        <time>2013-07-24T07:35:10Z</time>
      </trkpt>
      <trkpt lat="44.87116" lon="6.15959">
        <ele>1760.31</ele>
        <time>2013-07-24T07:35:25Z</time>
      </trkpt>
      <trkpt lat="44.87104" lon="6.15961">
        <ele>1762.71</ele>
        <time>2013-07-24T07:35:41Z</time>
      </trkpt>
      <trkpt lat="44.87103" lon="6.15968">
        <ele>1765.12</ele>
        <time>2013-07-24T07:35:57Z</time>
      </trkpt>
      <trkpt lat="44.87093" lon="6.15969">
        <ele>1767.52</ele>
        <time>2013-07-24T07:36:15Z</time>
      </trkpt>
      <trkpt lat="44.87087" lon="6.15964">
        <ele>1769.44</ele>
        <time>2013-07-24T07:36:30Z</time>
      </trkpt>
      <trkpt lat="44.8708" lon="6.15968">
        <ele>1771.85</ele>
        <time>2013-07-24T07:36:45Z</time>
      </trkpt>
      <trkpt lat="44.87083" lon="6.15974">
        <ele>1773.29</ele>
        <time>2013-07-24T07:36:53Z</time>
      </trkpt>
      <trkpt lat="44.87086" lon="6.15988">
        <ele>1775.21</ele>
        <time>2013-07-24T07:37:08Z</time>
      </trkpt>
      <trkpt lat="44.87087" lon="6.16">
        <ele>1775.69</ele>
        <time>2013-07-24T07:37:22Z</time>
      </trkpt>
      <trkpt lat="44.87083" lon="6.16007">
        <ele>1778.58</ele>
        <time>2013-07-24T07:37:38Z</time>
      </trkpt>
      <trkpt lat="44.87084" lon="6.16018">
        <ele>1780.5</ele>
        <time>2013-07-24T07:37:52Z</time>
      </trkpt>
      <trkpt lat="44.8708" lon="6.16023">
        <ele>1782.42</ele>
        <time>2013-07-24T07:38:06Z</time>
      </trkpt>
      <trkpt lat="44.87078" lon="6.16027">
        <ele>1782.9</ele>
        <time>2013-07-24T07:38:34Z</time>
      </trkpt>
      <trkpt lat="44.87079" lon="6.16028">
        <ele>1785.31</ele>
        <time>2013-07-24T07:38:51Z</time>
      </trkpt>
      <trkpt lat="44.87077" lon="6.16032">
        <ele>1784.82</ele>
        <time>2013-07-24T07:39:04Z</time>
      </trkpt>
      <trkpt lat="44.87074" lon="6.1604">
        <ele>1786.75</ele>
        <time>2013-07-24T07:39:18Z</time>
      </trkpt>
      <trkpt lat="44.87072" lon="6.16048">
        <ele>1788.19</ele>
        <time>2013-07-24T07:39:30Z</time>
      </trkpt>
      <trkpt lat="44.8707" lon="6.16055">
        <ele>1791.55</ele>
        <time>2013-07-24T07:39:40Z</time>
      </trkpt>
      <trkpt lat="44.8707" lon="6.16064">
        <ele>1792.03</ele>
        <time>2013-07-24T07:39:54Z</time>
      </trkpt>
      <trkpt lat="44.87071" lon="6.1607">
        <ele>1794.44</ele>
        <time>2013-07-24T07:40:08Z</time>
      </trkpt>
      <trkpt lat="44.8707" lon="6.16083">
        <ele>1796.36</ele>
        <time>2013-07-24T07:40:24Z</time>
      </trkpt>
      <trkpt lat="44.87068" lon="6.16091">
        <ele>1798.76</ele>
        <time>2013-07-24T07:40:39Z</time>
      </trkpt>
      <trkpt lat="44.87066" lon="6.16102">
        <ele>1800.69</ele>
        <time>2013-07-24T07:40:53Z</time>
      </trkpt>
      <trkpt lat="44.87067" lon="6.16112">
        <ele>1803.57</ele>
        <time>2013-07-24T07:41:08Z</time>
      </trkpt>
      <trkpt lat="44.87065" lon="6.16122">
        <ele>1805.49</ele>
        <time>2013-07-24T07:41:24Z</time>
      </trkpt>
      <trkpt lat="44.87067" lon="6.16131">
        <ele>1808.38</ele>
        <time>2013-07-24T07:41:36Z</time>
      </trkpt>
      <trkpt lat="44.87069" lon="6.16141">
        <ele>1810.3</ele>
        <time>2013-07-24T07:41:50Z</time>
      </trkpt>
      <trkpt lat="44.87065" lon="6.1615">
        <ele>1811.26</ele>
        <time>2013-07-24T07:42:02Z</time>
      </trkpt>
      <trkpt lat="44.87063" lon="6.16151">
        <ele>1812.22</ele>
        <time>2013-07-24T07:42:05Z</time>
      </trkpt>
      <trkpt lat="44.87058" lon="6.1616">
        <ele>1814.15</ele>
        <time>2013-07-24T07:42:20Z</time>
      </trkpt>
      <trkpt lat="44.87061" lon="6.16172">
        <ele>1816.55</ele>
        <time>2013-07-24T07:42:36Z</time>
      </trkpt>
      <trkpt lat="44.87057" lon="6.16182">
        <ele>1818.95</ele>
        <time>2013-07-24T07:42:52Z</time>
      </trkpt>
      <trkpt lat="44.87049" lon="6.16187">
        <ele>1820.39</ele>
        <time>2013-07-24T07:43:03Z</time>
      </trkpt>
      <trkpt lat="44.87048" lon="6.16192">
        <ele>1820.87</ele>
        <time>2013-07-24T07:43:09Z</time>
      </trkpt>
      <trkpt lat="44.87043" lon="6.16203">
        <ele>1822.8</ele>
        <time>2013-07-24T07:43:24Z</time>
      </trkpt>
      <trkpt lat="44.87041" lon="6.16215">
        <ele>1824.24</ele>
        <time>2013-07-24T07:43:36Z</time>
      </trkpt>
      <trkpt lat="44.87035" lon="6.16229">
        <ele>1826.16</ele>
        <time>2013-07-24T07:43:52Z</time>
      </trkpt>
      <trkpt lat="44.87026" lon="6.1624">
        <ele>1826.64</ele>
        <time>2013-07-24T07:44:06Z</time>
      </trkpt>
      <trkpt lat="44.87022" lon="6.16248">
        <ele>1828.56</ele>
        <time>2013-07-24T07:44:19Z</time>
      </trkpt>
      <trkpt lat="44.8701" lon="6.16256">
        <ele>1830.01</ele>
        <time>2013-07-24T07:44:35Z</time>
      </trkpt>
      <trkpt lat="44.86999" lon="6.16264">
        <ele>1830.49</ele>
        <time>2013-07-24T07:44:49Z</time>
      </trkpt>
      <trkpt lat="44.86992" lon="6.16276">
        <ele>1832.89</ele>
        <time>2013-07-24T07:45:05Z</time>
      </trkpt>
      <trkpt lat="44.86986" lon="6.16285">
        <ele>1834.81</ele>
        <time>2013-07-24T07:45:18Z</time>
      </trkpt>
      <trkpt lat="44.86983" lon="6.16296">
        <ele>1836.74</ele>
        <time>2013-07-24T07:45:32Z</time>
      </trkpt>
      <trkpt lat="44.86975" lon="6.16305">
        <ele>1836.74</ele>
        <time>2013-07-24T07:45:48Z</time>
      </trkpt>
      <trkpt lat="44.86975" lon="6.16306">
        <ele>1837.22</ele>
        <time>2013-07-24T07:45:49Z</time>
      </trkpt>
      <trkpt lat="44.86971" lon="6.16306">
        <ele>1836.74</ele>
        <time>2013-07-24T07:45:52Z</time>
      </trkpt>
      <trkpt lat="44.86954" lon="6.16311">
        <ele>1837.22</ele>
        <time>2013-07-24T07:46:08Z</time>
      </trkpt>
      <trkpt lat="44.86952" lon="6.16317">
        <ele>1837.7</ele>
        <time>2013-07-24T07:46:14Z</time>
      </trkpt>
      <trkpt lat="44.86951" lon="6.16326">
        <ele>1838.18</ele>
        <time>2013-07-24T07:46:22Z</time>
      </trkpt>
      <trkpt lat="44.86942" lon="6.16337">
        <ele>1838.18</ele>
        <time>2013-07-24T07:46:36Z</time>
      </trkpt>
      <trkpt lat="44.86934" lon="6.16352">
        <ele>1838.18</ele>
        <time>2013-07-24T07:46:53Z</time>
      </trkpt>
      <trkpt lat="44.86933" lon="6.16355">
        <ele>1837.7</ele>
        <time>2013-07-24T07:46:57Z</time>
      </trkpt>
      <trkpt lat="44.8693" lon="6.16372">
        <ele>1837.7</ele>
        <time>2013-07-24T07:47:12Z</time>
      </trkpt>
      <trkpt lat="44.8693" lon="6.16373">
        <ele>1838.18</ele>
        <time>2013-07-24T07:47:13Z</time>
      </trkpt>
      <trkpt lat="44.86927" lon="6.1638">
        <ele>1839.14</ele>
        <time>2013-07-24T07:47:30Z</time>
      </trkpt>
      <trkpt lat="44.86924" lon="6.1638">
        <ele>1839.62</ele>
        <time>2013-07-24T07:47:38Z</time>
      </trkpt>
      <trkpt lat="44.86919" lon="6.16378">
        <ele>1840.1</ele>
        <time>2013-07-24T07:47:52Z</time>
      </trkpt>
      <trkpt lat="44.86911" lon="6.16373">
        <ele>1840.1</ele>
        <time>2013-07-24T07:48:06Z</time>
      </trkpt>
      <trkpt lat="44.86908" lon="6.16374">
        <ele>1840.58</ele>
        <time>2013-07-24T07:48:13Z</time>
      </trkpt>
      <trkpt lat="44.86902" lon="6.16372">
        <ele>1840.58</ele>
        <time>2013-07-24T07:48:20Z</time>
      </trkpt>
      <trkpt lat="44.86896" lon="6.16369">
        <ele>1841.06</ele>
        <time>2013-07-24T07:48:25Z</time>
      </trkpt>
      <trkpt lat="44.86891" lon="6.1637">
        <ele>1841.54</ele>
        <time>2013-07-24T07:48:34Z</time>
      </trkpt>
      <trkpt lat="44.86887" lon="6.16367">
        <ele>1841.06</ele>
        <time>2013-07-24T07:48:40Z</time>
      </trkpt>
      <trkpt lat="44.86881" lon="6.16365">
        <ele>1841.54</ele>
        <time>2013-07-24T07:48:56Z</time>
      </trkpt>
      <trkpt lat="44.86882" lon="6.16365">
        <ele>1841.06</ele>
        <time>2013-07-24T07:49:04Z</time>
      </trkpt>
      <trkpt lat="44.86882" lon="6.16367">
        <ele>1841.54</ele>
        <time>2013-07-24T07:49:21Z</time>
      </trkpt>
      <trkpt lat="44.86886" lon="6.16368">
        <ele>1842.02</ele>
        <time>2013-07-24T07:49:34Z</time>
      </trkpt>
      <trkpt lat="44.86875" lon="6.16358">
        <ele>1842.5</ele>
        <time>2013-07-24T07:49:49Z</time>
      </trkpt>
      <trkpt lat="44.86874" lon="6.16357">
        <ele>1842.98</ele>
        <time>2013-07-24T07:50:06Z</time>
      </trkpt>
      <trkpt lat="44.86868" lon="6.16355">
        <ele>1843.47</ele>
        <time>2013-07-24T07:50:24Z</time>
      </trkpt>
      <trkpt lat="44.86863" lon="6.16346">
        <ele>1846.35</ele>
        <time>2013-07-24T07:50:40Z</time>
      </trkpt>
      <trkpt lat="44.8685" lon="6.16341">
        <ele>1846.35</ele>
        <time>2013-07-24T07:50:53Z</time>
      </trkpt>
      <trkpt lat="44.86851" lon="6.16331">
        <ele>1847.79</ele>
        <time>2013-07-24T07:51:02Z</time>
      </trkpt>
      <trkpt lat="44.86853" lon="6.16328">
        <ele>1846.83</ele>
        <time>2013-07-24T07:51:05Z</time>
      </trkpt>
      <trkpt lat="44.86851" lon="6.16315">
        <ele>1848.75</ele>
        <time>2013-07-24T07:51:19Z</time>
      </trkpt>
      <trkpt lat="44.86842" lon="6.16311">
        <ele>1849.23</ele>
        <time>2013-07-24T07:51:31Z</time>
      </trkpt>
      <trkpt lat="44.86829" lon="6.1631">
        <ele>1851.16</ele>
        <time>2013-07-24T07:51:46Z</time>
      </trkpt>
      <trkpt lat="44.86824" lon="6.16315">
        <ele>1852.6</ele>
        <time>2013-07-24T07:51:56Z</time>
      </trkpt>
      <trkpt lat="44.86819" lon="6.16322">
        <ele>1854.52</ele>
        <time>2013-07-24T07:52:07Z</time>
      </trkpt>
      <trkpt lat="44.86813" lon="6.16335">
        <ele>1855.96</ele>
        <time>2013-07-24T07:52:22Z</time>
      </trkpt>
      <trkpt lat="44.8681" lon="6.16341">
        <ele>1856.92</ele>
        <time>2013-07-24T07:52:31Z</time>
      </trkpt>
      <trkpt lat="44.86803" lon="6.16347">
        <ele>1859.33</ele>
        <time>2013-07-24T07:52:45Z</time>
      </trkpt>
      <trkpt lat="44.86797" lon="6.16348">
        <ele>1861.73</ele>
        <time>2013-07-24T07:52:58Z</time>
      </trkpt>
      <trkpt lat="44.86793" lon="6.16346">
        <ele>1862.21</ele>
        <time>2013-07-24T07:53:04Z</time>
      </trkpt>
      <trkpt lat="44.86786" lon="6.16351">
        <ele>1864.61</ele>
        <time>2013-07-24T07:53:17Z</time>
      </trkpt>
      <trkpt lat="44.8678" lon="6.16356">
        <ele>1865.58</ele>
        <time>2013-07-24T07:53:30Z</time>
      </trkpt>
      <trkpt lat="44.86774" lon="6.1636">
        <ele>1867.98</ele>
        <time>2013-07-24T07:53:44Z</time>
      </trkpt>
      <trkpt lat="44.86767" lon="6.16363">
        <ele>1869.42</ele>
        <time>2013-07-24T07:53:57Z</time>
      </trkpt>
      <trkpt lat="44.86762" lon="6.16372">
        <ele>1871.82</ele>
        <time>2013-07-24T07:54:11Z</time>
      </trkpt>
      <trkpt lat="44.86756" lon="6.16376">
        <ele>1873.27</ele>
        <time>2013-07-24T07:54:24Z</time>
      </trkpt>
      <trkpt lat="44.86755" lon="6.16377">
        <ele>1873.27</ele>
        <time>2013-07-24T07:54:26Z</time>
      </trkpt>
      <trkpt lat="44.86745" lon="6.16381">
        <ele>1875.67</ele>
        <time>2013-07-24T07:54:41Z</time>
      </trkpt>
      <trkpt lat="44.86738" lon="6.16392">
        <ele>1877.11</ele>
        <time>2013-07-24T07:54:55Z</time>
      </trkpt>
      <trkpt lat="44.86729" lon="6.16394">
        <ele>1879.51</ele>
        <time>2013-07-24T07:55:09Z</time>
      </trkpt>
      <trkpt lat="44.86727" lon="6.16395">
        <ele>1879.51</ele>
        <time>2013-07-24T07:55:11Z</time>
      </trkpt>
      <trkpt lat="44.86721" lon="6.16402">
        <ele>1881.44</ele>
        <time>2013-07-24T07:55:27Z</time>
      </trkpt>
      <trkpt lat="44.86716" lon="6.164">
        <ele>1883.36</ele>
        <time>2013-07-24T07:55:33Z</time>
      </trkpt>
      <trkpt lat="44.8671" lon="6.16406">
        <ele>1884.8</ele>
        <time>2013-07-24T07:55:48Z</time>
      </trkpt>
      <trkpt lat="44.86697" lon="6.16412">
        <ele>1886.24</ele>
        <time>2013-07-24T07:56:04Z</time>
      </trkpt>
      <trkpt lat="44.86695" lon="6.1642">
        <ele>1887.69</ele>
        <time>2013-07-24T07:56:18Z</time>
      </trkpt>
      <trkpt lat="44.86692" lon="6.16422">
        <ele>1887.69</ele>
        <time>2013-07-24T07:56:21Z</time>
      </trkpt>
      <trkpt lat="44.86682" lon="6.16427">
        <ele>1890.57</ele>
        <time>2013-07-24T07:56:35Z</time>
      </trkpt>
      <trkpt lat="44.86674" lon="6.1643">
        <ele>1892.49</ele>
        <time>2013-07-24T07:56:50Z</time>
      </trkpt>
      <trkpt lat="44.86667" lon="6.16434">
        <ele>1894.42</ele>
        <time>2013-07-24T07:57:05Z</time>
      </trkpt>
      <trkpt lat="44.8666" lon="6.16444">
        <ele>1896.34</ele>
        <time>2013-07-24T07:57:20Z</time>
      </trkpt>
      <trkpt lat="44.86658" lon="6.16451">
        <ele>1898.74</ele>
        <time>2013-07-24T07:57:34Z</time>
      </trkpt>
      <trkpt lat="44.86657" lon="6.16463">
        <ele>1899.7</ele>
        <time>2013-07-24T07:57:47Z</time>
      </trkpt>
      <trkpt lat="44.86657" lon="6.16466">
        <ele>1900.66</ele>
        <time>2013-07-24T07:57:51Z</time>
      </trkpt>
      <trkpt lat="44.86659" lon="6.16481">
        <ele>1900.18</ele>
        <time>2013-07-24T07:58:06Z</time>
      </trkpt>
      <trkpt lat="44.86658" lon="6.16496">
        <ele>1902.11</ele>
        <time>2013-07-24T07:58:20Z</time>
      </trkpt>
      <trkpt lat="44.86657" lon="6.16512">
        <ele>1904.03</ele>
        <time>2013-07-24T07:58:35Z</time>
      </trkpt>
      <trkpt lat="44.86655" lon="6.16517">
        <ele>1903.07</ele>
        <time>2013-07-24T07:58:41Z</time>
      </trkpt>
      <trkpt lat="44.86653" lon="6.16533">
        <ele>1904.99</ele>
        <time>2013-07-24T07:58:57Z</time>
      </trkpt>
      <trkpt lat="44.86654" lon="6.16537">
        <ele>1905.47</ele>
        <time>2013-07-24T07:59:02Z</time>
      </trkpt>
      <trkpt lat="44.86658" lon="6.16557">
        <ele>1905.95</ele>
        <time>2013-07-24T07:59:20Z</time>
      </trkpt>
      <trkpt lat="44.86657" lon="6.16564">
        <ele>1906.43</ele>
        <time>2013-07-24T07:59:25Z</time>
      </trkpt>
      <trkpt lat="44.86648" lon="6.16571">
        <ele>1907.87</ele>
        <time>2013-07-24T07:59:42Z</time>
      </trkpt>
      <trkpt lat="44.86651" lon="6.16585">
        <ele>1909.8</ele>
        <time>2013-07-24T07:59:57Z</time>
      </trkpt>
      <trkpt lat="44.86652" lon="6.1659">
        <ele>1910.28</ele>
        <time>2013-07-24T08:00:02Z</time>
      </trkpt>
      <trkpt lat="44.86651" lon="6.16607">
        <ele>1910.76</ele>
        <time>2013-07-24T08:00:17Z</time>
      </trkpt>
      <trkpt lat="44.86651" lon="6.16613">
        <ele>1910.76</ele>
        <time>2013-07-24T08:00:21Z</time>
      </trkpt>
      <trkpt lat="44.86649" lon="6.16626">
        <ele>1911.24</ele>
        <time>2013-07-24T08:00:31Z</time>
      </trkpt>
      <trkpt lat="44.86645" lon="6.1664">
        <ele>1912.2</ele>
        <time>2013-07-24T08:00:43Z</time>
      </trkpt>
      <trkpt lat="44.86645" lon="6.16653">
        <ele>1913.16</ele>
        <time>2013-07-24T08:00:54Z</time>
      </trkpt>
      <trkpt lat="44.86644" lon="6.16655">
        <ele>1912.68</ele>
        <time>2013-07-24T08:00:56Z</time>
      </trkpt>
      <trkpt lat="44.86642" lon="6.1667">
        <ele>1914.6</ele>
        <time>2013-07-24T08:01:14Z</time>
      </trkpt>
      <trkpt lat="44.86636" lon="6.1668">
        <ele>1916.53</ele>
        <time>2013-07-24T08:01:29Z</time>
      </trkpt>
      <trkpt lat="44.86635" lon="6.16682">
        <ele>1917.49</ele>
        <time>2013-07-24T08:01:31Z</time>
      </trkpt>
      <trkpt lat="44.86633" lon="6.16699">
        <ele>1917.49</ele>
        <time>2013-07-24T08:01:42Z</time>
      </trkpt>
      <trkpt lat="44.86635" lon="6.1672">
        <ele>1918.45</ele>
        <time>2013-07-24T08:01:57Z</time>
      </trkpt>
      <trkpt lat="44.86635" lon="6.16723">
        <ele>1918.45</ele>
        <time>2013-07-24T08:01:59Z</time>
      </trkpt>
      <trkpt lat="44.86636" lon="6.16726">
        <ele>1919.41</ele>
        <time>2013-07-24T08:02:01Z</time>
      </trkpt>
      <trkpt lat="44.86635" lon="6.16733">
        <ele>1918.45</ele>
        <time>2013-07-24T08:02:07Z</time>
      </trkpt>
      <trkpt lat="44.86634" lon="6.16741">
        <ele>1919.41</ele>
        <time>2013-07-24T08:02:14Z</time>
      </trkpt>
      <trkpt lat="44.86633" lon="6.16751">
        <ele>1919.89</ele>
        <time>2013-07-24T08:02:21Z</time>
      </trkpt>
      <trkpt lat="44.8663" lon="6.16767">
        <ele>1920.85</ele>
        <time>2013-07-24T08:02:38Z</time>
      </trkpt>
      <trkpt lat="44.8662" lon="6.16769">
        <ele>1923.74</ele>
        <time>2013-07-24T08:02:54Z</time>
      </trkpt>
      <trkpt lat="44.86614" lon="6.16779">
        <ele>1925.66</ele>
        <time>2013-07-24T08:03:11Z</time>
      </trkpt>
      <trkpt lat="44.86611" lon="6.16789">
        <ele>1927.58</ele>
        <time>2013-07-24T08:03:25Z</time>
      </trkpt>
      <trkpt lat="44.86605" lon="6.16801">
        <ele>1928.54</ele>
        <time>2013-07-24T08:03:38Z</time>
      </trkpt>
      <trkpt lat="44.86602" lon="6.16812">
        <ele>1930.95</ele>
        <time>2013-07-24T08:03:52Z</time>
      </trkpt>
      <trkpt lat="44.86599" lon="6.16814">
        <ele>1931.43</ele>
        <time>2013-07-24T08:03:56Z</time>
      </trkpt>
      <trkpt lat="44.86595" lon="6.16828">
        <ele>1934.31</ele>
        <time>2013-07-24T08:04:13Z</time>
      </trkpt>
      <trkpt lat="44.8659" lon="6.1684">
        <ele>1935.27</ele>
        <time>2013-07-24T08:04:27Z</time>
      </trkpt>
      <trkpt lat="44.86585" lon="6.16847">
        <ele>1935.75</ele>
        <time>2013-07-24T08:04:41Z</time>
      </trkpt>
      <trkpt lat="44.86585" lon="6.16847">
        <ele>1936.23</ele>
        <time>2013-07-24T08:05:10Z</time>
      </trkpt>
      <trkpt lat="44.86584" lon="6.16847">
        <ele>1935.27</ele>
        <time>2013-07-24T08:05:25Z</time>
      </trkpt>
      <trkpt lat="44.86583" lon="6.16846">
        <ele>1936.23</ele>
        <time>2013-07-24T08:06:15Z</time>
      </trkpt>
      <trkpt lat="44.86583" lon="6.16846">
        <ele>1937.19</ele>
        <time>2013-07-24T08:06:21Z</time>
      </trkpt>
      <trkpt lat="44.86583" lon="6.16847">
        <ele>1936.71</ele>
        <time>2013-07-24T08:06:42Z</time>
      </trkpt>
      <trkpt lat="44.86584" lon="6.16849">
        <ele>1937.19</ele>
        <time>2013-07-24T08:07:01Z</time>
      </trkpt>
      <trkpt lat="44.86583" lon="6.1685">
        <ele>1937.67</ele>
        <time>2013-07-24T08:07:28Z</time>
      </trkpt>
      <trkpt lat="44.86577" lon="6.16858">
        <ele>1939.12</ele>
        <time>2013-07-24T08:07:46Z</time>
      </trkpt>
      <trkpt lat="44.86574" lon="6.16859">
        <ele>1940.56</ele>
        <time>2013-07-24T08:08:01Z</time>
      </trkpt>
      <trkpt lat="44.86573" lon="6.16862">
        <ele>1942</ele>
        <time>2013-07-24T08:08:23Z</time>
      </trkpt>
      <trkpt lat="44.86572" lon="6.16863">
        <ele>1942</ele>
        <time>2013-07-24T08:08:46Z</time>
      </trkpt>
      <trkpt lat="44.86566" lon="6.16867">
        <ele>1942.96</ele>
        <time>2013-07-24T08:09:13Z</time>
      </trkpt>
      <trkpt lat="44.86564" lon="6.16867">
        <ele>1942.48</ele>
        <time>2013-07-24T08:09:51Z</time>
      </trkpt>
      <trkpt lat="44.86563" lon="6.16867">
        <ele>1942.96</ele>
        <time>2013-07-24T08:10:04Z</time>
      </trkpt>
      <trkpt lat="44.86556" lon="6.16878">
        <ele>1944.4</ele>
        <time>2013-07-24T08:10:18Z</time>
      </trkpt>
      <trkpt lat="44.86555" lon="6.16879">
        <ele>1944.4</ele>
        <time>2013-07-24T08:10:19Z</time>
      </trkpt>
      <trkpt lat="44.86552" lon="6.16888">
        <ele>1944.88</ele>
        <time>2013-07-24T08:10:28Z</time>
      </trkpt>
      <trkpt lat="44.86551" lon="6.16895">
        <ele>1945.85</ele>
        <time>2013-07-24T08:10:33Z</time>
      </trkpt>
      <trkpt lat="44.86551" lon="6.16905">
        <ele>1946.33</ele>
        <time>2013-07-24T08:10:48Z</time>
      </trkpt>
      <trkpt lat="44.86549" lon="6.16907">
        <ele>1946.33</ele>
        <time>2013-07-24T08:10:53Z</time>
      </trkpt>
      <trkpt lat="44.86544" lon="6.1691">
        <ele>1948.25</ele>
        <time>2013-07-24T08:11:05Z</time>
      </trkpt>
      <trkpt lat="44.8654" lon="6.16913">
        <ele>1948.73</ele>
        <time>2013-07-24T08:11:18Z</time>
      </trkpt>
      <trkpt lat="44.86538" lon="6.16915">
        <ele>1950.17</ele>
        <time>2013-07-24T08:11:33Z</time>
      </trkpt>
      <trkpt lat="44.86532" lon="6.16919">
        <ele>1950.65</ele>
        <time>2013-07-24T08:11:50Z</time>
      </trkpt>
      <trkpt lat="44.86532" lon="6.16919">
        <ele>1950.65</ele>
        <time>2013-07-24T08:12:17Z</time>
      </trkpt>
      <trkpt lat="44.86534" lon="6.16921">
        <ele>1950.17</ele>
        <time>2013-07-24T08:12:35Z</time>
      </trkpt>
      <trkpt lat="44.86534" lon="6.16923">
        <ele>1949.69</ele>
        <time>2013-07-24T08:12:39Z</time>
      </trkpt>
      <trkpt lat="44.86534" lon="6.16925">
        <ele>1950.17</ele>
        <time>2013-07-24T08:12:42Z</time>
      </trkpt>
      <trkpt lat="44.86535" lon="6.16927">
        <ele>1950.17</ele>
        <time>2013-07-24T08:12:59Z</time>
      </trkpt>
      <trkpt lat="44.86538" lon="6.16932">
        <ele>1951.13</ele>
        <time>2013-07-24T08:13:14Z</time>
      </trkpt>
      <trkpt lat="44.86539" lon="6.16944">
        <ele>1953.54</ele>
        <time>2013-07-24T08:13:27Z</time>
      </trkpt>
      <trkpt lat="44.86536" lon="6.16954">
        <ele>1955.46</ele>
        <time>2013-07-24T08:13:42Z</time>
      </trkpt>
      <trkpt lat="44.8653" lon="6.16962">
        <ele>1957.38</ele>
        <time>2013-07-24T08:13:57Z</time>
      </trkpt>
      <trkpt lat="44.8653" lon="6.16963">
        <ele>1958.34</ele>
        <time>2013-07-24T08:13:59Z</time>
      </trkpt>
      <trkpt lat="44.86527" lon="6.16971">
        <ele>1960.27</ele>
        <time>2013-07-24T08:14:11Z</time>
      </trkpt>
      <trkpt lat="44.86522" lon="6.16978">
        <ele>1961.71</ele>
        <time>2013-07-24T08:14:25Z</time>
      </trkpt>
      <trkpt lat="44.86518" lon="6.1699">
        <ele>1964.11</ele>
        <time>2013-07-24T08:14:39Z</time>
      </trkpt>
      <trkpt lat="44.86515" lon="6.17004">
        <ele>1965.55</ele>
        <time>2013-07-24T08:14:56Z</time>
      </trkpt>
      <trkpt lat="44.86512" lon="6.17016">
        <ele>1968.44</ele>
        <time>2013-07-24T08:15:10Z</time>
      </trkpt>
      <trkpt lat="44.86505" lon="6.17024">
        <ele>1969.88</ele>
        <time>2013-07-24T08:15:24Z</time>
      </trkpt>
      <trkpt lat="44.86502" lon="6.17036">
        <ele>1971.8</ele>
        <time>2013-07-24T08:15:38Z</time>
      </trkpt>
      <trkpt lat="44.865" lon="6.17046">
        <ele>1974.2</ele>
        <time>2013-07-24T08:15:51Z</time>
      </trkpt>
      <trkpt lat="44.86496" lon="6.17054">
        <ele>1976.13</ele>
        <time>2013-07-24T08:16:05Z</time>
      </trkpt>
      <trkpt lat="44.86493" lon="6.17065">
        <ele>1978.05</ele>
        <time>2013-07-24T08:16:20Z</time>
      </trkpt>
      <trkpt lat="44.86485" lon="6.17076">
        <ele>1979.97</ele>
        <time>2013-07-24T08:16:37Z</time>
      </trkpt>
      <trkpt lat="44.8648" lon="6.17087">
        <ele>1982.86</ele>
        <time>2013-07-24T08:16:52Z</time>
      </trkpt>
      <trkpt lat="44.86478" lon="6.171">
        <ele>1985.74</ele>
        <time>2013-07-24T08:17:10Z</time>
      </trkpt>
      <trkpt lat="44.86475" lon="6.17113">
        <ele>1988.14</ele>
        <time>2013-07-24T08:17:27Z</time>
      </trkpt>
      <trkpt lat="44.86474" lon="6.17119">
        <ele>1991.03</ele>
        <time>2013-07-24T08:17:42Z</time>
      </trkpt>
      <trkpt lat="44.86477" lon="6.17132">
        <ele>1992.95</ele>
        <time>2013-07-24T08:17:57Z</time>
      </trkpt>
      <trkpt lat="44.86479" lon="6.17144">
        <ele>1994.39</ele>
        <time>2013-07-24T08:18:08Z</time>
      </trkpt>
      <trkpt lat="44.86485" lon="6.17156">
        <ele>1996.32</ele>
        <time>2013-07-24T08:18:23Z</time>
      </trkpt>
      <trkpt lat="44.86492" lon="6.17162">
        <ele>1997.76</ele>
        <time>2013-07-24T08:18:37Z</time>
      </trkpt>
      <trkpt lat="44.86489" lon="6.17175">
        <ele>1999.2</ele>
        <time>2013-07-24T08:18:52Z</time>
      </trkpt>
      <trkpt lat="44.86489" lon="6.1718">
        <ele>2000.64</ele>
        <time>2013-07-24T08:19:02Z</time>
      </trkpt>
      <trkpt lat="44.86487" lon="6.17187">
        <ele>2001.6</ele>
        <time>2013-07-24T08:19:09Z</time>
      </trkpt>
      <trkpt lat="44.86487" lon="6.17195">
        <ele>2003.52</ele>
        <time>2013-07-24T08:19:23Z</time>
      </trkpt>
      <trkpt lat="44.86489" lon="6.172">
        <ele>2005.93</ele>
        <time>2013-07-24T08:19:39Z</time>
      </trkpt>
      <trkpt lat="44.86489" lon="6.17212">
        <ele>2007.85</ele>
        <time>2013-07-24T08:19:52Z</time>
      </trkpt>
      <trkpt lat="44.86487" lon="6.17223">
        <ele>2009.29</ele>
        <time>2013-07-24T08:20:05Z</time>
      </trkpt>
      <trkpt lat="44.86487" lon="6.17235">
        <ele>2012.66</ele>
        <time>2013-07-24T08:20:20Z</time>
      </trkpt>
      <trkpt lat="44.86487" lon="6.17247">
        <ele>2014.1</ele>
        <time>2013-07-24T08:20:36Z</time>
      </trkpt>
      <trkpt lat="44.86485" lon="6.17257">
        <ele>2016.5</ele>
        <time>2013-07-24T08:20:50Z</time>
      </trkpt>
      <trkpt lat="44.8648" lon="6.17266">
        <ele>2017.94</ele>
        <time>2013-07-24T08:21:04Z</time>
      </trkpt>
      <trkpt lat="44.86477" lon="6.17276">
        <ele>2019.87</ele>
        <time>2013-07-24T08:21:18Z</time>
      </trkpt>
      <trkpt lat="44.86474" lon="6.17282">
        <ele>2022.27</ele>
        <time>2013-07-24T08:21:26Z</time>
      </trkpt>
      <trkpt lat="44.8647" lon="6.17295">
        <ele>2023.23</ele>
        <time>2013-07-24T08:21:41Z</time>
      </trkpt>
      <trkpt lat="44.86468" lon="6.17299">
        <ele>2022.75</ele>
        <time>2013-07-24T08:21:44Z</time>
      </trkpt>
      <trkpt lat="44.86463" lon="6.17313">
        <ele>2024.67</ele>
        <time>2013-07-24T08:21:59Z</time>
      </trkpt>
      <trkpt lat="44.86464" lon="6.17314">
        <ele>2026.12</ele>
        <time>2013-07-24T08:22:01Z</time>
      </trkpt>
      <trkpt lat="44.86461" lon="6.17325">
        <ele>2026.6</ele>
        <time>2013-07-24T08:22:11Z</time>
      </trkpt>
      <trkpt lat="44.86459" lon="6.17342">
        <ele>2029</ele>
        <time>2013-07-24T08:22:28Z</time>
      </trkpt>
      <trkpt lat="44.86457" lon="6.17354">
        <ele>2030.44</ele>
        <time>2013-07-24T08:22:42Z</time>
      </trkpt>
      <trkpt lat="44.86452" lon="6.17368">
        <ele>2031.88</ele>
        <time>2013-07-24T08:22:57Z</time>
      </trkpt>
      <trkpt lat="44.8645" lon="6.17371">
        <ele>2032.84</ele>
        <time>2013-07-24T08:23:01Z</time>
      </trkpt>
      <trkpt lat="44.86445" lon="6.17384">
        <ele>2035.73</ele>
        <time>2013-07-24T08:23:15Z</time>
      </trkpt>
      <trkpt lat="44.86448" lon="6.17388">
        <ele>2037.17</ele>
        <time>2013-07-24T08:23:30Z</time>
      </trkpt>
      <trkpt lat="44.86451" lon="6.17386">
        <ele>2038.13</ele>
        <time>2013-07-24T08:23:36Z</time>
      </trkpt>
      <trkpt lat="44.86459" lon="6.1738">
        <ele>2040.54</ele>
        <time>2013-07-24T08:23:51Z</time>
      </trkpt>
      <trkpt lat="44.8647" lon="6.1737">
        <ele>2041.98</ele>
        <time>2013-07-24T08:24:07Z</time>
      </trkpt>
      <trkpt lat="44.86478" lon="6.17363">
        <ele>2043.9</ele>
        <time>2013-07-24T08:24:21Z</time>
      </trkpt>
      <trkpt lat="44.86485" lon="6.17356">
        <ele>2046.3</ele>
        <time>2013-07-24T08:24:36Z</time>
      </trkpt>
      <trkpt lat="44.86494" lon="6.17346">
        <ele>2048.23</ele>
        <time>2013-07-24T08:24:50Z</time>
      </trkpt>
      <trkpt lat="44.86504" lon="6.17332">
        <ele>2049.19</ele>
        <time>2013-07-24T08:25:07Z</time>
      </trkpt>
      <trkpt lat="44.86512" lon="6.17322">
        <ele>2051.11</ele>
        <time>2013-07-24T08:25:22Z</time>
      </trkpt>
      <trkpt lat="44.86519" lon="6.17312">
        <ele>2053.99</ele>
        <time>2013-07-24T08:25:38Z</time>
      </trkpt>
      <trkpt lat="44.86524" lon="6.17303">
        <ele>2055.44</ele>
        <time>2013-07-24T08:25:50Z</time>
      </trkpt>
      <trkpt lat="44.86537" lon="6.17289">
        <ele>2056.88</ele>
        <time>2013-07-24T08:26:08Z</time>
      </trkpt>
      <trkpt lat="44.86543" lon="6.17279">
        <ele>2058.8</ele>
        <time>2013-07-24T08:26:22Z</time>
      </trkpt>
      <trkpt lat="44.86551" lon="6.1727">
        <ele>2060.72</ele>
        <time>2013-07-24T08:26:38Z</time>
      </trkpt>
      <trkpt lat="44.8656" lon="6.17268">
        <ele>2063.61</ele>
        <time>2013-07-24T08:26:54Z</time>
      </trkpt>
      <trkpt lat="44.86568" lon="6.1726">
        <ele>2064.57</ele>
        <time>2013-07-24T08:27:06Z</time>
      </trkpt>
      <trkpt lat="44.86574" lon="6.1725">
        <ele>2065.53</ele>
        <time>2013-07-24T08:27:19Z</time>
      </trkpt>
      <trkpt lat="44.86575" lon="6.17242">
        <ele>2066.49</ele>
        <time>2013-07-24T08:27:26Z</time>
      </trkpt>
      <trkpt lat="44.86582" lon="6.17228">
        <ele>2067.93</ele>
        <time>2013-07-24T08:27:42Z</time>
      </trkpt>
      <trkpt lat="44.86592" lon="6.17222">
        <ele>2069.86</ele>
        <time>2013-07-24T08:27:59Z</time>
      </trkpt>
      <trkpt lat="44.86601" lon="6.17217">
        <ele>2072.26</ele>
        <time>2013-07-24T08:28:14Z</time>
      </trkpt>
      <trkpt lat="44.86609" lon="6.17219">
        <ele>2072.74</ele>
        <time>2013-07-24T08:28:29Z</time>
      </trkpt>
      <trkpt lat="44.86608" lon="6.17232">
        <ele>2075.14</ele>
        <time>2013-07-24T08:28:44Z</time>
      </trkpt>
      <trkpt lat="44.86606" lon="6.17247">
        <ele>2078.99</ele>
        <time>2013-07-24T08:29:00Z</time>
      </trkpt>
      <trkpt lat="44.86604" lon="6.1726">
        <ele>2078.99</ele>
        <time>2013-07-24T08:29:15Z</time>
      </trkpt>
      <trkpt lat="44.86604" lon="6.17275">
        <ele>2080.91</ele>
        <time>2013-07-24T08:29:32Z</time>
      </trkpt>
      <trkpt lat="44.866" lon="6.17291">
        <ele>2082.83</ele>
        <time>2013-07-24T08:29:48Z</time>
      </trkpt>
      <trkpt lat="44.86601" lon="6.17307">
        <ele>2084.76</ele>
        <time>2013-07-24T08:30:04Z</time>
      </trkpt>
      <trkpt lat="44.86595" lon="6.17323">
        <ele>2087.64</ele>
        <time>2013-07-24T08:30:22Z</time>
      </trkpt>
      <trkpt lat="44.86591" lon="6.17336">
        <ele>2088.6</ele>
        <time>2013-07-24T08:30:38Z</time>
      </trkpt>
      <trkpt lat="44.8659" lon="6.17345">
        <ele>2089.56</ele>
        <time>2013-07-24T08:30:47Z</time>
      </trkpt>
      <trkpt lat="44.86584" lon="6.17358">
        <ele>2091</ele>
        <time>2013-07-24T08:31:02Z</time>
      </trkpt>
      <trkpt lat="44.86579" lon="6.17368">
        <ele>2093.41</ele>
        <time>2013-07-24T08:31:18Z</time>
      </trkpt>
      <trkpt lat="44.86573" lon="6.17377">
        <ele>2095.33</ele>
        <time>2013-07-24T08:31:32Z</time>
      </trkpt>
      <trkpt lat="44.86567" lon="6.17387">
        <ele>2097.25</ele>
        <time>2013-07-24T08:31:48Z</time>
      </trkpt>
      <trkpt lat="44.86565" lon="6.17395">
        <ele>2099.18</ele>
        <time>2013-07-24T08:32:01Z</time>
      </trkpt>
      <trkpt lat="44.86564" lon="6.17403">
        <ele>2100.62</ele>
        <time>2013-07-24T08:32:13Z</time>
      </trkpt>
      <trkpt lat="44.86558" lon="6.17416">
        <ele>2102.06</ele>
        <time>2013-07-24T08:32:28Z</time>
      </trkpt>
      <trkpt lat="44.86554" lon="6.17427">
        <ele>2103.98</ele>
        <time>2013-07-24T08:32:42Z</time>
      </trkpt>
      <trkpt lat="44.86551" lon="6.17436">
        <ele>2105.91</ele>
        <time>2013-07-24T08:32:54Z</time>
      </trkpt>
      <trkpt lat="44.8655" lon="6.17447">
        <ele>2106.87</ele>
        <time>2013-07-24T08:33:09Z</time>
      </trkpt>
      <trkpt lat="44.86545" lon="6.17458">
        <ele>2108.79</ele>
        <time>2013-07-24T08:33:24Z</time>
      </trkpt>
      <trkpt lat="44.86544" lon="6.17474">
        <ele>2110.23</ele>
        <time>2013-07-24T08:33:39Z</time>
      </trkpt>
      <trkpt lat="44.86542" lon="6.17487">
        <ele>2111.67</ele>
        <time>2013-07-24T08:33:53Z</time>
      </trkpt>
      <trkpt lat="44.86539" lon="6.17497">
        <ele>2114.08</ele>
        <time>2013-07-24T08:34:03Z</time>
      </trkpt>
      <trkpt lat="44.86536" lon="6.17512">
        <ele>2115.04</ele>
        <time>2013-07-24T08:34:17Z</time>
      </trkpt>
      <trkpt lat="44.86536" lon="6.17526">
        <ele>2116.96</ele>
        <time>2013-07-24T08:34:32Z</time>
      </trkpt>
      <trkpt lat="44.86531" lon="6.17535">
        <ele>2119.84</ele>
        <time>2013-07-24T08:34:48Z</time>
      </trkpt>
      <trkpt lat="44.8653" lon="6.17543">
        <ele>2121.77</ele>
        <time>2013-07-24T08:35:01Z</time>
      </trkpt>
      <trkpt lat="44.86529" lon="6.17553">
        <ele>2123.69</ele>
        <time>2013-07-24T08:35:15Z</time>
      </trkpt>
      <trkpt lat="44.86528" lon="6.17567">
        <ele>2126.09</ele>
        <time>2013-07-24T08:35:30Z</time>
      </trkpt>
      <trkpt lat="44.86528" lon="6.17577">
        <ele>2128.5</ele>
        <time>2013-07-24T08:35:45Z</time>
      </trkpt>
      <trkpt lat="44.86527" lon="6.17589">
        <ele>2129.94</ele>
        <time>2013-07-24T08:36:00Z</time>
      </trkpt>
      <trkpt lat="44.86528" lon="6.17602">
        <ele>2132.82</ele>
        <time>2013-07-24T08:36:16Z</time>
      </trkpt>
      <trkpt lat="44.86525" lon="6.1761">
        <ele>2134.26</ele>
        <time>2013-07-24T08:36:30Z</time>
      </trkpt>
      <trkpt lat="44.86524" lon="6.17627">
        <ele>2135.71</ele>
        <time>2013-07-24T08:36:44Z</time>
      </trkpt>
      <trkpt lat="44.86521" lon="6.17641">
        <ele>2136.19</ele>
        <time>2013-07-24T08:36:57Z</time>
      </trkpt>
      <trkpt lat="44.86521" lon="6.17652">
        <ele>2137.63</ele>
        <time>2013-07-24T08:37:07Z</time>
      </trkpt>
      <trkpt lat="44.86515" lon="6.17671">
        <ele>2139.07</ele>
        <time>2013-07-24T08:37:25Z</time>
      </trkpt>
      <trkpt lat="44.86514" lon="6.17683">
        <ele>2140.51</ele>
        <time>2013-07-24T08:37:40Z</time>
      </trkpt>
      <trkpt lat="44.86509" lon="6.17693">
        <ele>2143.88</ele>
        <time>2013-07-24T08:37:56Z</time>
      </trkpt>
      <trkpt lat="44.86502" lon="6.17706">
        <ele>2145.32</ele>
        <time>2013-07-24T08:38:13Z</time>
      </trkpt>
      <trkpt lat="44.86501" lon="6.17709">
        <ele>2145.8</ele>
        <time>2013-07-24T08:38:17Z</time>
      </trkpt>
      <trkpt lat="44.86495" lon="6.1772">
        <ele>2146.76</ele>
        <time>2013-07-24T08:38:32Z</time>
      </trkpt>
      <trkpt lat="44.86489" lon="6.17731">
        <ele>2149.16</ele>
        <time>2013-07-24T08:38:48Z</time>
      </trkpt>
      <trkpt lat="44.86482" lon="6.1774">
        <ele>2152.05</ele>
        <time>2013-07-24T08:39:02Z</time>
      </trkpt>
      <trkpt lat="44.86478" lon="6.17747">
        <ele>2153.97</ele>
        <time>2013-07-24T08:39:17Z</time>
      </trkpt>
      <trkpt lat="44.86478" lon="6.17757">
        <ele>2155.89</ele>
        <time>2013-07-24T08:39:32Z</time>
      </trkpt>
      <trkpt lat="44.86482" lon="6.17763">
        <ele>2157.82</ele>
        <time>2013-07-24T08:39:46Z</time>
      </trkpt>
      <trkpt lat="44.86478" lon="6.17767">
        <ele>2159.26</ele>
        <time>2013-07-24T08:39:59Z</time>
      </trkpt>
      <trkpt lat="44.86477" lon="6.17772">
        <ele>2160.22</ele>
        <time>2013-07-24T08:40:16Z</time>
      </trkpt>
      <trkpt lat="44.86479" lon="6.17774">
        <ele>2160.7</ele>
        <time>2013-07-24T08:40:32Z</time>
      </trkpt>
      <trkpt lat="44.86479" lon="6.17775">
        <ele>2160.7</ele>
        <time>2013-07-24T08:41:01Z</time>
      </trkpt>
      <trkpt lat="44.8648" lon="6.17775">
        <ele>2161.18</ele>
        <time>2013-07-24T08:41:44Z</time>
      </trkpt>
      <trkpt lat="44.8648" lon="6.17774">
        <ele>2161.18</ele>
        <time>2013-07-24T08:42:03Z</time>
      </trkpt>
      <trkpt lat="44.8648" lon="6.17775">
        <ele>2161.66</ele>
        <time>2013-07-24T08:42:33Z</time>
      </trkpt>
      <trkpt lat="44.86481" lon="6.17775">
        <ele>2161.66</ele>
        <time>2013-07-24T08:43:01Z</time>
      </trkpt>
      <trkpt lat="44.8648" lon="6.17776">
        <ele>2161.66</ele>
        <time>2013-07-24T08:43:32Z</time>
      </trkpt>
      <trkpt lat="44.8648" lon="6.17776">
        <ele>2162.62</ele>
        <time>2013-07-24T08:44:30Z</time>
      </trkpt>
      <trkpt lat="44.86478" lon="6.17777">
        <ele>2162.14</ele>
        <time>2013-07-24T08:45:16Z</time>
      </trkpt>
      <trkpt lat="44.86477" lon="6.17777">
        <ele>2162.62</ele>
        <time>2013-07-24T08:46:44Z</time>
      </trkpt>
      <trkpt lat="44.86477" lon="6.17777">
        <ele>2162.62</ele>
        <time>2013-07-24T08:47:11Z</time>
      </trkpt>
      <trkpt lat="44.86477" lon="6.17776">
        <ele>2161.66</ele>
        <time>2013-07-24T08:47:38Z</time>
      </trkpt>
      <trkpt lat="44.86478" lon="6.17777">
        <ele>2161.66</ele>
        <time>2013-07-24T08:50:56Z</time>
      </trkpt>
      <trkpt lat="44.86478" lon="6.17778">
        <ele>2162.14</ele>
        <time>2013-07-24T08:52:06Z</time>
      </trkpt>
      <trkpt lat="44.86479" lon="6.17778">
        <ele>2161.66</ele>
        <time>2013-07-24T08:53:54Z</time>
      </trkpt>
      <trkpt lat="44.86478" lon="6.17778">
        <ele>2161.66</ele>
        <time>2013-07-24T08:55:05Z</time>
      </trkpt>
      <trkpt lat="44.86478" lon="6.17778">
        <ele>2162.14</ele>
        <time>2013-07-24T08:56:18Z</time>
      </trkpt>
      <trkpt lat="44.86478" lon="6.17779">
        <ele>2161.66</ele>
        <time>2013-07-24T08:58:49Z</time>
      </trkpt>
      <trkpt lat="44.86478" lon="6.17779">
        <ele>2162.62</ele>
        <time>2013-07-24T09:02:56Z</time>
      </trkpt>
      <trkpt lat="44.8648" lon="6.1778">
        <ele>2163.58</ele>
        <time>2013-07-24T09:18:53Z</time>
      </trkpt>
      <trkpt lat="44.8648" lon="6.17777">
        <ele>2164.06</ele>
        <time>2013-07-24T09:19:18Z</time>
      </trkpt>
      <trkpt lat="44.86482" lon="6.17778">
        <ele>2163.58</ele>
        <time>2013-07-24T09:19:33Z</time>
      </trkpt>
      <trkpt lat="44.86485" lon="6.1778">
        <ele>2165.51</ele>
        <time>2013-07-24T09:37:44Z</time>
      </trkpt>
      <trkpt lat="44.86485" lon="6.17776">
        <ele>2218.86</ele>
        <time>2013-07-24T10:21:10Z</time>
      </trkpt>
      <trkpt lat="44.86485" lon="6.17776">
        <ele>2089.56</ele>
        <time>2013-07-24T10:21:12Z</time>
      </trkpt>
      <trkpt lat="44.86485" lon="6.17776">
        <ele>2087.64</ele>
        <time>2013-07-24T10:21:13Z</time>
      </trkpt>
      <trkpt lat="44.86485" lon="6.17776">
        <ele>2090.52</ele>
        <time>2013-07-24T10:21:14Z</time>
      </trkpt>
      <trkpt lat="44.8653" lon="6.1762">
        <ele>2089.56</ele>
        <time>2013-07-24T10:21:24Z</time>
      </trkpt>
      <trkpt lat="44.86525" lon="6.17614">
        <ele>2093.41</ele>
        <time>2013-07-24T10:21:55Z</time>
      </trkpt>
      <trkpt lat="44.86525" lon="6.17615">
        <ele>2096.77</ele>
        <time>2013-07-24T10:21:57Z</time>
      </trkpt>
      <trkpt lat="44.86524" lon="6.17615">
        <ele>2099.66</ele>
        <time>2013-07-24T10:21:59Z</time>
      </trkpt>
      <trkpt lat="44.86524" lon="6.17616">
        <ele>2103.5</ele>
        <time>2013-07-24T10:22:02Z</time>
      </trkpt>
      <trkpt lat="44.86524" lon="6.17614">
        <ele>2106.87</ele>
        <time>2013-07-24T10:22:05Z</time>
      </trkpt>
      <trkpt lat="44.86525" lon="6.17612">
        <ele>2109.75</ele>
        <time>2013-07-24T10:22:08Z</time>
      </trkpt>
      <trkpt lat="44.86526" lon="6.1761">
        <ele>2113.12</ele>
        <time>2013-07-24T10:22:11Z</time>
      </trkpt>
      <trkpt lat="44.86526" lon="6.17609">
        <ele>2116.48</ele>
        <time>2013-07-24T10:22:14Z</time>
      </trkpt>
      <trkpt lat="44.86526" lon="6.17609">
        <ele>2119.36</ele>
        <time>2013-07-24T10:22:16Z</time>
      </trkpt>
      <trkpt lat="44.86525" lon="6.17609">
        <ele>2123.21</ele>
        <time>2013-07-24T10:22:20Z</time>
      </trkpt>
      <trkpt lat="44.86525" lon="6.1761">
        <ele>2126.09</ele>
        <time>2013-07-24T10:22:23Z</time>
      </trkpt>
      <trkpt lat="44.86524" lon="6.17612">
        <ele>2128.98</ele>
        <time>2013-07-24T10:22:28Z</time>
      </trkpt>
      <trkpt lat="44.86524" lon="6.17614">
        <ele>2131.38</ele>
        <time>2013-07-24T10:22:32Z</time>
      </trkpt>
      <trkpt lat="44.86524" lon="6.17614">
        <ele>2134.26</ele>
        <time>2013-07-24T10:22:41Z</time>
      </trkpt>
      <trkpt lat="44.86523" lon="6.17615">
        <ele>2137.63</ele>
        <time>2013-07-24T10:22:50Z</time>
      </trkpt>
      <trkpt lat="44.86524" lon="6.17613">
        <ele>2140.51</ele>
        <time>2013-07-24T10:23:00Z</time>
      </trkpt>
      <trkpt lat="44.86525" lon="6.17613">
        <ele>2143.4</ele>
        <time>2013-07-24T10:23:20Z</time>
      </trkpt>
      <trkpt lat="44.86525" lon="6.17614">
        <ele>2146.76</ele>
        <time>2013-07-24T10:24:45Z</time>
      </trkpt>
      <trkpt lat="44.86529" lon="6.17609">
        <ele>2145.32</ele>
        <time>2013-07-24T10:24:59Z</time>
      </trkpt>
      <trkpt lat="44.8653" lon="6.17602">
        <ele>2144.36</ele>
        <time>2013-07-24T10:25:04Z</time>
      </trkpt>
      <trkpt lat="44.86529" lon="6.17591">
        <ele>2143.4</ele>
        <time>2013-07-24T10:25:10Z</time>
      </trkpt>
      <trkpt lat="44.86529" lon="6.17582">
        <ele>2141.47</ele>
        <time>2013-07-24T10:25:15Z</time>
      </trkpt>
      <trkpt lat="44.8653" lon="6.17579">
        <ele>2140.51</ele>
        <time>2013-07-24T10:25:17Z</time>
      </trkpt>
      <trkpt lat="44.8653" lon="6.17565">
        <ele>2138.11</ele>
        <time>2013-07-24T10:25:25Z</time>
      </trkpt>
      <trkpt lat="44.86534" lon="6.17543">
        <ele>2134.26</ele>
        <time>2013-07-24T10:25:36Z</time>
      </trkpt>
      <trkpt lat="44.86537" lon="6.17534">
        <ele>2132.34</ele>
        <time>2013-07-24T10:25:44Z</time>
      </trkpt>
      <trkpt lat="44.86541" lon="6.17532">
        <ele>2130.9</ele>
        <time>2013-07-24T10:25:47Z</time>
      </trkpt>
      <trkpt lat="44.86541" lon="6.17528">
        <ele>2130.9</ele>
        <time>2013-07-24T10:25:50Z</time>
      </trkpt>
      <trkpt lat="44.86541" lon="6.1752">
        <ele>2129.94</ele>
        <time>2013-07-24T10:25:54Z</time>
      </trkpt>
      <trkpt lat="44.86542" lon="6.17511">
        <ele>2128.5</ele>
        <time>2013-07-24T10:25:59Z</time>
      </trkpt>
      <trkpt lat="44.86544" lon="6.17501">
        <ele>2127.05</ele>
        <time>2013-07-24T10:26:05Z</time>
      </trkpt>
      <trkpt lat="44.86546" lon="6.17492">
        <ele>2126.09</ele>
        <time>2013-07-24T10:26:10Z</time>
      </trkpt>
      <trkpt lat="44.86551" lon="6.17468">
        <ele>2124.17</ele>
        <time>2013-07-24T10:26:23Z</time>
      </trkpt>
      <trkpt lat="44.86551" lon="6.17466">
        <ele>2123.21</ele>
        <time>2013-07-24T10:26:24Z</time>
      </trkpt>
      <trkpt lat="44.86553" lon="6.17461">
        <ele>2123.21</ele>
        <time>2013-07-24T10:26:27Z</time>
      </trkpt>
      <trkpt lat="44.86556" lon="6.17451">
        <ele>2122.25</ele>
        <time>2013-07-24T10:26:33Z</time>
      </trkpt>
      <trkpt lat="44.86558" lon="6.17441">
        <ele>2120.81</ele>
        <time>2013-07-24T10:26:39Z</time>
      </trkpt>
      <trkpt lat="44.86559" lon="6.17438">
        <ele>2120.32</ele>
        <time>2013-07-24T10:26:42Z</time>
      </trkpt>
      <trkpt lat="44.86558" lon="6.17433">
        <ele>2119.36</ele>
        <time>2013-07-24T10:26:45Z</time>
      </trkpt>
      <trkpt lat="44.86558" lon="6.1743">
        <ele>2119.36</ele>
        <time>2013-07-24T10:26:47Z</time>
      </trkpt>
      <trkpt lat="44.86563" lon="6.1742">
        <ele>2116.96</ele>
        <time>2013-07-24T10:26:54Z</time>
      </trkpt>
      <trkpt lat="44.86566" lon="6.17406">
        <ele>2115.04</ele>
        <time>2013-07-24T10:27:03Z</time>
      </trkpt>
      <trkpt lat="44.86572" lon="6.17393">
        <ele>2112.63</ele>
        <time>2013-07-24T10:27:14Z</time>
      </trkpt>
      <trkpt lat="44.86573" lon="6.1739">
        <ele>2112.63</ele>
        <time>2013-07-24T10:27:17Z</time>
      </trkpt>
      <trkpt lat="44.86577" lon="6.17386">
        <ele>2111.67</ele>
        <time>2013-07-24T10:27:26Z</time>
      </trkpt>
      <trkpt lat="44.86581" lon="6.17385">
        <ele>2111.19</ele>
        <time>2013-07-24T10:27:30Z</time>
      </trkpt>
      <trkpt lat="44.86585" lon="6.17383">
        <ele>2109.75</ele>
        <time>2013-07-24T10:27:35Z</time>
      </trkpt>
      <trkpt lat="44.86584" lon="6.17376">
        <ele>2108.79</ele>
        <time>2013-07-24T10:27:39Z</time>
      </trkpt>
      <trkpt lat="44.86583" lon="6.17369">
        <ele>2108.31</ele>
        <time>2013-07-24T10:27:45Z</time>
      </trkpt>
      <trkpt lat="44.86585" lon="6.17364">
        <ele>2106.39</ele>
        <time>2013-07-24T10:27:49Z</time>
      </trkpt>
      <trkpt lat="44.86585" lon="6.1736">
        <ele>2105.91</ele>
        <time>2013-07-24T10:27:52Z</time>
      </trkpt>
      <trkpt lat="44.86586" lon="6.17356">
        <ele>2105.42</ele>
        <time>2013-07-24T10:27:55Z</time>
      </trkpt>
      <trkpt lat="44.86591" lon="6.1734">
        <ele>2103.98</ele>
        <time>2013-07-24T10:28:07Z</time>
      </trkpt>
      <trkpt lat="44.86593" lon="6.17332">
        <ele>2103.98</ele>
        <time>2013-07-24T10:28:12Z</time>
      </trkpt>
      <trkpt lat="44.86595" lon="6.17322">
        <ele>2102.06</ele>
        <time>2013-07-24T10:28:20Z</time>
      </trkpt>
      <trkpt lat="44.86599" lon="6.17309">
        <ele>2100.62</ele>
        <time>2013-07-24T10:28:28Z</time>
      </trkpt>
      <trkpt lat="44.866" lon="6.17302">
        <ele>2099.66</ele>
        <time>2013-07-24T10:28:32Z</time>
      </trkpt>
      <trkpt lat="44.866" lon="6.17293">
        <ele>2098.21</ele>
        <time>2013-07-24T10:28:38Z</time>
      </trkpt>
      <trkpt lat="44.86602" lon="6.17286">
        <ele>2097.25</ele>
        <time>2013-07-24T10:28:42Z</time>
      </trkpt>
      <trkpt lat="44.86603" lon="6.1728">
        <ele>2096.77</ele>
        <time>2013-07-24T10:28:45Z</time>
      </trkpt>
      <trkpt lat="44.86606" lon="6.17258">
        <ele>2094.37</ele>
        <time>2013-07-24T10:28:58Z</time>
      </trkpt>
      <trkpt lat="44.86606" lon="6.17253">
        <ele>2093.41</ele>
        <time>2013-07-24T10:29:01Z</time>
      </trkpt>
      <trkpt lat="44.86606" lon="6.17242">
        <ele>2092.93</ele>
        <time>2013-07-24T10:29:07Z</time>
      </trkpt>
      <trkpt lat="44.86609" lon="6.17236">
        <ele>2091.97</ele>
        <time>2013-07-24T10:29:11Z</time>
      </trkpt>
      <trkpt lat="44.86611" lon="6.17232">
        <ele>2090.52</ele>
        <time>2013-07-24T10:29:14Z</time>
      </trkpt>
      <trkpt lat="44.86614" lon="6.17226">
        <ele>2089.56</ele>
        <time>2013-07-24T10:29:19Z</time>
      </trkpt>
      <trkpt lat="44.86613" lon="6.1722">
        <ele>2087.64</ele>
        <time>2013-07-24T10:29:23Z</time>
      </trkpt>
      <trkpt lat="44.86612" lon="6.17219">
        <ele>2088.6</ele>
        <time>2013-07-24T10:29:25Z</time>
      </trkpt>
      <trkpt lat="44.86608" lon="6.17219">
        <ele>2087.64</ele>
        <time>2013-07-24T10:29:28Z</time>
      </trkpt>
      <trkpt lat="44.86604" lon="6.17221">
        <ele>2087.64</ele>
        <time>2013-07-24T10:29:31Z</time>
      </trkpt>
      <trkpt lat="44.86598" lon="6.17222">
        <ele>2086.2</ele>
        <time>2013-07-24T10:29:35Z</time>
      </trkpt>
      <trkpt lat="44.86584" lon="6.17223">
        <ele>2084.28</ele>
        <time>2013-07-24T10:29:46Z</time>
      </trkpt>
      <trkpt lat="44.86575" lon="6.17232">
        <ele>2082.35</ele>
        <time>2013-07-24T10:29:55Z</time>
      </trkpt>
      <trkpt lat="44.86571" lon="6.17235">
        <ele>2081.39</ele>
        <time>2013-07-24T10:29:58Z</time>
      </trkpt>
      <trkpt lat="44.8657" lon="6.17254">
        <ele>2080.43</ele>
        <time>2013-07-24T10:30:08Z</time>
      </trkpt>
      <trkpt lat="44.86565" lon="6.17258">
        <ele>2079.47</ele>
        <time>2013-07-24T10:30:12Z</time>
      </trkpt>
      <trkpt lat="44.86563" lon="6.17261">
        <ele>2079.47</ele>
        <time>2013-07-24T10:30:14Z</time>
      </trkpt>
      <trkpt lat="44.8655" lon="6.17268">
        <ele>2077.07</ele>
        <time>2013-07-24T10:30:29Z</time>
      </trkpt>
      <trkpt lat="44.86547" lon="6.1727">
        <ele>2076.1</ele>
        <time>2013-07-24T10:30:32Z</time>
      </trkpt>
      <trkpt lat="44.86532" lon="6.17277">
        <ele>2073.22</ele>
        <time>2013-07-24T10:30:44Z</time>
      </trkpt>
      <trkpt lat="44.86519" lon="6.17289">
        <ele>2071.78</ele>
        <time>2013-07-24T10:30:56Z</time>
      </trkpt>
      <trkpt lat="44.86511" lon="6.17296">
        <ele>2069.86</ele>
        <time>2013-07-24T10:31:05Z</time>
      </trkpt>
      <trkpt lat="44.86506" lon="6.17304">
        <ele>2068.89</ele>
        <time>2013-07-24T10:31:10Z</time>
      </trkpt>
      <trkpt lat="44.86506" lon="6.1731">
        <ele>2067.93</ele>
        <time>2013-07-24T10:31:13Z</time>
      </trkpt>
      <trkpt lat="44.86496" lon="6.17323">
        <ele>2065.53</ele>
        <time>2013-07-24T10:31:22Z</time>
      </trkpt>
      <trkpt lat="44.86496" lon="6.17327">
        <ele>2066.01</ele>
        <time>2013-07-24T10:31:24Z</time>
      </trkpt>
      <trkpt lat="44.86483" lon="6.17344">
        <ele>2063.61</ele>
        <time>2013-07-24T10:31:39Z</time>
      </trkpt>
      <trkpt lat="44.86471" lon="6.17351">
        <ele>2061.2</ele>
        <time>2013-07-24T10:31:48Z</time>
      </trkpt>
      <trkpt lat="44.86456" lon="6.1736">
        <ele>2057.36</ele>
        <time>2013-07-24T10:31:59Z</time>
      </trkpt>
      <trkpt lat="44.86445" lon="6.17377">
        <ele>2055.44</ele>
        <time>2013-07-24T10:32:13Z</time>
      </trkpt>
      <trkpt lat="44.8644" lon="6.1738">
        <ele>2053.99</ele>
        <time>2013-07-24T10:32:18Z</time>
      </trkpt>
      <trkpt lat="44.86452" lon="6.17373">
        <ele>2051.59</ele>
        <time>2013-07-24T10:32:29Z</time>
      </trkpt>
      <trkpt lat="44.86457" lon="6.17368">
        <ele>2050.15</ele>
        <time>2013-07-24T10:32:34Z</time>
      </trkpt>
      <trkpt lat="44.86459" lon="6.17367">
        <ele>2049.19</ele>
        <time>2013-07-24T10:32:36Z</time>
      </trkpt>
      <trkpt lat="44.86466" lon="6.17348">
        <ele>2046.78</ele>
        <time>2013-07-24T10:32:50Z</time>
      </trkpt>
      <trkpt lat="44.86469" lon="6.1733">
        <ele>2044.38</ele>
        <time>2013-07-24T10:33:03Z</time>
      </trkpt>
      <trkpt lat="44.86469" lon="6.17326">
        <ele>2043.42</ele>
        <time>2013-07-24T10:33:05Z</time>
      </trkpt>
      <trkpt lat="44.8647" lon="6.17321">
        <ele>2043.9</ele>
        <time>2013-07-24T10:33:09Z</time>
      </trkpt>
      <trkpt lat="44.86473" lon="6.17305">
        <ele>2041.98</ele>
        <time>2013-07-24T10:33:19Z</time>
      </trkpt>
      <trkpt lat="44.86475" lon="6.17299">
        <ele>2041.5</ele>
        <time>2013-07-24T10:33:23Z</time>
      </trkpt>
      <trkpt lat="44.86477" lon="6.17292">
        <ele>2040.54</ele>
        <time>2013-07-24T10:33:28Z</time>
      </trkpt>
      <trkpt lat="44.8648" lon="6.17288">
        <ele>2040.54</ele>
        <time>2013-07-24T10:33:32Z</time>
      </trkpt>
      <trkpt lat="44.86481" lon="6.17278">
        <ele>2038.61</ele>
        <time>2013-07-24T10:33:39Z</time>
      </trkpt>
      <trkpt lat="44.86483" lon="6.17271">
        <ele>2037.65</ele>
        <time>2013-07-24T10:33:45Z</time>
      </trkpt>
      <trkpt lat="44.86485" lon="6.17268">
        <ele>2037.17</ele>
        <time>2013-07-24T10:33:48Z</time>
      </trkpt>
      <trkpt lat="44.86488" lon="6.1726">
        <ele>2035.25</ele>
        <time>2013-07-24T10:33:56Z</time>
      </trkpt>
      <trkpt lat="44.86489" lon="6.17246">
        <ele>2031.88</ele>
        <time>2013-07-24T10:34:08Z</time>
      </trkpt>
      <trkpt lat="44.8649" lon="6.17235">
        <ele>2030.44</ele>
        <time>2013-07-24T10:34:17Z</time>
      </trkpt>
      <trkpt lat="44.8649" lon="6.17231">
        <ele>2029.96</ele>
        <time>2013-07-24T10:34:20Z</time>
      </trkpt>
      <trkpt lat="44.86492" lon="6.17219">
        <ele>2026.12</ele>
        <time>2013-07-24T10:34:31Z</time>
      </trkpt>
      <trkpt lat="44.86492" lon="6.17218">
        <ele>2026.12</ele>
        <time>2013-07-24T10:34:32Z</time>
      </trkpt>
      <trkpt lat="44.86494" lon="6.17212">
        <ele>2026.12</ele>
        <time>2013-07-24T10:34:36Z</time>
      </trkpt>
      <trkpt lat="44.86497" lon="6.17203">
        <ele>2024.67</ele>
        <time>2013-07-24T10:34:49Z</time>
      </trkpt>
      <trkpt lat="44.86497" lon="6.17203">
        <ele>2024.19</ele>
        <time>2013-07-24T10:34:53Z</time>
      </trkpt>
      <trkpt lat="44.86496" lon="6.17201">
        <ele>2023.23</ele>
        <time>2013-07-24T10:34:55Z</time>
      </trkpt>
      <trkpt lat="44.86494" lon="6.17197">
        <ele>2021.79</ele>
        <time>2013-07-24T10:34:59Z</time>
      </trkpt>
      <trkpt lat="44.86493" lon="6.17189">
        <ele>2020.83</ele>
        <time>2013-07-24T10:35:07Z</time>
      </trkpt>
      <trkpt lat="44.86493" lon="6.17172">
        <ele>2017.46</ele>
        <time>2013-07-24T10:35:20Z</time>
      </trkpt>
      <trkpt lat="44.86496" lon="6.17157">
        <ele>2016.02</ele>
        <time>2013-07-24T10:35:33Z</time>
      </trkpt>
      <trkpt lat="44.86492" lon="6.17155">
        <ele>2014.58</ele>
        <time>2013-07-24T10:35:36Z</time>
      </trkpt>
      <trkpt lat="44.8649" lon="6.17155">
        <ele>2014.58</ele>
        <time>2013-07-24T10:35:38Z</time>
      </trkpt>
      <trkpt lat="44.86482" lon="6.17144">
        <ele>2012.66</ele>
        <time>2013-07-24T10:35:48Z</time>
      </trkpt>
      <trkpt lat="44.86481" lon="6.17131">
        <ele>2011.7</ele>
        <time>2013-07-24T10:35:57Z</time>
      </trkpt>
      <trkpt lat="44.8648" lon="6.17124">
        <ele>2010.25</ele>
        <time>2013-07-24T10:36:03Z</time>
      </trkpt>
      <trkpt lat="44.86478" lon="6.17117">
        <ele>2007.85</ele>
        <time>2013-07-24T10:36:11Z</time>
      </trkpt>
      <trkpt lat="44.8648" lon="6.17111">
        <ele>2006.41</ele>
        <time>2013-07-24T10:36:16Z</time>
      </trkpt>
      <trkpt lat="44.86481" lon="6.17108">
        <ele>2006.41</ele>
        <time>2013-07-24T10:36:18Z</time>
      </trkpt>
      <trkpt lat="44.86484" lon="6.17102">
        <ele>2004.49</ele>
        <time>2013-07-24T10:36:23Z</time>
      </trkpt>
      <trkpt lat="44.86485" lon="6.17101">
        <ele>2004.97</ele>
        <time>2013-07-24T10:36:24Z</time>
      </trkpt>
      <trkpt lat="44.86485" lon="6.17095">
        <ele>2003.52</ele>
        <time>2013-07-24T10:36:27Z</time>
      </trkpt>
      <trkpt lat="44.86485" lon="6.17088">
        <ele>2002.56</ele>
        <time>2013-07-24T10:36:32Z</time>
      </trkpt>
      <trkpt lat="44.86484" lon="6.17085">
        <ele>2001.12</ele>
        <time>2013-07-24T10:36:34Z</time>
      </trkpt>
      <trkpt lat="44.86486" lon="6.17081">
        <ele>2001.6</ele>
        <time>2013-07-24T10:36:36Z</time>
      </trkpt>
      <trkpt lat="44.8649" lon="6.17075">
        <ele>2000.64</ele>
        <time>2013-07-24T10:36:42Z</time>
      </trkpt>
      <trkpt lat="44.86491" lon="6.17073">
        <ele>2000.16</ele>
        <time>2013-07-24T10:36:44Z</time>
      </trkpt>
      <trkpt lat="44.86497" lon="6.17067">
        <ele>1998.72</ele>
        <time>2013-07-24T10:36:51Z</time>
      </trkpt>
      <trkpt lat="44.86498" lon="6.17061">
        <ele>1997.76</ele>
        <time>2013-07-24T10:36:55Z</time>
      </trkpt>
      <trkpt lat="44.865" lon="6.17047">
        <ele>1993.91</ele>
        <time>2013-07-24T10:37:07Z</time>
      </trkpt>
      <trkpt lat="44.86503" lon="6.17041">
        <ele>1992.95</ele>
        <time>2013-07-24T10:37:12Z</time>
      </trkpt>
      <trkpt lat="44.86505" lon="6.17034">
        <ele>1991.51</ele>
        <time>2013-07-24T10:37:17Z</time>
      </trkpt>
      <trkpt lat="44.86506" lon="6.17027">
        <ele>1990.55</ele>
        <time>2013-07-24T10:37:22Z</time>
      </trkpt>
      <trkpt lat="44.8651" lon="6.17022">
        <ele>1990.07</ele>
        <time>2013-07-24T10:37:27Z</time>
      </trkpt>
      <trkpt lat="44.86514" lon="6.17018">
        <ele>1989.59</ele>
        <time>2013-07-24T10:37:31Z</time>
      </trkpt>
      <trkpt lat="44.86517" lon="6.17011">
        <ele>1989.1</ele>
        <time>2013-07-24T10:37:36Z</time>
      </trkpt>
      <trkpt lat="44.8652" lon="6.17004">
        <ele>1987.66</ele>
        <time>2013-07-24T10:37:41Z</time>
      </trkpt>
      <trkpt lat="44.8652" lon="6.16997">
        <ele>1987.18</ele>
        <time>2013-07-24T10:37:46Z</time>
      </trkpt>
      <trkpt lat="44.86522" lon="6.16991">
        <ele>1985.26</ele>
        <time>2013-07-24T10:37:50Z</time>
      </trkpt>
      <trkpt lat="44.86528" lon="6.16979">
        <ele>1983.34</ele>
        <time>2013-07-24T10:37:58Z</time>
      </trkpt>
      <trkpt lat="44.86525" lon="6.16963">
        <ele>1980.93</ele>
        <time>2013-07-24T10:38:12Z</time>
      </trkpt>
      <trkpt lat="44.86524" lon="6.16956">
        <ele>1980.93</ele>
        <time>2013-07-24T10:38:28Z</time>
      </trkpt>
      <trkpt lat="44.86524" lon="6.16958">
        <ele>1980.93</ele>
        <time>2013-07-24T10:39:06Z</time>
      </trkpt>
      <trkpt lat="44.86527" lon="6.1696">
        <ele>1981.41</ele>
        <time>2013-07-24T10:39:46Z</time>
      </trkpt>
      <trkpt lat="44.86533" lon="6.16956">
        <ele>1979.01</ele>
        <time>2013-07-24T10:39:56Z</time>
      </trkpt>
      <trkpt lat="44.86536" lon="6.16954">
        <ele>1978.53</ele>
        <time>2013-07-24T10:40:00Z</time>
      </trkpt>
      <trkpt lat="44.8654" lon="6.16949">
        <ele>1976.61</ele>
        <time>2013-07-24T10:40:07Z</time>
      </trkpt>
      <trkpt lat="44.86543" lon="6.16942">
        <ele>1975.17</ele>
        <time>2013-07-24T10:40:14Z</time>
      </trkpt>
      <trkpt lat="44.86543" lon="6.16934">
        <ele>1973.72</ele>
        <time>2013-07-24T10:40:20Z</time>
      </trkpt>
      <trkpt lat="44.8654" lon="6.16925">
        <ele>1972.28</ele>
        <time>2013-07-24T10:40:30Z</time>
      </trkpt>
      <trkpt lat="44.86537" lon="6.16917">
        <ele>1972.28</ele>
        <time>2013-07-24T10:40:43Z</time>
      </trkpt>
      <trkpt lat="44.86536" lon="6.16913">
        <ele>1972.28</ele>
        <time>2013-07-24T10:40:54Z</time>
      </trkpt>
      <trkpt lat="44.86536" lon="6.1691">
        <ele>1971.8</ele>
        <time>2013-07-24T10:40:59Z</time>
      </trkpt>
      <trkpt lat="44.8654" lon="6.16907">
        <ele>1971.8</ele>
        <time>2013-07-24T10:41:12Z</time>
      </trkpt>
      <trkpt lat="44.86541" lon="6.16907">
        <ele>1971.8</ele>
        <time>2013-07-24T10:41:42Z</time>
      </trkpt>
      <trkpt lat="44.86542" lon="6.16906">
        <ele>1971.32</ele>
        <time>2013-07-24T10:41:57Z</time>
      </trkpt>
      <trkpt lat="44.86546" lon="6.16903">
        <ele>1970.36</ele>
        <time>2013-07-24T10:42:38Z</time>
      </trkpt>
      <trkpt lat="44.86551" lon="6.16902">
        <ele>1969.4</ele>
        <time>2013-07-24T10:42:44Z</time>
      </trkpt>
      <trkpt lat="44.86552" lon="6.16898">
        <ele>1969.88</ele>
        <time>2013-07-24T10:42:50Z</time>
      </trkpt>
      <trkpt lat="44.86551" lon="6.1689">
        <ele>1968.44</ele>
        <time>2013-07-24T10:42:57Z</time>
      </trkpt>
      <trkpt lat="44.86553" lon="6.16883">
        <ele>1968.44</ele>
        <time>2013-07-24T10:43:03Z</time>
      </trkpt>
      <trkpt lat="44.86566" lon="6.1687">
        <ele>1966.99</ele>
        <time>2013-07-24T10:43:16Z</time>
      </trkpt>
      <trkpt lat="44.86576" lon="6.1686">
        <ele>1965.55</ele>
        <time>2013-07-24T10:43:29Z</time>
      </trkpt>
      <trkpt lat="44.86582" lon="6.16856">
        <ele>1964.11</ele>
        <time>2013-07-24T10:43:37Z</time>
      </trkpt>
      <trkpt lat="44.86587" lon="6.16851">
        <ele>1962.67</ele>
        <time>2013-07-24T10:43:45Z</time>
      </trkpt>
      <trkpt lat="44.86594" lon="6.16843">
        <ele>1960.75</ele>
        <time>2013-07-24T10:43:54Z</time>
      </trkpt>
      <trkpt lat="44.86598" lon="6.16836">
        <ele>1960.27</ele>
        <time>2013-07-24T10:44:02Z</time>
      </trkpt>
      <trkpt lat="44.86599" lon="6.16828">
        <ele>1958.82</ele>
        <time>2013-07-24T10:44:09Z</time>
      </trkpt>
      <trkpt lat="44.86608" lon="6.16815">
        <ele>1956.42</ele>
        <time>2013-07-24T10:44:23Z</time>
      </trkpt>
      <trkpt lat="44.86608" lon="6.16811">
        <ele>1956.42</ele>
        <time>2013-07-24T10:44:26Z</time>
      </trkpt>
      <trkpt lat="44.86608" lon="6.16804">
        <ele>1955.46</ele>
        <time>2013-07-24T10:44:32Z</time>
      </trkpt>
      <trkpt lat="44.86613" lon="6.16799">
        <ele>1954.98</ele>
        <time>2013-07-24T10:44:38Z</time>
      </trkpt>
      <trkpt lat="44.86613" lon="6.16793">
        <ele>1953.54</ele>
        <time>2013-07-24T10:44:44Z</time>
      </trkpt>
      <trkpt lat="44.86614" lon="6.16787">
        <ele>1953.54</ele>
        <time>2013-07-24T10:44:48Z</time>
      </trkpt>
      <trkpt lat="44.86618" lon="6.16774">
        <ele>1951.13</ele>
        <time>2013-07-24T10:45:01Z</time>
      </trkpt>
      <trkpt lat="44.86619" lon="6.16773">
        <ele>1951.13</ele>
        <time>2013-07-24T10:45:02Z</time>
      </trkpt>
      <trkpt lat="44.86625" lon="6.1677">
        <ele>1948.25</ele>
        <time>2013-07-24T10:45:13Z</time>
      </trkpt>
      <trkpt lat="44.86632" lon="6.16765">
        <ele>1945.85</ele>
        <time>2013-07-24T10:45:21Z</time>
      </trkpt>
      <trkpt lat="44.86632" lon="6.16761">
        <ele>1945.85</ele>
        <time>2013-07-24T10:45:24Z</time>
      </trkpt>
      <trkpt lat="44.86636" lon="6.1674">
        <ele>1944.88</ele>
        <time>2013-07-24T10:45:37Z</time>
      </trkpt>
      <trkpt lat="44.86636" lon="6.16739">
        <ele>1943.92</ele>
        <time>2013-07-24T10:45:38Z</time>
      </trkpt>
      <trkpt lat="44.86636" lon="6.16736">
        <ele>1944.4</ele>
        <time>2013-07-24T10:45:40Z</time>
      </trkpt>
      <trkpt lat="44.86637" lon="6.1673">
        <ele>1944.4</ele>
        <time>2013-07-24T10:45:44Z</time>
      </trkpt>
      <trkpt lat="44.86636" lon="6.16726">
        <ele>1944.4</ele>
        <time>2013-07-24T10:45:46Z</time>
      </trkpt>
      <trkpt lat="44.86637" lon="6.16706">
        <ele>1943.44</ele>
        <time>2013-07-24T10:45:58Z</time>
      </trkpt>
      <trkpt lat="44.86639" lon="6.167">
        <ele>1942.96</ele>
        <time>2013-07-24T10:46:02Z</time>
      </trkpt>
      <trkpt lat="44.86638" lon="6.16683">
        <ele>1942.96</ele>
        <time>2013-07-24T10:46:13Z</time>
      </trkpt>
      <trkpt lat="44.86642" lon="6.16674">
        <ele>1942</ele>
        <time>2013-07-24T10:46:20Z</time>
      </trkpt>
      <trkpt lat="44.86646" lon="6.1667">
        <ele>1940.56</ele>
        <time>2013-07-24T10:46:24Z</time>
      </trkpt>
      <trkpt lat="44.86649" lon="6.16669">
        <ele>1940.08</ele>
        <time>2013-07-24T10:46:27Z</time>
      </trkpt>
      <trkpt lat="44.86647" lon="6.16664">
        <ele>1939.6</ele>
        <time>2013-07-24T10:46:31Z</time>
      </trkpt>
      <trkpt lat="44.86645" lon="6.16659">
        <ele>1939.6</ele>
        <time>2013-07-24T10:46:34Z</time>
      </trkpt>
      <trkpt lat="44.86647" lon="6.16651">
        <ele>1938.64</ele>
        <time>2013-07-24T10:46:42Z</time>
      </trkpt>
      <trkpt lat="44.86649" lon="6.16643">
        <ele>1938.16</ele>
        <time>2013-07-24T10:46:48Z</time>
      </trkpt>
      <trkpt lat="44.86652" lon="6.16634">
        <ele>1937.67</ele>
        <time>2013-07-24T10:46:55Z</time>
      </trkpt>
      <trkpt lat="44.86651" lon="6.16616">
        <ele>1937.19</ele>
        <time>2013-07-24T10:47:06Z</time>
      </trkpt>
      <trkpt lat="44.86653" lon="6.16612">
        <ele>1937.19</ele>
        <time>2013-07-24T10:47:09Z</time>
      </trkpt>
      <trkpt lat="44.86654" lon="6.1659">
        <ele>1935.75</ele>
        <time>2013-07-24T10:47:24Z</time>
      </trkpt>
      <trkpt lat="44.86652" lon="6.16582">
        <ele>1934.79</ele>
        <time>2013-07-24T10:47:31Z</time>
      </trkpt>
      <trkpt lat="44.8665" lon="6.1658">
        <ele>1933.83</ele>
        <time>2013-07-24T10:47:33Z</time>
      </trkpt>
      <trkpt lat="44.86651" lon="6.16573">
        <ele>1933.83</ele>
        <time>2013-07-24T10:47:40Z</time>
      </trkpt>
      <trkpt lat="44.86653" lon="6.16573">
        <ele>1933.35</ele>
        <time>2013-07-24T10:47:42Z</time>
      </trkpt>
      <trkpt lat="44.86655" lon="6.16571">
        <ele>1932.39</ele>
        <time>2013-07-24T10:47:45Z</time>
      </trkpt>
      <trkpt lat="44.86662" lon="6.16559">
        <ele>1931.91</ele>
        <time>2013-07-24T10:47:54Z</time>
      </trkpt>
      <trkpt lat="44.86663" lon="6.16558">
        <ele>1932.39</ele>
        <time>2013-07-24T10:47:56Z</time>
      </trkpt>
      <trkpt lat="44.86662" lon="6.16555">
        <ele>1930.95</ele>
        <time>2013-07-24T10:47:58Z</time>
      </trkpt>
      <trkpt lat="44.86661" lon="6.16546">
        <ele>1930.95</ele>
        <time>2013-07-24T10:48:05Z</time>
      </trkpt>
      <trkpt lat="44.86658" lon="6.16537">
        <ele>1929.98</ele>
        <time>2013-07-24T10:48:12Z</time>
      </trkpt>
      <trkpt lat="44.86661" lon="6.16529">
        <ele>1929.5</ele>
        <time>2013-07-24T10:48:19Z</time>
      </trkpt>
      <trkpt lat="44.86662" lon="6.16516">
        <ele>1928.54</ele>
        <time>2013-07-24T10:48:28Z</time>
      </trkpt>
      <trkpt lat="44.86666" lon="6.16498">
        <ele>1926.62</ele>
        <time>2013-07-24T10:48:42Z</time>
      </trkpt>
      <trkpt lat="44.86666" lon="6.16495">
        <ele>1926.62</ele>
        <time>2013-07-24T10:48:44Z</time>
      </trkpt>
      <trkpt lat="44.86665" lon="6.1648">
        <ele>1926.62</ele>
        <time>2013-07-24T10:48:54Z</time>
      </trkpt>
      <trkpt lat="44.86667" lon="6.16477">
        <ele>1926.62</ele>
        <time>2013-07-24T10:48:57Z</time>
      </trkpt>
      <trkpt lat="44.86668" lon="6.16463">
        <ele>1924.7</ele>
        <time>2013-07-24T10:49:07Z</time>
      </trkpt>
      <trkpt lat="44.86669" lon="6.16451">
        <ele>1921.81</ele>
        <time>2013-07-24T10:49:18Z</time>
      </trkpt>
      <trkpt lat="44.86677" lon="6.16441">
        <ele>1919.41</ele>
        <time>2013-07-24T10:49:32Z</time>
      </trkpt>
      <trkpt lat="44.86682" lon="6.16439">
        <ele>1917.49</ele>
        <time>2013-07-24T10:49:37Z</time>
      </trkpt>
      <trkpt lat="44.86683" lon="6.16436">
        <ele>1917.49</ele>
        <time>2013-07-24T10:49:39Z</time>
      </trkpt>
      <trkpt lat="44.8669" lon="6.16432">
        <ele>1915.56</ele>
        <time>2013-07-24T10:49:46Z</time>
      </trkpt>
      <trkpt lat="44.86701" lon="6.16417">
        <ele>1912.2</ele>
        <time>2013-07-24T10:50:02Z</time>
      </trkpt>
      <trkpt lat="44.86702" lon="6.16417">
        <ele>1912.2</ele>
        <time>2013-07-24T10:50:03Z</time>
      </trkpt>
      <trkpt lat="44.86715" lon="6.16411">
        <ele>1910.76</ele>
        <time>2013-07-24T10:50:17Z</time>
      </trkpt>
      <trkpt lat="44.86718" lon="6.1641">
        <ele>1910.28</ele>
        <time>2013-07-24T10:50:23Z</time>
      </trkpt>
      <trkpt lat="44.8672" lon="6.16407">
        <ele>1909.32</ele>
        <time>2013-07-24T10:50:26Z</time>
      </trkpt>
      <trkpt lat="44.86728" lon="6.16405">
        <ele>1907.39</ele>
        <time>2013-07-24T10:50:36Z</time>
      </trkpt>
      <trkpt lat="44.86734" lon="6.164">
        <ele>1905.47</ele>
        <time>2013-07-24T10:50:43Z</time>
      </trkpt>
      <trkpt lat="44.8674" lon="6.16397">
        <ele>1904.51</ele>
        <time>2013-07-24T10:50:49Z</time>
      </trkpt>
      <trkpt lat="44.86743" lon="6.16395">
        <ele>1903.07</ele>
        <time>2013-07-24T10:50:52Z</time>
      </trkpt>
      <trkpt lat="44.86744" lon="6.16392">
        <ele>1902.59</ele>
        <time>2013-07-24T10:50:54Z</time>
      </trkpt>
      <trkpt lat="44.86749" lon="6.16384">
        <ele>1900.66</ele>
        <time>2013-07-24T10:51:00Z</time>
      </trkpt>
      <trkpt lat="44.86762" lon="6.16382">
        <ele>1898.74</ele>
        <time>2013-07-24T10:51:11Z</time>
      </trkpt>
      <trkpt lat="44.86771" lon="6.16378">
        <ele>1896.34</ele>
        <time>2013-07-24T10:51:19Z</time>
      </trkpt>
      <trkpt lat="44.86777" lon="6.16369">
        <ele>1894.42</ele>
        <time>2013-07-24T10:51:28Z</time>
      </trkpt>
      <trkpt lat="44.86783" lon="6.16369">
        <ele>1892.49</ele>
        <time>2013-07-24T10:51:36Z</time>
      </trkpt>
      <trkpt lat="44.86787" lon="6.16365">
        <ele>1891.05</ele>
        <time>2013-07-24T10:51:40Z</time>
      </trkpt>
      <trkpt lat="44.86791" lon="6.16355">
        <ele>1889.61</ele>
        <time>2013-07-24T10:51:48Z</time>
      </trkpt>
      <trkpt lat="44.86795" lon="6.16351">
        <ele>1888.65</ele>
        <time>2013-07-24T10:51:53Z</time>
      </trkpt>
      <trkpt lat="44.86799" lon="6.16353">
        <ele>1887.21</ele>
        <time>2013-07-24T10:51:58Z</time>
      </trkpt>
      <trkpt lat="44.86806" lon="6.16355">
        <ele>1884.8</ele>
        <time>2013-07-24T10:52:07Z</time>
      </trkpt>
      <trkpt lat="44.86807" lon="6.16352">
        <ele>1885.28</ele>
        <time>2013-07-24T10:52:09Z</time>
      </trkpt>
      <trkpt lat="44.8681" lon="6.1635">
        <ele>1882.88</ele>
        <time>2013-07-24T10:52:12Z</time>
      </trkpt>
      <trkpt lat="44.86821" lon="6.16337">
        <ele>1880.96</ele>
        <time>2013-07-24T10:52:24Z</time>
      </trkpt>
      <trkpt lat="44.86829" lon="6.16326">
        <ele>1878.07</ele>
        <time>2013-07-24T10:52:35Z</time>
      </trkpt>
      <trkpt lat="44.86834" lon="6.16318">
        <ele>1877.59</ele>
        <time>2013-07-24T10:52:41Z</time>
      </trkpt>
      <trkpt lat="44.86837" lon="6.16316">
        <ele>1876.63</ele>
        <time>2013-07-24T10:52:44Z</time>
      </trkpt>
      <trkpt lat="44.8684" lon="6.16316">
        <ele>1876.15</ele>
        <time>2013-07-24T10:52:46Z</time>
      </trkpt>
      <trkpt lat="44.8685" lon="6.16314">
        <ele>1874.23</ele>
        <time>2013-07-24T10:52:56Z</time>
      </trkpt>
      <trkpt lat="44.86855" lon="6.16317">
        <ele>1873.75</ele>
        <time>2013-07-24T10:53:02Z</time>
      </trkpt>
      <trkpt lat="44.86857" lon="6.16321">
        <ele>1873.27</ele>
        <time>2013-07-24T10:53:07Z</time>
      </trkpt>
      <trkpt lat="44.86857" lon="6.16325">
        <ele>1872.79</ele>
        <time>2013-07-24T10:53:10Z</time>
      </trkpt>
      <trkpt lat="44.86858" lon="6.1634">
        <ele>1871.34</ele>
        <time>2013-07-24T10:53:22Z</time>
      </trkpt>
      <trkpt lat="44.86859" lon="6.16343">
        <ele>1871.34</ele>
        <time>2013-07-24T10:53:25Z</time>
      </trkpt>
      <trkpt lat="44.86864" lon="6.16344">
        <ele>1872.3</ele>
        <time>2013-07-24T10:53:32Z</time>
      </trkpt>
      <trkpt lat="44.86867" lon="6.16346">
        <ele>1871.82</ele>
        <time>2013-07-24T10:53:36Z</time>
      </trkpt>
      <trkpt lat="44.86868" lon="6.16348">
        <ele>1870.86</ele>
        <time>2013-07-24T10:53:38Z</time>
      </trkpt>
      <trkpt lat="44.86869" lon="6.16352">
        <ele>1869.9</ele>
        <time>2013-07-24T10:53:41Z</time>
      </trkpt>
      <trkpt lat="44.86876" lon="6.16359">
        <ele>1866.54</ele>
        <time>2013-07-24T10:53:54Z</time>
      </trkpt>
      <trkpt lat="44.86879" lon="6.16362">
        <ele>1866.54</ele>
        <time>2013-07-24T10:53:57Z</time>
      </trkpt>
      <trkpt lat="44.86883" lon="6.16364">
        <ele>1867.02</ele>
        <time>2013-07-24T10:54:02Z</time>
      </trkpt>
      <trkpt lat="44.86891" lon="6.1637">
        <ele>1865.58</ele>
        <time>2013-07-24T10:54:14Z</time>
      </trkpt>
      <trkpt lat="44.86892" lon="6.1637">
        <ele>1866.54</ele>
        <time>2013-07-24T10:54:26Z</time>
      </trkpt>
      <trkpt lat="44.86901" lon="6.1637">
        <ele>1865.58</ele>
        <time>2013-07-24T10:54:41Z</time>
      </trkpt>
      <trkpt lat="44.86907" lon="6.1637">
        <ele>1864.61</ele>
        <time>2013-07-24T10:54:50Z</time>
      </trkpt>
      <trkpt lat="44.8691" lon="6.1637">
        <ele>1865.09</ele>
        <time>2013-07-24T10:54:52Z</time>
      </trkpt>
      <trkpt lat="44.86915" lon="6.16373">
        <ele>1864.13</ele>
        <time>2013-07-24T10:54:57Z</time>
      </trkpt>
      <trkpt lat="44.86924" lon="6.1638">
        <ele>1864.61</ele>
        <time>2013-07-24T10:55:10Z</time>
      </trkpt>
      <trkpt lat="44.86929" lon="6.16383">
        <ele>1864.13</ele>
        <time>2013-07-24T10:55:25Z</time>
      </trkpt>
      <trkpt lat="44.8693" lon="6.16379">
        <ele>1863.17</ele>
        <time>2013-07-24T10:55:38Z</time>
      </trkpt>
      <trkpt lat="44.86935" lon="6.16374">
        <ele>1862.69</ele>
        <time>2013-07-24T10:56:11Z</time>
      </trkpt>
      <trkpt lat="44.86933" lon="6.16373">
        <ele>1862.21</ele>
        <time>2013-07-24T10:56:37Z</time>
      </trkpt>
      <trkpt lat="44.86935" lon="6.16372">
        <ele>1860.77</ele>
        <time>2013-07-24T10:57:14Z</time>
      </trkpt>
      <trkpt lat="44.86936" lon="6.1637">
        <ele>1860.29</ele>
        <time>2013-07-24T10:59:01Z</time>
      </trkpt>
      <trkpt lat="44.86938" lon="6.1637">
        <ele>1859.81</ele>
        <time>2013-07-24T10:59:24Z</time>
      </trkpt>
      <trkpt lat="44.86938" lon="6.16366">
        <ele>1859.81</ele>
        <time>2013-07-24T10:59:34Z</time>
      </trkpt>
      <trkpt lat="44.86941" lon="6.16354">
        <ele>1860.29</ele>
        <time>2013-07-24T10:59:44Z</time>
      </trkpt>
      <trkpt lat="44.86942" lon="6.16351">
        <ele>1860.29</ele>
        <time>2013-07-24T10:59:46Z</time>
      </trkpt>
      <trkpt lat="44.86951" lon="6.16336">
        <ele>1859.33</ele>
        <time>2013-07-24T11:00:00Z</time>
      </trkpt>
      <trkpt lat="44.86962" lon="6.16321">
        <ele>1859.33</ele>
        <time>2013-07-24T11:00:13Z</time>
      </trkpt>
      <trkpt lat="44.86972" lon="6.16312">
        <ele>1858.85</ele>
        <time>2013-07-24T11:00:26Z</time>
      </trkpt>
      <trkpt lat="44.86973" lon="6.16311">
        <ele>1858.85</ele>
        <time>2013-07-24T11:00:27Z</time>
      </trkpt>
      <trkpt lat="44.86976" lon="6.16311">
        <ele>1858.85</ele>
        <time>2013-07-24T11:00:29Z</time>
      </trkpt>
      <trkpt lat="44.86989" lon="6.16297">
        <ele>1858.85</ele>
        <time>2013-07-24T11:00:45Z</time>
      </trkpt>
      <trkpt lat="44.86989" lon="6.16295">
        <ele>1858.85</ele>
        <time>2013-07-24T11:00:47Z</time>
      </trkpt>
      <trkpt lat="44.86991" lon="6.1629">
        <ele>1856.92</ele>
        <time>2013-07-24T11:00:51Z</time>
      </trkpt>
      <trkpt lat="44.86996" lon="6.16286">
        <ele>1855.96</ele>
        <time>2013-07-24T11:00:56Z</time>
      </trkpt>
      <trkpt lat="44.86998" lon="6.16281">
        <ele>1855.48</ele>
        <time>2013-07-24T11:00:59Z</time>
      </trkpt>
      <trkpt lat="44.87003" lon="6.16272">
        <ele>1854.52</ele>
        <time>2013-07-24T11:01:06Z</time>
      </trkpt>
      <trkpt lat="44.87015" lon="6.16257">
        <ele>1852.6</ele>
        <time>2013-07-24T11:01:19Z</time>
      </trkpt>
      <trkpt lat="44.87016" lon="6.16256">
        <ele>1852.12</ele>
        <time>2013-07-24T11:01:20Z</time>
      </trkpt>
      <trkpt lat="44.87018" lon="6.16255">
        <ele>1852.12</ele>
        <time>2013-07-24T11:01:23Z</time>
      </trkpt>
      <trkpt lat="44.87021" lon="6.16252">
        <ele>1852.12</ele>
        <time>2013-07-24T11:01:26Z</time>
      </trkpt>
      <trkpt lat="44.87024" lon="6.16249">
        <ele>1850.19</ele>
        <time>2013-07-24T11:01:29Z</time>
      </trkpt>
      <trkpt lat="44.87025" lon="6.16247">
        <ele>1851.16</ele>
        <time>2013-07-24T11:01:31Z</time>
      </trkpt>
      <trkpt lat="44.87027" lon="6.16244">
        <ele>1850.19</ele>
        <time>2013-07-24T11:01:35Z</time>
      </trkpt>
      <trkpt lat="44.87031" lon="6.16241">
        <ele>1849.71</ele>
        <time>2013-07-24T11:01:39Z</time>
      </trkpt>
      <trkpt lat="44.87031" lon="6.16235">
        <ele>1849.71</ele>
        <time>2013-07-24T11:01:43Z</time>
      </trkpt>
      <trkpt lat="44.87034" lon="6.16232">
        <ele>1849.23</ele>
        <time>2013-07-24T11:01:46Z</time>
      </trkpt>
      <trkpt lat="44.87036" lon="6.16228">
        <ele>1849.23</ele>
        <time>2013-07-24T11:01:50Z</time>
      </trkpt>
      <trkpt lat="44.87043" lon="6.16202">
        <ele>1846.35</ele>
        <time>2013-07-24T11:02:07Z</time>
      </trkpt>
      <trkpt lat="44.87045" lon="6.16201">
        <ele>1845.87</ele>
        <time>2013-07-24T11:02:09Z</time>
      </trkpt>
      <trkpt lat="44.87051" lon="6.16186">
        <ele>1843.47</ele>
        <time>2013-07-24T11:02:21Z</time>
      </trkpt>
      <trkpt lat="44.87057" lon="6.16174">
        <ele>1842.02</ele>
        <time>2013-07-24T11:02:32Z</time>
      </trkpt>
      <trkpt lat="44.87058" lon="6.16167">
        <ele>1840.1</ele>
        <time>2013-07-24T11:02:39Z</time>
      </trkpt>
      <trkpt lat="44.87059" lon="6.16161">
        <ele>1838.18</ele>
        <time>2013-07-24T11:02:44Z</time>
      </trkpt>
      <trkpt lat="44.87062" lon="6.16145">
        <ele>1835.29</ele>
        <time>2013-07-24T11:02:57Z</time>
      </trkpt>
      <trkpt lat="44.87068" lon="6.16131">
        <ele>1831.93</ele>
        <time>2013-07-24T11:03:11Z</time>
      </trkpt>
      <trkpt lat="44.8707" lon="6.16118">
        <ele>1829.53</ele>
        <time>2013-07-24T11:03:21Z</time>
      </trkpt>
      <trkpt lat="44.87068" lon="6.16108">
        <ele>1827.12</ele>
        <time>2013-07-24T11:03:30Z</time>
      </trkpt>
      <trkpt lat="44.87071" lon="6.161">
        <ele>1825.2</ele>
        <time>2013-07-24T11:03:37Z</time>
      </trkpt>
      <trkpt lat="44.87071" lon="6.16092">
        <ele>1823.28</ele>
        <time>2013-07-24T11:03:45Z</time>
      </trkpt>
      <trkpt lat="44.8707" lon="6.16087">
        <ele>1821.84</ele>
        <time>2013-07-24T11:03:49Z</time>
      </trkpt>
      <trkpt lat="44.87071" lon="6.16069">
        <ele>1818.95</ele>
        <time>2013-07-24T11:04:03Z</time>
      </trkpt>
      <trkpt lat="44.87071" lon="6.16068">
        <ele>1818.47</ele>
        <time>2013-07-24T11:04:04Z</time>
      </trkpt>
      <trkpt lat="44.87068" lon="6.16059">
        <ele>1817.99</ele>
        <time>2013-07-24T11:04:13Z</time>
      </trkpt>
      <trkpt lat="44.87068" lon="6.16051">
        <ele>1816.55</ele>
        <time>2013-07-24T11:04:18Z</time>
      </trkpt>
      <trkpt lat="44.87075" lon="6.16041">
        <ele>1814.15</ele>
        <time>2013-07-24T11:04:27Z</time>
      </trkpt>
      <trkpt lat="44.87076" lon="6.16039">
        <ele>1813.66</ele>
        <time>2013-07-24T11:04:30Z</time>
      </trkpt>
      <trkpt lat="44.87077" lon="6.16026">
        <ele>1810.3</ele>
        <time>2013-07-24T11:04:43Z</time>
      </trkpt>
      <trkpt lat="44.87081" lon="6.16016">
        <ele>1807.9</ele>
        <time>2013-07-24T11:04:54Z</time>
      </trkpt>
      <trkpt lat="44.87081" lon="6.16">
        <ele>1805.49</ele>
        <time>2013-07-24T11:05:07Z</time>
      </trkpt>
      <trkpt lat="44.87084" lon="6.15987">
        <ele>1803.09</ele>
        <time>2013-07-24T11:05:19Z</time>
      </trkpt>
      <trkpt lat="44.87081" lon="6.1597">
        <ele>1801.65</ele>
        <time>2013-07-24T11:05:30Z</time>
      </trkpt>
      <trkpt lat="44.87082" lon="6.15961">
        <ele>1798.28</ele>
        <time>2013-07-24T11:05:41Z</time>
      </trkpt>
      <trkpt lat="44.87087" lon="6.15959">
        <ele>1797.32</ele>
        <time>2013-07-24T11:05:48Z</time>
      </trkpt>
      <trkpt lat="44.8709" lon="6.15963">
        <ele>1796.84</ele>
        <time>2013-07-24T11:05:51Z</time>
      </trkpt>
      <trkpt lat="44.87092" lon="6.15965">
        <ele>1795.4</ele>
        <time>2013-07-24T11:05:54Z</time>
      </trkpt>
      <trkpt lat="44.87108" lon="6.15966">
        <ele>1793.48</ele>
        <time>2013-07-24T11:06:09Z</time>
      </trkpt>
      <trkpt lat="44.87109" lon="6.15963">
        <ele>1793</ele>
        <time>2013-07-24T11:06:12Z</time>
      </trkpt>
      <trkpt lat="44.8711" lon="6.1596">
        <ele>1792.03</ele>
        <time>2013-07-24T11:06:14Z</time>
      </trkpt>
      <trkpt lat="44.87113" lon="6.15959">
        <ele>1789.63</ele>
        <time>2013-07-24T11:06:23Z</time>
      </trkpt>
      <trkpt lat="44.87119" lon="6.15954">
        <ele>1789.15</ele>
        <time>2013-07-24T11:06:29Z</time>
      </trkpt>
      <trkpt lat="44.87112" lon="6.15943">
        <ele>1787.23</ele>
        <time>2013-07-24T11:06:38Z</time>
      </trkpt>
      <trkpt lat="44.87113" lon="6.1594">
        <ele>1786.27</ele>
        <time>2013-07-24T11:06:43Z</time>
      </trkpt>
      <trkpt lat="44.87128" lon="6.15933">
        <ele>1782.9</ele>
        <time>2013-07-24T11:06:57Z</time>
      </trkpt>
      <trkpt lat="44.87138" lon="6.15933">
        <ele>1780.5</ele>
        <time>2013-07-24T11:07:07Z</time>
      </trkpt>
      <trkpt lat="44.87145" lon="6.15928">
        <ele>1779.06</ele>
        <time>2013-07-24T11:07:14Z</time>
      </trkpt>
      <trkpt lat="44.87158" lon="6.15916">
        <ele>1776.65</ele>
        <time>2013-07-24T11:07:27Z</time>
      </trkpt>
      <trkpt lat="44.87167" lon="6.15914">
        <ele>1774.73</ele>
        <time>2013-07-24T11:07:36Z</time>
      </trkpt>
      <trkpt lat="44.87169" lon="6.15914">
        <ele>1774.73</ele>
        <time>2013-07-24T11:07:38Z</time>
      </trkpt>
      <trkpt lat="44.87173" lon="6.15912">
        <ele>1773.77</ele>
        <time>2013-07-24T11:07:41Z</time>
      </trkpt>
      <trkpt lat="44.87186" lon="6.15912">
        <ele>1771.37</ele>
        <time>2013-07-24T11:07:54Z</time>
      </trkpt>
      <trkpt lat="44.87191" lon="6.15911">
        <ele>1771.37</ele>
        <time>2013-07-24T11:07:59Z</time>
      </trkpt>
      <trkpt lat="44.87199" lon="6.15909">
        <ele>1770.41</ele>
        <time>2013-07-24T11:08:07Z</time>
      </trkpt>
      <trkpt lat="44.87202" lon="6.15904">
        <ele>1769.92</ele>
        <time>2013-07-24T11:08:11Z</time>
      </trkpt>
      <trkpt lat="44.87216" lon="6.15887">
        <ele>1767.52</ele>
        <time>2013-07-24T11:08:27Z</time>
      </trkpt>
      <trkpt lat="44.87222" lon="6.15876">
        <ele>1765.6</ele>
        <time>2013-07-24T11:08:39Z</time>
      </trkpt>
      <trkpt lat="44.87222" lon="6.15874">
        <ele>1765.6</ele>
        <time>2013-07-24T11:08:40Z</time>
      </trkpt>
      <trkpt lat="44.87222" lon="6.15866">
        <ele>1763.68</ele>
        <time>2013-07-24T11:08:46Z</time>
      </trkpt>
      <trkpt lat="44.87224" lon="6.15863">
        <ele>1763.2</ele>
        <time>2013-07-24T11:08:50Z</time>
      </trkpt>
      <trkpt lat="44.87235" lon="6.15848">
        <ele>1761.27</ele>
        <time>2013-07-24T11:09:03Z</time>
      </trkpt>
      <trkpt lat="44.87238" lon="6.15843">
        <ele>1760.31</ele>
        <time>2013-07-24T11:09:07Z</time>
      </trkpt>
      <trkpt lat="44.8724" lon="6.15836">
        <ele>1759.83</ele>
        <time>2013-07-24T11:09:12Z</time>
      </trkpt>
      <trkpt lat="44.87241" lon="6.15834">
        <ele>1759.35</ele>
        <time>2013-07-24T11:09:14Z</time>
      </trkpt>
      <trkpt lat="44.87243" lon="6.15827">
        <ele>1758.39</ele>
        <time>2013-07-24T11:09:21Z</time>
      </trkpt>
      <trkpt lat="44.87251" lon="6.15806">
        <ele>1756.47</ele>
        <time>2013-07-24T11:09:35Z</time>
      </trkpt>
      <trkpt lat="44.87255" lon="6.15795">
        <ele>1754.54</ele>
        <time>2013-07-24T11:09:45Z</time>
      </trkpt>
      <trkpt lat="44.87261" lon="6.15788">
        <ele>1753.58</ele>
        <time>2013-07-24T11:09:52Z</time>
      </trkpt>
      <trkpt lat="44.8726" lon="6.15785">
        <ele>1752.62</ele>
        <time>2013-07-24T11:09:54Z</time>
      </trkpt>
      <trkpt lat="44.87259" lon="6.15772">
        <ele>1751.66</ele>
        <time>2013-07-24T11:10:02Z</time>
      </trkpt>
      <trkpt lat="44.87262" lon="6.15766">
        <ele>1750.22</ele>
        <time>2013-07-24T11:10:06Z</time>
      </trkpt>
      <trkpt lat="44.87264" lon="6.1576">
        <ele>1749.26</ele>
        <time>2013-07-24T11:10:10Z</time>
      </trkpt>
      <trkpt lat="44.87272" lon="6.15748">
        <ele>1747.81</ele>
        <time>2013-07-24T11:10:20Z</time>
      </trkpt>
      <trkpt lat="44.87277" lon="6.15742">
        <ele>1748.29</ele>
        <time>2013-07-24T11:10:25Z</time>
      </trkpt>
      <trkpt lat="44.87287" lon="6.15733">
        <ele>1745.89</ele>
        <time>2013-07-24T11:10:38Z</time>
      </trkpt>
      <trkpt lat="44.87289" lon="6.15731">
        <ele>1745.89</ele>
        <time>2013-07-24T11:10:41Z</time>
      </trkpt>
      <trkpt lat="44.87296" lon="6.15724">
        <ele>1743.97</ele>
        <time>2013-07-24T11:10:48Z</time>
      </trkpt>
      <trkpt lat="44.87302" lon="6.15718">
        <ele>1741.57</ele>
        <time>2013-07-24T11:10:56Z</time>
      </trkpt>
      <trkpt lat="44.87306" lon="6.1571">
        <ele>1741.57</ele>
        <time>2013-07-24T11:11:02Z</time>
      </trkpt>
      <trkpt lat="44.8731" lon="6.15703">
        <ele>1740.6</ele>
        <time>2013-07-24T11:11:07Z</time>
      </trkpt>
      <trkpt lat="44.87321" lon="6.15691">
        <ele>1737.24</ele>
        <time>2013-07-24T11:11:20Z</time>
      </trkpt>
      <trkpt lat="44.87323" lon="6.15689">
        <ele>1736.76</ele>
        <time>2013-07-24T11:11:24Z</time>
      </trkpt>
      <trkpt lat="44.87327" lon="6.15687">
        <ele>1736.28</ele>
        <time>2013-07-24T11:11:28Z</time>
      </trkpt>
      <trkpt lat="44.87328" lon="6.15687">
        <ele>1736.28</ele>
        <time>2013-07-24T11:11:29Z</time>
      </trkpt>
      <trkpt lat="44.87329" lon="6.15681">
        <ele>1735.8</ele>
        <time>2013-07-24T11:11:33Z</time>
      </trkpt>
      <trkpt lat="44.87341" lon="6.15667">
        <ele>1734.36</ele>
        <time>2013-07-24T11:11:46Z</time>
      </trkpt>
      <trkpt lat="44.87342" lon="6.15663">
        <ele>1733.88</ele>
        <time>2013-07-24T11:11:49Z</time>
      </trkpt>
      <trkpt lat="44.87348" lon="6.15637">
        <ele>1732.43</ele>
        <time>2013-07-24T11:12:06Z</time>
      </trkpt>
      <trkpt lat="44.87348" lon="6.15634">
        <ele>1732.91</ele>
        <time>2013-07-24T11:12:08Z</time>
      </trkpt>
      <trkpt lat="44.8735" lon="6.15629">
        <ele>1732.43</ele>
        <time>2013-07-24T11:12:25Z</time>
      </trkpt>
      <trkpt lat="44.87345" lon="6.15625">
        <ele>1731.47</ele>
        <time>2013-07-24T11:12:37Z</time>
      </trkpt>
      <trkpt lat="44.87346" lon="6.15626">
        <ele>1730.51</ele>
        <time>2013-07-24T11:13:33Z</time>
      </trkpt>
      <trkpt lat="44.87345" lon="6.15624">
        <ele>1729.07</ele>
        <time>2013-07-24T11:14:54Z</time>
      </trkpt>
      <trkpt lat="44.87345" lon="6.15623">
        <ele>1727.15</ele>
        <time>2013-07-24T11:17:38Z</time>
      </trkpt>
      <trkpt lat="44.87345" lon="6.15626">
        <ele>1727.63</ele>
        <time>2013-07-24T11:17:52Z</time>
      </trkpt>
      <trkpt lat="44.87344" lon="6.15625">
        <ele>1727.63</ele>
        <time>2013-07-24T11:18:16Z</time>
      </trkpt>
      <trkpt lat="44.87344" lon="6.15619">
        <ele>1727.63</ele>
        <time>2013-07-24T11:18:20Z</time>
      </trkpt>
      <trkpt lat="44.87345" lon="6.15601">
        <ele>1725.7</ele>
        <time>2013-07-24T11:18:31Z</time>
      </trkpt>
      <trkpt lat="44.87347" lon="6.15597">
        <ele>1724.74</ele>
        <time>2013-07-24T11:18:34Z</time>
      </trkpt>
      <trkpt lat="44.87351" lon="6.15588">
        <ele>1722.82</ele>
        <time>2013-07-24T11:18:43Z</time>
      </trkpt>
      <trkpt lat="44.87361" lon="6.15573">
        <ele>1721.38</ele>
        <time>2013-07-24T11:18:59Z</time>
      </trkpt>
      <trkpt lat="44.87374" lon="6.15566">
        <ele>1719.94</ele>
        <time>2013-07-24T11:19:10Z</time>
      </trkpt>
      <trkpt lat="44.87376" lon="6.15562">
        <ele>1718.97</ele>
        <time>2013-07-24T11:19:14Z</time>
      </trkpt>
      <trkpt lat="44.87379" lon="6.1556">
        <ele>1717.53</ele>
        <time>2013-07-24T11:19:18Z</time>
      </trkpt>
      <trkpt lat="44.87382" lon="6.15555">
        <ele>1717.05</ele>
        <time>2013-07-24T11:19:23Z</time>
      </trkpt>
      <trkpt lat="44.87385" lon="6.15544">
        <ele>1714.65</ele>
        <time>2013-07-24T11:19:30Z</time>
      </trkpt>
      <trkpt lat="44.87386" lon="6.1554">
        <ele>1713.69</ele>
        <time>2013-07-24T11:19:33Z</time>
      </trkpt>
      <trkpt lat="44.87388" lon="6.15525">
        <ele>1710.8</ele>
        <time>2013-07-24T11:19:44Z</time>
      </trkpt>
      <trkpt lat="44.87387" lon="6.15523">
        <ele>1710.32</ele>
        <time>2013-07-24T11:19:46Z</time>
      </trkpt>
      <trkpt lat="44.87385" lon="6.15514">
        <ele>1708.88</ele>
        <time>2013-07-24T11:19:53Z</time>
      </trkpt>
      <trkpt lat="44.87391" lon="6.15496">
        <ele>1705.04</ele>
        <time>2013-07-24T11:20:07Z</time>
      </trkpt>
      <trkpt lat="44.87391" lon="6.15492">
        <ele>1705.04</ele>
        <time>2013-07-24T11:20:10Z</time>
      </trkpt>
      <trkpt lat="44.87391" lon="6.15483">
        <ele>1704.07</ele>
        <time>2013-07-24T11:20:15Z</time>
      </trkpt>
      <trkpt lat="44.87392" lon="6.15472">
        <ele>1702.63</ele>
        <time>2013-07-24T11:20:21Z</time>
      </trkpt>
      <trkpt lat="44.87395" lon="6.1546">
        <ele>1700.71</ele>
        <time>2013-07-24T11:20:28Z</time>
      </trkpt>
      <trkpt lat="44.87396" lon="6.15455">
        <ele>1700.71</ele>
        <time>2013-07-24T11:20:32Z</time>
      </trkpt>
      <trkpt lat="44.87396" lon="6.15443">
        <ele>1697.83</ele>
        <time>2013-07-24T11:20:39Z</time>
      </trkpt>
      <trkpt lat="44.874" lon="6.15435">
        <ele>1695.42</ele>
        <time>2013-07-24T11:20:46Z</time>
      </trkpt>
      <trkpt lat="44.87406" lon="6.15432">
        <ele>1693.98</ele>
        <time>2013-07-24T11:20:53Z</time>
      </trkpt>
      <trkpt lat="44.87408" lon="6.15429">
        <ele>1693.5</ele>
        <time>2013-07-24T11:20:56Z</time>
      </trkpt>
      <trkpt lat="44.87417" lon="6.15419">
        <ele>1693.5</ele>
        <time>2013-07-24T11:21:07Z</time>
      </trkpt>
      <trkpt lat="44.87416" lon="6.15412">
        <ele>1692.54</ele>
        <time>2013-07-24T11:21:22Z</time>
      </trkpt>
      <trkpt lat="44.87417" lon="6.15413">
        <ele>1692.54</ele>
        <time>2013-07-24T11:21:53Z</time>
      </trkpt>
      <trkpt lat="44.87417" lon="6.15411">
        <ele>1692.54</ele>
        <time>2013-07-24T11:21:54Z</time>
      </trkpt>
      <trkpt lat="44.87418" lon="6.15403">
        <ele>1691.1</ele>
        <time>2013-07-24T11:21:58Z</time>
      </trkpt>
      <trkpt lat="44.87418" lon="6.15396">
        <ele>1689.65</ele>
        <time>2013-07-24T11:22:02Z</time>
      </trkpt>
      <trkpt lat="44.87424" lon="6.15383">
        <ele>1687.25</ele>
        <time>2013-07-24T11:22:12Z</time>
      </trkpt>
      <trkpt lat="44.87427" lon="6.15377">
        <ele>1686.77</ele>
        <time>2013-07-24T11:22:16Z</time>
      </trkpt>
      <trkpt lat="44.87437" lon="6.1535">
        <ele>1683.89</ele>
        <time>2013-07-24T11:22:32Z</time>
      </trkpt>
      <trkpt lat="44.87444" lon="6.15339">
        <ele>1682.93</ele>
        <time>2013-07-24T11:22:40Z</time>
      </trkpt>
      <trkpt lat="44.87446" lon="6.15333">
        <ele>1681.48</ele>
        <time>2013-07-24T11:22:44Z</time>
      </trkpt>
      <trkpt lat="44.87447" lon="6.15332">
        <ele>1681.96</ele>
        <time>2013-07-24T11:22:45Z</time>
      </trkpt>
      <trkpt lat="44.87448" lon="6.15324">
        <ele>1681.48</ele>
        <time>2013-07-24T11:22:49Z</time>
      </trkpt>
      <trkpt lat="44.8745" lon="6.15314">
        <ele>1681</ele>
        <time>2013-07-24T11:22:55Z</time>
      </trkpt>
      <trkpt lat="44.87449" lon="6.15309">
        <ele>1680.52</ele>
        <time>2013-07-24T11:22:59Z</time>
      </trkpt>
      <trkpt lat="44.87448" lon="6.15306">
        <ele>1679.56</ele>
        <time>2013-07-24T11:23:01Z</time>
      </trkpt>
      <trkpt lat="44.87449" lon="6.153">
        <ele>1679.08</ele>
        <time>2013-07-24T11:23:05Z</time>
      </trkpt>
      <trkpt lat="44.87455" lon="6.1529">
        <ele>1677.64</ele>
        <time>2013-07-24T11:23:11Z</time>
      </trkpt>
      <trkpt lat="44.87465" lon="6.15265">
        <ele>1675.23</ele>
        <time>2013-07-24T11:23:26Z</time>
      </trkpt>
      <trkpt lat="44.8747" lon="6.15257">
        <ele>1674.75</ele>
        <time>2013-07-24T11:23:32Z</time>
      </trkpt>
      <trkpt lat="44.87476" lon="6.15248">
        <ele>1673.31</ele>
        <time>2013-07-24T11:23:38Z</time>
      </trkpt>
      <trkpt lat="44.87477" lon="6.1524">
        <ele>1673.31</ele>
        <time>2013-07-24T11:23:43Z</time>
      </trkpt>
      <trkpt lat="44.87491" lon="6.15232">
        <ele>1670.91</ele>
        <time>2013-07-24T11:23:54Z</time>
      </trkpt>
      <trkpt lat="44.87508" lon="6.15228">
        <ele>1669.95</ele>
        <time>2013-07-24T11:24:08Z</time>
      </trkpt>
      <trkpt lat="44.87512" lon="6.15227">
        <ele>1669.47</ele>
        <time>2013-07-24T11:24:12Z</time>
      </trkpt>
      <trkpt lat="44.87517" lon="6.15225">
        <ele>1669.95</ele>
        <time>2013-07-24T11:24:17Z</time>
      </trkpt>
      <trkpt lat="44.87526" lon="6.1522">
        <ele>1669.95</ele>
        <time>2013-07-24T11:24:24Z</time>
      </trkpt>
      <trkpt lat="44.8753" lon="6.15216">
        <ele>1668.99</ele>
        <time>2013-07-24T11:24:29Z</time>
      </trkpt>
      <trkpt lat="44.87533" lon="6.1521">
        <ele>1669.47</ele>
        <time>2013-07-24T11:24:34Z</time>
      </trkpt>
      <trkpt lat="44.87534" lon="6.15201">
        <ele>1668.51</ele>
        <time>2013-07-24T11:24:40Z</time>
      </trkpt>
      <trkpt lat="44.87542" lon="6.15185">
        <ele>1665.14</ele>
        <time>2013-07-24T11:24:53Z</time>
      </trkpt>
      <trkpt lat="44.87552" lon="6.15174">
        <ele>1662.26</ele>
        <time>2013-07-24T11:25:05Z</time>
      </trkpt>
      <trkpt lat="44.87562" lon="6.15161">
        <ele>1659.37</ele>
        <time>2013-07-24T11:25:17Z</time>
      </trkpt>
      <trkpt lat="44.87567" lon="6.15141">
        <ele>1656.01</ele>
        <time>2013-07-24T11:25:32Z</time>
      </trkpt>
      <trkpt lat="44.87567" lon="6.15137">
        <ele>1655.53</ele>
        <time>2013-07-24T11:25:35Z</time>
      </trkpt>
      <trkpt lat="44.8757" lon="6.15133">
        <ele>1654.57</ele>
        <time>2013-07-24T11:25:38Z</time>
      </trkpt>
      <trkpt lat="44.87576" lon="6.15124">
        <ele>1652.64</ele>
        <time>2013-07-24T11:25:46Z</time>
      </trkpt>
      <trkpt lat="44.87579" lon="6.15114">
        <ele>1651.68</ele>
        <time>2013-07-24T11:25:53Z</time>
      </trkpt>
      <trkpt lat="44.87581" lon="6.15101">
        <ele>1648.8</ele>
        <time>2013-07-24T11:26:02Z</time>
      </trkpt>
      <trkpt lat="44.8759" lon="6.15091">
        <ele>1647.36</ele>
        <time>2013-07-24T11:26:10Z</time>
      </trkpt>
      <trkpt lat="44.87599" lon="6.15089">
        <ele>1646.88</ele>
        <time>2013-07-24T11:26:16Z</time>
      </trkpt>
      <trkpt lat="44.87605" lon="6.15088">
        <ele>1646.4</ele>
        <time>2013-07-24T11:26:21Z</time>
      </trkpt>
      <trkpt lat="44.87611" lon="6.15075">
        <ele>1644.47</ele>
        <time>2013-07-24T11:26:32Z</time>
      </trkpt>
      <trkpt lat="44.87616" lon="6.15077">
        <ele>1643.99</ele>
        <time>2013-07-24T11:26:36Z</time>
      </trkpt>
      <trkpt lat="44.87625" lon="6.15074">
        <ele>1642.55</ele>
        <time>2013-07-24T11:26:43Z</time>
      </trkpt>
      <trkpt lat="44.87631" lon="6.15072">
        <ele>1642.07</ele>
        <time>2013-07-24T11:26:49Z</time>
      </trkpt>
      <trkpt lat="44.87633" lon="6.1507">
        <ele>1640.63</ele>
        <time>2013-07-24T11:26:51Z</time>
      </trkpt>
      <trkpt lat="44.87636" lon="6.15062">
        <ele>1641.11</ele>
        <time>2013-07-24T11:26:58Z</time>
      </trkpt>
      <trkpt lat="44.87639" lon="6.15058">
        <ele>1639.67</ele>
        <time>2013-07-24T11:27:01Z</time>
      </trkpt>
      <trkpt lat="44.87639" lon="6.15057">
        <ele>1639.67</ele>
        <time>2013-07-24T11:27:02Z</time>
      </trkpt>
      <trkpt lat="44.87643" lon="6.15037">
        <ele>1636.78</ele>
        <time>2013-07-24T11:27:16Z</time>
      </trkpt>
      <trkpt lat="44.87645" lon="6.15032">
        <ele>1636.78</ele>
        <time>2013-07-24T11:27:20Z</time>
      </trkpt>
      <trkpt lat="44.87648" lon="6.15028">
        <ele>1637.26</ele>
        <time>2013-07-24T11:27:24Z</time>
      </trkpt>
      <trkpt lat="44.87647" lon="6.15019">
        <ele>1634.86</ele>
        <time>2013-07-24T11:27:31Z</time>
      </trkpt>
      <trkpt lat="44.87654" lon="6.15012">
        <ele>1633.9</ele>
        <time>2013-07-24T11:27:40Z</time>
      </trkpt>
      <trkpt lat="44.87655" lon="6.15003">
        <ele>1632.46</ele>
        <time>2013-07-24T11:27:47Z</time>
      </trkpt>
      <trkpt lat="44.87658" lon="6.14997">
        <ele>1630.53</ele>
        <time>2013-07-24T11:27:54Z</time>
      </trkpt>
      <trkpt lat="44.87666" lon="6.14988">
        <ele>1628.61</ele>
        <time>2013-07-24T11:28:06Z</time>
      </trkpt>
      <trkpt lat="44.8767" lon="6.14982">
        <ele>1626.21</ele>
        <time>2013-07-24T11:28:12Z</time>
      </trkpt>
      <trkpt lat="44.87674" lon="6.14978">
        <ele>1625.73</ele>
        <time>2013-07-24T11:28:16Z</time>
      </trkpt>
      <trkpt lat="44.87686" lon="6.14972">
        <ele>1625.73</ele>
        <time>2013-07-24T11:28:25Z</time>
      </trkpt>
      <trkpt lat="44.87694" lon="6.14969">
        <ele>1624.28</ele>
        <time>2013-07-24T11:28:32Z</time>
      </trkpt>
      <trkpt lat="44.87713" lon="6.14955">
        <ele>1620.92</ele>
        <time>2013-07-24T11:28:47Z</time>
      </trkpt>
      <trkpt lat="44.87728" lon="6.14944">
        <ele>1619</ele>
        <time>2013-07-24T11:29:01Z</time>
      </trkpt>
      <trkpt lat="44.87738" lon="6.14936">
        <ele>1618.52</ele>
        <time>2013-07-24T11:29:11Z</time>
      </trkpt>
      <trkpt lat="44.87756" lon="6.14916">
        <ele>1616.11</ele>
        <time>2013-07-24T11:29:28Z</time>
      </trkpt>
      <trkpt lat="44.87757" lon="6.14916">
        <ele>1616.11</ele>
        <time>2013-07-24T11:29:29Z</time>
      </trkpt>
      <trkpt lat="44.87762" lon="6.14911">
        <ele>1614.67</ele>
        <time>2013-07-24T11:29:33Z</time>
      </trkpt>
      <trkpt lat="44.87769" lon="6.14897">
        <ele>1614.67</ele>
        <time>2013-07-24T11:29:42Z</time>
      </trkpt>
      <trkpt lat="44.87771" lon="6.14891">
        <ele>1613.71</ele>
        <time>2013-07-24T11:29:46Z</time>
      </trkpt>
      <trkpt lat="44.87776" lon="6.14881">
        <ele>1613.23</ele>
        <time>2013-07-24T11:29:52Z</time>
      </trkpt>
      <trkpt lat="44.87784" lon="6.14867">
        <ele>1611.79</ele>
        <time>2013-07-24T11:30:04Z</time>
      </trkpt>
      <trkpt lat="44.87793" lon="6.14849">
        <ele>1610.83</ele>
        <time>2013-07-24T11:30:17Z</time>
      </trkpt>
      <trkpt lat="44.87795" lon="6.14842">
        <ele>1610.35</ele>
        <time>2013-07-24T11:30:21Z</time>
      </trkpt>
      <trkpt lat="44.87795" lon="6.14839">
        <ele>1609.38</ele>
        <time>2013-07-24T11:30:23Z</time>
      </trkpt>
      <trkpt lat="44.8781" lon="6.14819">
        <ele>1606.98</ele>
        <time>2013-07-24T11:30:40Z</time>
      </trkpt>
      <trkpt lat="44.87816" lon="6.14805">
        <ele>1606.98</ele>
        <time>2013-07-24T11:30:50Z</time>
      </trkpt>
      <trkpt lat="44.87824" lon="6.14791">
        <ele>1604.58</ele>
        <time>2013-07-24T11:31:00Z</time>
      </trkpt>
      <trkpt lat="44.87832" lon="6.14779">
        <ele>1603.62</ele>
        <time>2013-07-24T11:31:09Z</time>
      </trkpt>
      <trkpt lat="44.8784" lon="6.14772">
        <ele>1602.66</ele>
        <time>2013-07-24T11:31:16Z</time>
      </trkpt>
      <trkpt lat="44.87847" lon="6.14754">
        <ele>1601.21</ele>
        <time>2013-07-24T11:31:28Z</time>
      </trkpt>
      <trkpt lat="44.87855" lon="6.14749">
        <ele>1599.77</ele>
        <time>2013-07-24T11:31:35Z</time>
      </trkpt>
      <trkpt lat="44.87858" lon="6.1475">
        <ele>1598.81</ele>
        <time>2013-07-24T11:31:37Z</time>
      </trkpt>
      <trkpt lat="44.87862" lon="6.14748">
        <ele>1600.25</ele>
        <time>2013-07-24T11:31:40Z</time>
      </trkpt>
      <trkpt lat="44.87869" lon="6.14743">
        <ele>1599.29</ele>
        <time>2013-07-24T11:31:45Z</time>
      </trkpt>
      <trkpt lat="44.87873" lon="6.14735">
        <ele>1597.85</ele>
        <time>2013-07-24T11:31:50Z</time>
      </trkpt>
      <trkpt lat="44.87877" lon="6.14722">
        <ele>1597.85</ele>
        <time>2013-07-24T11:31:57Z</time>
      </trkpt>
      <trkpt lat="44.87878" lon="6.14719">
        <ele>1597.37</ele>
        <time>2013-07-24T11:31:59Z</time>
      </trkpt>
      <trkpt lat="44.87888" lon="6.14698">
        <ele>1595.93</ele>
        <time>2013-07-24T11:32:14Z</time>
      </trkpt>
      <trkpt lat="44.87895" lon="6.14686">
        <ele>1594.96</ele>
        <time>2013-07-24T11:32:23Z</time>
      </trkpt>
      <trkpt lat="44.87898" lon="6.14684">
        <ele>1594.96</ele>
        <time>2013-07-24T11:32:26Z</time>
      </trkpt>
      <trkpt lat="44.87913" lon="6.14668">
        <ele>1593.04</ele>
        <time>2013-07-24T11:32:42Z</time>
      </trkpt>
      <trkpt lat="44.87919" lon="6.14661">
        <ele>1593.04</ele>
        <time>2013-07-24T11:32:49Z</time>
      </trkpt>
      <trkpt lat="44.87928" lon="6.14654">
        <ele>1591.6</ele>
        <time>2013-07-24T11:32:58Z</time>
      </trkpt>
      <trkpt lat="44.8793" lon="6.14652">
        <ele>1592.08</ele>
        <time>2013-07-24T11:33:00Z</time>
      </trkpt>
      <trkpt lat="44.87932" lon="6.14643">
        <ele>1592.08</ele>
        <time>2013-07-24T11:33:05Z</time>
      </trkpt>
      <trkpt lat="44.87931" lon="6.14637">
        <ele>1592.08</ele>
        <time>2013-07-24T11:33:08Z</time>
      </trkpt>
      <trkpt lat="44.87933" lon="6.14627">
        <ele>1591.12</ele>
        <time>2013-07-24T11:33:14Z</time>
      </trkpt>
      <trkpt lat="44.87936" lon="6.14615">
        <ele>1590.64</ele>
        <time>2013-07-24T11:33:21Z</time>
      </trkpt>
      <trkpt lat="44.87936" lon="6.14611">
        <ele>1589.68</ele>
        <time>2013-07-24T11:33:23Z</time>
      </trkpt>
      <trkpt lat="44.87937" lon="6.14606">
        <ele>1589.2</ele>
        <time>2013-07-24T11:33:26Z</time>
      </trkpt>
      <trkpt lat="44.87943" lon="6.14597">
        <ele>1588.72</ele>
        <time>2013-07-24T11:33:32Z</time>
      </trkpt>
      <trkpt lat="44.87951" lon="6.14585">
        <ele>1586.79</ele>
        <time>2013-07-24T11:33:43Z</time>
      </trkpt>
      <trkpt lat="44.87958" lon="6.1458">
        <ele>1586.79</ele>
        <time>2013-07-24T11:33:50Z</time>
      </trkpt>
      <trkpt lat="44.87971" lon="6.14573">
        <ele>1586.79</ele>
        <time>2013-07-24T11:34:03Z</time>
      </trkpt>
      <trkpt lat="44.87971" lon="6.14567">
        <ele>1586.79</ele>
        <time>2013-07-24T11:34:18Z</time>
      </trkpt>
      <trkpt lat="44.87968" lon="6.14563">
        <ele>1586.31</ele>
        <time>2013-07-24T11:34:40Z</time>
      </trkpt>
      <trkpt lat="44.87965" lon="6.14556">
        <ele>1586.31</ele>
        <time>2013-07-24T11:35:07Z</time>
      </trkpt>
      <trkpt lat="44.87968" lon="6.14559">
        <ele>1585.83</ele>
        <time>2013-07-24T11:36:16Z</time>
      </trkpt>
      <trkpt lat="44.87968" lon="6.14559">
        <ele>1585.83</ele>
        <time>2013-07-24T11:36:50Z</time>
      </trkpt>
      <trkpt lat="44.87969" lon="6.14558">
        <ele>1586.31</ele>
        <time>2013-07-24T11:36:58Z</time>
      </trkpt>
      <trkpt lat="44.87968" lon="6.14557">
        <ele>1585.35</ele>
        <time>2013-07-24T11:37:30Z</time>
      </trkpt>
      <trkpt lat="44.87968" lon="6.14556">
        <ele>1584.87</ele>
        <time>2013-07-24T11:37:52Z</time>
      </trkpt>
      <trkpt lat="44.87972" lon="6.14554">
        <ele>1585.35</ele>
        <time>2013-07-24T11:38:03Z</time>
      </trkpt>
      <trkpt lat="44.87976" lon="6.14553">
        <ele>1583.91</ele>
        <time>2013-07-24T11:38:06Z</time>
      </trkpt>
      <trkpt lat="44.87981" lon="6.14554">
        <ele>1584.39</ele>
        <time>2013-07-24T11:38:10Z</time>
      </trkpt>
      <trkpt lat="44.87984" lon="6.14547">
        <ele>1583.43</ele>
        <time>2013-07-24T11:38:15Z</time>
      </trkpt>
      <trkpt lat="44.87984" lon="6.14541">
        <ele>1583.43</ele>
        <time>2013-07-24T11:38:18Z</time>
      </trkpt>
      <trkpt lat="44.87991" lon="6.14535">
        <ele>1582.95</ele>
        <time>2013-07-24T11:38:25Z</time>
      </trkpt>
      <trkpt lat="44.87994" lon="6.14518">
        <ele>1582.47</ele>
        <time>2013-07-24T11:38:38Z</time>
      </trkpt>
      <trkpt lat="44.88012" lon="6.14504">
        <ele>1581.03</ele>
        <time>2013-07-24T11:38:54Z</time>
      </trkpt>
      <trkpt lat="44.88018" lon="6.14491">
        <ele>1580.54</ele>
        <time>2013-07-24T11:39:02Z</time>
      </trkpt>
      <trkpt lat="44.88021" lon="6.14482">
        <ele>1580.54</ele>
        <time>2013-07-24T11:39:07Z</time>
      </trkpt>
      <trkpt lat="44.8803" lon="6.14455">
        <ele>1579.1</ele>
        <time>2013-07-24T11:39:24Z</time>
      </trkpt>
      <trkpt lat="44.88047" lon="6.14442">
        <ele>1578.62</ele>
        <time>2013-07-24T11:39:40Z</time>
      </trkpt>
      <trkpt lat="44.88059" lon="6.14439">
        <ele>1578.62</ele>
        <time>2013-07-24T11:39:50Z</time>
      </trkpt>
      <trkpt lat="44.88065" lon="6.1443">
        <ele>1578.14</ele>
        <time>2013-07-24T11:39:56Z</time>
      </trkpt>
      <trkpt lat="44.88067" lon="6.14428">
        <ele>1577.66</ele>
        <time>2013-07-24T11:39:58Z</time>
      </trkpt>
      <trkpt lat="44.88077" lon="6.14425">
        <ele>1578.62</ele>
        <time>2013-07-24T11:40:05Z</time>
      </trkpt>
      <trkpt lat="44.88088" lon="6.14415">
        <ele>1577.66</ele>
        <time>2013-07-24T11:40:16Z</time>
      </trkpt>
      <trkpt lat="44.88095" lon="6.14411">
        <ele>1578.14</ele>
        <time>2013-07-24T11:40:20Z</time>
      </trkpt>
      <trkpt lat="44.88101" lon="6.14407">
        <ele>1577.66</ele>
        <time>2013-07-24T11:40:26Z</time>
      </trkpt>
      <trkpt lat="44.88108" lon="6.14396">
        <ele>1577.66</ele>
        <time>2013-07-24T11:40:33Z</time>
      </trkpt>
      <trkpt lat="44.88112" lon="6.1438">
        <ele>1577.18</ele>
        <time>2013-07-24T11:40:43Z</time>
      </trkpt>
      <trkpt lat="44.88113" lon="6.14374">
        <ele>1577.66</ele>
        <time>2013-07-24T11:40:46Z</time>
      </trkpt>
      <trkpt lat="44.88115" lon="6.14369">
        <ele>1578.14</ele>
        <time>2013-07-24T11:40:50Z</time>
      </trkpt>
      <trkpt lat="44.88124" lon="6.14363">
        <ele>1575.74</ele>
        <time>2013-07-24T11:41:00Z</time>
      </trkpt>
      <trkpt lat="44.8813" lon="6.14358">
        <ele>1575.26</ele>
        <time>2013-07-24T11:41:15Z</time>
      </trkpt>
      <trkpt lat="44.88131" lon="6.14356">
        <ele>1574.3</ele>
        <time>2013-07-24T11:41:22Z</time>
      </trkpt>
      <trkpt lat="44.88134" lon="6.14347">
        <ele>1574.78</ele>
        <time>2013-07-24T11:41:29Z</time>
      </trkpt>
      <trkpt lat="44.88135" lon="6.14344">
        <ele>1573.82</ele>
        <time>2013-07-24T11:41:31Z</time>
      </trkpt>
      <trkpt lat="44.88136" lon="6.14341">
        <ele>1574.3</ele>
        <time>2013-07-24T11:41:33Z</time>
      </trkpt>
      <trkpt lat="44.88139" lon="6.14334">
        <ele>1573.82</ele>
        <time>2013-07-24T11:41:37Z</time>
      </trkpt>
      <trkpt lat="44.88142" lon="6.1433">
        <ele>1573.33</ele>
        <time>2013-07-24T11:41:40Z</time>
      </trkpt>
      <trkpt lat="44.88146" lon="6.14325">
        <ele>1572.85</ele>
        <time>2013-07-24T11:41:44Z</time>
      </trkpt>
      <trkpt lat="44.88149" lon="6.14324">
        <ele>1572.37</ele>
        <time>2013-07-24T11:41:46Z</time>
      </trkpt>
      <trkpt lat="44.88156" lon="6.14317">
        <ele>1571.89</ele>
        <time>2013-07-24T11:41:52Z</time>
      </trkpt>
      <trkpt lat="44.8816" lon="6.14312">
        <ele>1571.41</ele>
        <time>2013-07-24T11:41:56Z</time>
      </trkpt>
      <trkpt lat="44.88164" lon="6.1431">
        <ele>1569.97</ele>
        <time>2013-07-24T11:41:59Z</time>
      </trkpt>
      <trkpt lat="44.88165" lon="6.14307">
        <ele>1568.05</ele>
        <time>2013-07-24T11:42:01Z</time>
      </trkpt>
      <trkpt lat="44.8817" lon="6.143">
        <ele>1569.01</ele>
        <time>2013-07-24T11:42:06Z</time>
      </trkpt>
      <trkpt lat="44.88176" lon="6.14295">
        <ele>1567.57</ele>
        <time>2013-07-24T11:42:11Z</time>
      </trkpt>
      <trkpt lat="44.88178" lon="6.14292">
        <ele>1568.53</ele>
        <time>2013-07-24T11:42:13Z</time>
      </trkpt>
      <trkpt lat="44.88184" lon="6.14285">
        <ele>1567.57</ele>
        <time>2013-07-24T11:42:19Z</time>
      </trkpt>
      <trkpt lat="44.8819" lon="6.14282">
        <ele>1566.12</ele>
        <time>2013-07-24T11:42:24Z</time>
      </trkpt>
      <trkpt lat="44.88196" lon="6.14269">
        <ele>1565.64</ele>
        <time>2013-07-24T11:42:32Z</time>
      </trkpt>
      <trkpt lat="44.88197" lon="6.14268">
        <ele>1566.12</ele>
        <time>2013-07-24T11:42:33Z</time>
      </trkpt>
      <trkpt lat="44.88196" lon="6.14256">
        <ele>1565.16</ele>
        <time>2013-07-24T11:42:40Z</time>
      </trkpt>
      <trkpt lat="44.88196" lon="6.14252">
        <ele>1564.2</ele>
        <time>2013-07-24T11:42:42Z</time>
      </trkpt>
      <trkpt lat="44.88198" lon="6.14244">
        <ele>1564.2</ele>
        <time>2013-07-24T11:42:47Z</time>
      </trkpt>
      <trkpt lat="44.882" lon="6.14229">
        <ele>1564.2</ele>
        <time>2013-07-24T11:42:54Z</time>
      </trkpt>
      <trkpt lat="44.88203" lon="6.14207">
        <ele>1562.76</ele>
        <time>2013-07-24T11:43:05Z</time>
      </trkpt>
      <trkpt lat="44.88204" lon="6.14191">
        <ele>1562.76</ele>
        <time>2013-07-24T11:43:14Z</time>
      </trkpt>
      <trkpt lat="44.88205" lon="6.14185">
        <ele>1562.76</ele>
        <time>2013-07-24T11:43:17Z</time>
      </trkpt>
      <trkpt lat="44.882" lon="6.14175">
        <ele>1562.76</ele>
        <time>2013-07-24T11:43:24Z</time>
      </trkpt>
      <trkpt lat="44.88198" lon="6.14168">
        <ele>1561.8</ele>
        <time>2013-07-24T11:43:28Z</time>
      </trkpt>
      <trkpt lat="44.88195" lon="6.14161">
        <ele>1562.28</ele>
        <time>2013-07-24T11:43:32Z</time>
      </trkpt>
      <trkpt lat="44.88191" lon="6.14154">
        <ele>1562.28</ele>
        <time>2013-07-24T11:43:36Z</time>
      </trkpt>
      <trkpt lat="44.88189" lon="6.14134">
        <ele>1561.32</ele>
        <time>2013-07-24T11:43:46Z</time>
      </trkpt>
      <trkpt lat="44.88186" lon="6.14127">
        <ele>1560.84</ele>
        <time>2013-07-24T11:43:51Z</time>
      </trkpt>
      <trkpt lat="44.88182" lon="6.14124">
        <ele>1560.36</ele>
        <time>2013-07-24T11:43:55Z</time>
      </trkpt>
      <trkpt lat="44.88176" lon="6.14104">
        <ele>1558.92</ele>
        <time>2013-07-24T11:44:07Z</time>
      </trkpt>
      <trkpt lat="44.88178" lon="6.14085">
        <ele>1557.95</ele>
        <time>2013-07-24T11:44:16Z</time>
      </trkpt>
      <trkpt lat="44.88179" lon="6.14076">
        <ele>1557.95</ele>
        <time>2013-07-24T11:44:21Z</time>
      </trkpt>
      <trkpt lat="44.88178" lon="6.14068">
        <ele>1557.95</ele>
        <time>2013-07-24T11:44:26Z</time>
      </trkpt>
      <trkpt lat="44.88177" lon="6.14063">
        <ele>1557.95</ele>
        <time>2013-07-24T11:44:29Z</time>
      </trkpt>
      <trkpt lat="44.8818" lon="6.14054">
        <ele>1556.99</ele>
        <time>2013-07-24T11:44:35Z</time>
      </trkpt>
      <trkpt lat="44.88181" lon="6.14052">
        <ele>1557.47</ele>
        <time>2013-07-24T11:44:37Z</time>
      </trkpt>
      <trkpt lat="44.88182" lon="6.1405">
        <ele>1557.47</ele>
        <time>2013-07-24T11:44:39Z</time>
      </trkpt>
      <trkpt lat="44.88182" lon="6.1403">
        <ele>1557.47</ele>
        <time>2013-07-24T11:44:50Z</time>
      </trkpt>
      <trkpt lat="44.88184" lon="6.1402">
        <ele>1556.99</ele>
        <time>2013-07-24T11:44:57Z</time>
      </trkpt>
      <trkpt lat="44.88184" lon="6.14008">
        <ele>1556.03</ele>
        <time>2013-07-24T11:45:04Z</time>
      </trkpt>
      <trkpt lat="44.88185" lon="6.14003">
        <ele>1556.51</ele>
        <time>2013-07-24T11:45:07Z</time>
      </trkpt>
      <trkpt lat="44.88186" lon="6.13995">
        <ele>1556.03</ele>
        <time>2013-07-24T11:45:12Z</time>
      </trkpt>
      <trkpt lat="44.88186" lon="6.13989">
        <ele>1555.07</ele>
        <time>2013-07-24T11:45:16Z</time>
      </trkpt>
      <trkpt lat="44.88187" lon="6.13984">
        <ele>1554.59</ele>
        <time>2013-07-24T11:45:18Z</time>
      </trkpt>
      <trkpt lat="44.88188" lon="6.13973">
        <ele>1553.63</ele>
        <time>2013-07-24T11:45:24Z</time>
      </trkpt>
      <trkpt lat="44.88195" lon="6.13949">
        <ele>1552.19</ele>
        <time>2013-07-24T11:45:38Z</time>
      </trkpt>
      <trkpt lat="44.88196" lon="6.13943">
        <ele>1551.71</ele>
        <time>2013-07-24T11:45:41Z</time>
      </trkpt>
      <trkpt lat="44.88197" lon="6.13935">
        <ele>1552.19</ele>
        <time>2013-07-24T11:45:45Z</time>
      </trkpt>
      <trkpt lat="44.88195" lon="6.13926">
        <ele>1552.67</ele>
        <time>2013-07-24T11:45:50Z</time>
      </trkpt>
      <trkpt lat="44.88194" lon="6.13919">
        <ele>1553.63</ele>
        <time>2013-07-24T11:45:54Z</time>
      </trkpt>
      <trkpt lat="44.88191" lon="6.13914">
        <ele>1552.67</ele>
        <time>2013-07-24T11:45:57Z</time>
      </trkpt>
      <trkpt lat="44.8819" lon="6.13903">
        <ele>1551.71</ele>
        <time>2013-07-24T11:46:03Z</time>
      </trkpt>
      <trkpt lat="44.88189" lon="6.13895">
        <ele>1550.26</ele>
        <time>2013-07-24T11:46:07Z</time>
      </trkpt>
      <trkpt lat="44.88188" lon="6.13888">
        <ele>1550.26</ele>
        <time>2013-07-24T11:46:11Z</time>
      </trkpt>
      <trkpt lat="44.88199" lon="6.1386">
        <ele>1548.82</ele>
        <time>2013-07-24T11:46:27Z</time>
      </trkpt>
      <trkpt lat="44.88207" lon="6.13842">
        <ele>1547.38</ele>
        <time>2013-07-24T11:46:38Z</time>
      </trkpt>
      <trkpt lat="44.88211" lon="6.13834">
        <ele>1547.38</ele>
        <time>2013-07-24T11:46:43Z</time>
      </trkpt>
      <trkpt lat="44.88214" lon="6.13825">
        <ele>1546.42</ele>
        <time>2013-07-24T11:46:49Z</time>
      </trkpt>
      <trkpt lat="44.88216" lon="6.13817">
        <ele>1546.42</ele>
        <time>2013-07-24T11:46:53Z</time>
      </trkpt>
      <trkpt lat="44.88218" lon="6.1381">
        <ele>1544.98</ele>
        <time>2013-07-24T11:46:57Z</time>
      </trkpt>
      <trkpt lat="44.88221" lon="6.13798">
        <ele>1544.01</ele>
        <time>2013-07-24T11:47:04Z</time>
      </trkpt>
      <trkpt lat="44.88224" lon="6.13784">
        <ele>1543.53</ele>
        <time>2013-07-24T11:47:12Z</time>
      </trkpt>
      <trkpt lat="44.88227" lon="6.13777">
        <ele>1544.01</ele>
        <time>2013-07-24T11:47:16Z</time>
      </trkpt>
      <trkpt lat="44.88228" lon="6.13774">
        <ele>1543.53</ele>
        <time>2013-07-24T11:47:18Z</time>
      </trkpt>
      <trkpt lat="44.88233" lon="6.13765">
        <ele>1543.53</ele>
        <time>2013-07-24T11:47:24Z</time>
      </trkpt>
      <trkpt lat="44.88247" lon="6.13737">
        <ele>1542.09</ele>
        <time>2013-07-24T11:47:42Z</time>
      </trkpt>
      <trkpt lat="44.8825" lon="6.1373">
        <ele>1541.13</ele>
        <time>2013-07-24T11:47:47Z</time>
      </trkpt>
      <trkpt lat="44.88255" lon="6.13718">
        <ele>1541.13</ele>
        <time>2013-07-24T11:47:55Z</time>
      </trkpt>
      <trkpt lat="44.88258" lon="6.13708">
        <ele>1540.65</ele>
        <time>2013-07-24T11:48:02Z</time>
      </trkpt>
      <trkpt lat="44.88262" lon="6.13696">
        <ele>1540.17</ele>
        <time>2013-07-24T11:48:09Z</time>
      </trkpt>
      <trkpt lat="44.8827" lon="6.13688">
        <ele>1540.65</ele>
        <time>2013-07-24T11:48:17Z</time>
      </trkpt>
      <trkpt lat="44.88278" lon="6.13682">
        <ele>1539.69</ele>
        <time>2013-07-24T11:48:24Z</time>
      </trkpt>
      <trkpt lat="44.88286" lon="6.13679">
        <ele>1538.73</ele>
        <time>2013-07-24T11:48:30Z</time>
      </trkpt>
      <trkpt lat="44.88288" lon="6.13675">
        <ele>1539.21</ele>
        <time>2013-07-24T11:48:33Z</time>
      </trkpt>
      <trkpt lat="44.88291" lon="6.13671">
        <ele>1537.77</ele>
        <time>2013-07-24T11:48:36Z</time>
      </trkpt>
      <trkpt lat="44.88295" lon="6.13669">
        <ele>1536.32</ele>
        <time>2013-07-24T11:48:40Z</time>
      </trkpt>
      <trkpt lat="44.88314" lon="6.13663">
        <ele>1534.88</ele>
        <time>2013-07-24T11:48:54Z</time>
      </trkpt>
      <trkpt lat="44.88319" lon="6.13659">
        <ele>1536.32</ele>
        <time>2013-07-24T11:48:58Z</time>
      </trkpt>
      <trkpt lat="44.88331" lon="6.13647">
        <ele>1534.4</ele>
        <time>2013-07-24T11:49:08Z</time>
      </trkpt>
      <trkpt lat="44.88339" lon="6.1363">
        <ele>1532.96</ele>
        <time>2013-07-24T11:49:20Z</time>
      </trkpt>
      <trkpt lat="44.88346" lon="6.13623">
        <ele>1532.48</ele>
        <time>2013-07-24T11:49:27Z</time>
      </trkpt>
      <trkpt lat="44.8836" lon="6.13617">
        <ele>1531.04</ele>
        <time>2013-07-24T11:49:38Z</time>
      </trkpt>
      <trkpt lat="44.88373" lon="6.13601">
        <ele>1531.04</ele>
        <time>2013-07-24T11:49:51Z</time>
      </trkpt>
      <trkpt lat="44.88375" lon="6.13596">
        <ele>1530.56</ele>
        <time>2013-07-24T11:49:54Z</time>
      </trkpt>
      <trkpt lat="44.8838" lon="6.13589">
        <ele>1530.08</ele>
        <time>2013-07-24T11:49:59Z</time>
      </trkpt>
      <trkpt lat="44.88388" lon="6.13565">
        <ele>1529.11</ele>
        <time>2013-07-24T11:50:13Z</time>
      </trkpt>
      <trkpt lat="44.8839" lon="6.13558">
        <ele>1527.67</ele>
        <time>2013-07-24T11:50:18Z</time>
      </trkpt>
      <trkpt lat="44.88391" lon="6.13552">
        <ele>1526.23</ele>
        <time>2013-07-24T11:50:22Z</time>
      </trkpt>
      <trkpt lat="44.88394" lon="6.13541">
        <ele>1524.31</ele>
        <time>2013-07-24T11:50:29Z</time>
      </trkpt>
      <trkpt lat="44.88395" lon="6.13534">
        <ele>1523.83</ele>
        <time>2013-07-24T11:50:32Z</time>
      </trkpt>
      <trkpt lat="44.88395" lon="6.13524">
        <ele>1522.39</ele>
        <time>2013-07-24T11:50:38Z</time>
      </trkpt>
      <trkpt lat="44.88395" lon="6.13513">
        <ele>1520.46</ele>
        <time>2013-07-24T11:50:44Z</time>
      </trkpt>
      <trkpt lat="44.884" lon="6.13496">
        <ele>1518.06</ele>
        <time>2013-07-24T11:50:55Z</time>
      </trkpt>
      <trkpt lat="44.88402" lon="6.13488">
        <ele>1517.1</ele>
        <time>2013-07-24T11:50:59Z</time>
      </trkpt>
      <trkpt lat="44.88402" lon="6.13463">
        <ele>1514.69</ele>
        <time>2013-07-24T11:51:11Z</time>
      </trkpt>
      <trkpt lat="44.88406" lon="6.13454">
        <ele>1514.21</ele>
        <time>2013-07-24T11:51:17Z</time>
      </trkpt>
      <trkpt lat="44.8841" lon="6.13444">
        <ele>1513.73</ele>
        <time>2013-07-24T11:51:23Z</time>
      </trkpt>
      <trkpt lat="44.88418" lon="6.13421">
        <ele>1514.69</ele>
        <time>2013-07-24T11:51:36Z</time>
      </trkpt>
      <trkpt lat="44.8842" lon="6.13412">
        <ele>1513.73</ele>
        <time>2013-07-24T11:51:41Z</time>
      </trkpt>
      <trkpt lat="44.88421" lon="6.13406">
        <ele>1513.25</ele>
        <time>2013-07-24T11:51:44Z</time>
      </trkpt>
      <trkpt lat="44.88423" lon="6.13378">
        <ele>1510.85</ele>
        <time>2013-07-24T11:52:00Z</time>
      </trkpt>
      <trkpt lat="44.88423" lon="6.13376">
        <ele>1510.85</ele>
        <time>2013-07-24T11:52:01Z</time>
      </trkpt>
      <trkpt lat="44.8842" lon="6.13357">
        <ele>1507</ele>
        <time>2013-07-24T11:52:11Z</time>
      </trkpt>
      <trkpt lat="44.8842" lon="6.13356">
        <ele>1507.48</ele>
        <time>2013-07-24T11:52:12Z</time>
      </trkpt>
      <trkpt lat="44.8842" lon="6.13354">
        <ele>1507.48</ele>
        <time>2013-07-24T11:52:13Z</time>
      </trkpt>
      <trkpt lat="44.88417" lon="6.13345">
        <ele>1505.08</ele>
        <time>2013-07-24T11:52:19Z</time>
      </trkpt>
      <trkpt lat="44.88408" lon="6.13323">
        <ele>1501.72</ele>
        <time>2013-07-24T11:52:34Z</time>
      </trkpt>
      <trkpt lat="44.88408" lon="6.13311">
        <ele>1500.76</ele>
        <time>2013-07-24T11:52:49Z</time>
      </trkpt>
      <trkpt lat="44.88409" lon="6.13317">
        <ele>1500.76</ele>
        <time>2013-07-24T11:53:00Z</time>
      </trkpt>
      <trkpt lat="44.88408" lon="6.13325">
        <ele>1500.76</ele>
        <time>2013-07-24T11:53:13Z</time>
      </trkpt>
      <trkpt lat="44.88408" lon="6.13326">
        <ele>1499.79</ele>
        <time>2013-07-24T11:55:09Z</time>
      </trkpt>
      <trkpt lat="44.88406" lon="6.13319">
        <ele>1500.27</ele>
        <time>2013-07-24T11:55:24Z</time>
      </trkpt>
      <trkpt lat="44.88406" lon="6.13314">
        <ele>1499.79</ele>
        <time>2013-07-24T11:55:43Z</time>
      </trkpt>
      <trkpt lat="44.88406" lon="6.13319">
        <ele>1500.27</ele>
        <time>2013-07-24T11:56:04Z</time>
      </trkpt>
      <trkpt lat="44.88408" lon="6.1332">
        <ele>1500.27</ele>
        <time>2013-07-24T11:56:24Z</time>
      </trkpt>
      <trkpt lat="44.88405" lon="6.13314">
        <ele>1499.79</ele>
        <time>2013-07-24T11:56:54Z</time>
      </trkpt>
      <trkpt lat="44.88405" lon="6.13309">
        <ele>1497.87</ele>
        <time>2013-07-24T11:56:57Z</time>
      </trkpt>
      <trkpt lat="44.88404" lon="6.13296">
        <ele>1496.91</ele>
        <time>2013-07-24T11:57:10Z</time>
      </trkpt>
      <trkpt lat="44.88408" lon="6.13285">
        <ele>1494.99</ele>
        <time>2013-07-24T11:57:26Z</time>
      </trkpt>
      <trkpt lat="44.88409" lon="6.1328">
        <ele>1494.99</ele>
        <time>2013-07-24T11:57:30Z</time>
      </trkpt>
      <trkpt lat="44.88409" lon="6.13277">
        <ele>1494.99</ele>
        <time>2013-07-24T11:57:32Z</time>
      </trkpt>
      <trkpt lat="44.88409" lon="6.13263">
        <ele>1492.58</ele>
        <time>2013-07-24T11:57:49Z</time>
      </trkpt>
      <trkpt lat="44.88408" lon="6.1326">
        <ele>1493.55</ele>
        <time>2013-07-24T11:57:52Z</time>
      </trkpt>
      <trkpt lat="44.88408" lon="6.13251">
        <ele>1492.1</ele>
        <time>2013-07-24T11:57:58Z</time>
      </trkpt>
      <trkpt lat="44.8841" lon="6.13237">
        <ele>1489.7</ele>
        <time>2013-07-24T11:58:07Z</time>
      </trkpt>
      <trkpt lat="44.8841" lon="6.13232">
        <ele>1488.74</ele>
        <time>2013-07-24T11:58:10Z</time>
      </trkpt>
      <trkpt lat="44.88413" lon="6.13205">
        <ele>1486.34</ele>
        <time>2013-07-24T11:58:25Z</time>
      </trkpt>
      <trkpt lat="44.88413" lon="6.13204">
        <ele>1486.34</ele>
        <time>2013-07-24T11:58:26Z</time>
      </trkpt>
      <trkpt lat="44.88413" lon="6.13197">
        <ele>1486.34</ele>
        <time>2013-07-24T11:58:29Z</time>
      </trkpt>
      <trkpt lat="44.88415" lon="6.13188">
        <ele>1484.89</ele>
        <time>2013-07-24T11:58:34Z</time>
      </trkpt>
      <trkpt lat="44.88416" lon="6.1318">
        <ele>1483.45</ele>
        <time>2013-07-24T11:58:38Z</time>
      </trkpt>
      <trkpt lat="44.88416" lon="6.13176">
        <ele>1483.93</ele>
        <time>2013-07-24T11:58:40Z</time>
      </trkpt>
      <trkpt lat="44.88417" lon="6.13162">
        <ele>1482.49</ele>
        <time>2013-07-24T11:58:48Z</time>
      </trkpt>
      <trkpt lat="44.88417" lon="6.13159">
        <ele>1482.01</ele>
        <time>2013-07-24T11:58:50Z</time>
      </trkpt>
      <trkpt lat="44.88416" lon="6.13149">
        <ele>1481.05</ele>
        <time>2013-07-24T11:58:55Z</time>
      </trkpt>
      <trkpt lat="44.88414" lon="6.13132">
        <ele>1479.61</ele>
        <time>2013-07-24T11:59:04Z</time>
      </trkpt>
      <trkpt lat="44.88416" lon="6.1312">
        <ele>1478.65</ele>
        <time>2013-07-24T11:59:12Z</time>
      </trkpt>
      <trkpt lat="44.88417" lon="6.13108">
        <ele>1477.2</ele>
        <time>2013-07-24T11:59:19Z</time>
      </trkpt>
      <trkpt lat="44.88415" lon="6.13102">
        <ele>1476.72</ele>
        <time>2013-07-24T11:59:22Z</time>
      </trkpt>
      <trkpt lat="44.88415" lon="6.13094">
        <ele>1475.76</ele>
        <time>2013-07-24T11:59:26Z</time>
      </trkpt>
      <trkpt lat="44.88414" lon="6.13084">
        <ele>1475.76</ele>
        <time>2013-07-24T11:59:31Z</time>
      </trkpt>
      <trkpt lat="44.88412" lon="6.13079">
        <ele>1474.8</ele>
        <time>2013-07-24T11:59:34Z</time>
      </trkpt>
      <trkpt lat="44.8841" lon="6.13067">
        <ele>1473.84</ele>
        <time>2013-07-24T11:59:40Z</time>
      </trkpt>
      <trkpt lat="44.8841" lon="6.13063">
        <ele>1473.36</ele>
        <time>2013-07-24T11:59:42Z</time>
      </trkpt>
      <trkpt lat="44.88409" lon="6.13053">
        <ele>1472.4</ele>
        <time>2013-07-24T11:59:47Z</time>
      </trkpt>
      <trkpt lat="44.88408" lon="6.13047">
        <ele>1472.4</ele>
        <time>2013-07-24T11:59:50Z</time>
      </trkpt>
      <trkpt lat="44.88403" lon="6.13032">
        <ele>1472.4</ele>
        <time>2013-07-24T11:59:58Z</time>
      </trkpt>
      <trkpt lat="44.88401" lon="6.13023">
        <ele>1471.92</ele>
        <time>2013-07-24T12:00:03Z</time>
      </trkpt>
      <trkpt lat="44.88403" lon="6.13017">
        <ele>1471.92</ele>
        <time>2013-07-24T12:00:07Z</time>
      </trkpt>
      <trkpt lat="44.88405" lon="6.13">
        <ele>1470.47</ele>
        <time>2013-07-24T12:00:17Z</time>
      </trkpt>
      <trkpt lat="44.88402" lon="6.1299">
        <ele>1469.51</ele>
        <time>2013-07-24T12:00:23Z</time>
      </trkpt>
      <trkpt lat="44.88395" lon="6.1298">
        <ele>1468.55</ele>
        <time>2013-07-24T12:00:31Z</time>
      </trkpt>
      <trkpt lat="44.88392" lon="6.1297">
        <ele>1467.11</ele>
        <time>2013-07-24T12:00:37Z</time>
      </trkpt>
      <trkpt lat="44.8839" lon="6.12957">
        <ele>1466.15</ele>
        <time>2013-07-24T12:00:44Z</time>
      </trkpt>
      <trkpt lat="44.8839" lon="6.12954">
        <ele>1465.67</ele>
        <time>2013-07-24T12:00:46Z</time>
      </trkpt>
      <trkpt lat="44.88396" lon="6.12937">
        <ele>1464.71</ele>
        <time>2013-07-24T12:00:56Z</time>
      </trkpt>
      <trkpt lat="44.88397" lon="6.12924">
        <ele>1465.67</ele>
        <time>2013-07-24T12:01:02Z</time>
      </trkpt>
      <trkpt lat="44.88399" lon="6.12919">
        <ele>1464.71</ele>
        <time>2013-07-24T12:01:05Z</time>
      </trkpt>
      <trkpt lat="44.884" lon="6.12903">
        <ele>1465.19</ele>
        <time>2013-07-24T12:01:15Z</time>
      </trkpt>
      <trkpt lat="44.88396" lon="6.12894">
        <ele>1464.23</ele>
        <time>2013-07-24T12:01:21Z</time>
      </trkpt>
      <trkpt lat="44.88393" lon="6.12886">
        <ele>1463.74</ele>
        <time>2013-07-24T12:01:26Z</time>
      </trkpt>
      <trkpt lat="44.88392" lon="6.12883">
        <ele>1462.78</ele>
        <time>2013-07-24T12:01:28Z</time>
      </trkpt>
      <trkpt lat="44.88389" lon="6.12874">
        <ele>1462.78</ele>
        <time>2013-07-24T12:01:34Z</time>
      </trkpt>
      <trkpt lat="44.88383" lon="6.12851">
        <ele>1462.78</ele>
        <time>2013-07-24T12:01:47Z</time>
      </trkpt>
      <trkpt lat="44.88379" lon="6.12841">
        <ele>1462.3</ele>
        <time>2013-07-24T12:01:52Z</time>
      </trkpt>
      <trkpt lat="44.88378" lon="6.12835">
        <ele>1462.78</ele>
        <time>2013-07-24T12:01:55Z</time>
      </trkpt>
      <trkpt lat="44.88374" lon="6.12829">
        <ele>1462.3</ele>
        <time>2013-07-24T12:02:00Z</time>
      </trkpt>
      <trkpt lat="44.88374" lon="6.12823">
        <ele>1463.26</ele>
        <time>2013-07-24T12:02:03Z</time>
      </trkpt>
      <trkpt lat="44.88369" lon="6.12812">
        <ele>1462.3</ele>
        <time>2013-07-24T12:02:10Z</time>
      </trkpt>
      <trkpt lat="44.88364" lon="6.12809">
        <ele>1461.82</ele>
        <time>2013-07-24T12:02:13Z</time>
      </trkpt>
      <trkpt lat="44.8836" lon="6.12803">
        <ele>1461.82</ele>
        <time>2013-07-24T12:02:17Z</time>
      </trkpt>
      <trkpt lat="44.88359" lon="6.12799">
        <ele>1461.34</ele>
        <time>2013-07-24T12:02:19Z</time>
      </trkpt>
      <trkpt lat="44.88353" lon="6.12794">
        <ele>1461.82</ele>
        <time>2013-07-24T12:02:24Z</time>
      </trkpt>
      <trkpt lat="44.88344" lon="6.12775">
        <ele>1459.9</ele>
        <time>2013-07-24T12:02:34Z</time>
      </trkpt>
      <trkpt lat="44.88336" lon="6.12752">
        <ele>1460.38</ele>
        <time>2013-07-24T12:02:49Z</time>
      </trkpt>
      <trkpt lat="44.88328" lon="6.1274">
        <ele>1458.94</ele>
        <time>2013-07-24T12:02:58Z</time>
      </trkpt>
      <trkpt lat="44.88325" lon="6.12734">
        <ele>1458.94</ele>
        <time>2013-07-24T12:03:03Z</time>
      </trkpt>
      <trkpt lat="44.88323" lon="6.12721">
        <ele>1457.02</ele>
        <time>2013-07-24T12:03:09Z</time>
      </trkpt>
      <trkpt lat="44.88317" lon="6.12703">
        <ele>1454.13</ele>
        <time>2013-07-24T12:03:23Z</time>
      </trkpt>
      <trkpt lat="44.88314" lon="6.127">
        <ele>1454.13</ele>
        <time>2013-07-24T12:03:26Z</time>
      </trkpt>
      <trkpt lat="44.88312" lon="6.12694">
        <ele>1453.65</ele>
        <time>2013-07-24T12:03:29Z</time>
      </trkpt>
      <trkpt lat="44.88311" lon="6.1269">
        <ele>1452.69</ele>
        <time>2013-07-24T12:03:31Z</time>
      </trkpt>
      <trkpt lat="44.88308" lon="6.12685">
        <ele>1452.21</ele>
        <time>2013-07-24T12:03:35Z</time>
      </trkpt>
      <trkpt lat="44.88304" lon="6.12674">
        <ele>1451.25</ele>
        <time>2013-07-24T12:03:41Z</time>
      </trkpt>
      <trkpt lat="44.88295" lon="6.12646">
        <ele>1451.73</ele>
        <time>2013-07-24T12:03:57Z</time>
      </trkpt>
      <trkpt lat="44.88288" lon="6.12633">
        <ele>1452.21</ele>
        <time>2013-07-24T12:04:06Z</time>
      </trkpt>
      <trkpt lat="44.88285" lon="6.1263">
        <ele>1451.73</ele>
        <time>2013-07-24T12:04:08Z</time>
      </trkpt>
      <trkpt lat="44.8828" lon="6.12622">
        <ele>1451.73</ele>
        <time>2013-07-24T12:04:13Z</time>
      </trkpt>
      <trkpt lat="44.88279" lon="6.12613">
        <ele>1451.25</ele>
        <time>2013-07-24T12:04:18Z</time>
      </trkpt>
      <trkpt lat="44.88273" lon="6.12601">
        <ele>1450.29</ele>
        <time>2013-07-24T12:04:25Z</time>
      </trkpt>
      <trkpt lat="44.88264" lon="6.12585">
        <ele>1449.81</ele>
        <time>2013-07-24T12:04:37Z</time>
      </trkpt>
      <trkpt lat="44.88261" lon="6.12584">
        <ele>1448.84</ele>
        <time>2013-07-24T12:04:39Z</time>
      </trkpt>
      <trkpt lat="44.88256" lon="6.1258">
        <ele>1447.88</ele>
        <time>2013-07-24T12:04:43Z</time>
      </trkpt>
      <trkpt lat="44.8825" lon="6.12573">
        <ele>1446.44</ele>
        <time>2013-07-24T12:04:49Z</time>
      </trkpt>
      <trkpt lat="44.88248" lon="6.12565">
        <ele>1446.44</ele>
        <time>2013-07-24T12:04:53Z</time>
      </trkpt>
      <trkpt lat="44.88243" lon="6.1256">
        <ele>1445.48</ele>
        <time>2013-07-24T12:04:58Z</time>
      </trkpt>
      <trkpt lat="44.8824" lon="6.12554">
        <ele>1444.52</ele>
        <time>2013-07-24T12:05:02Z</time>
      </trkpt>
      <trkpt lat="44.88239" lon="6.12552">
        <ele>1444.04</ele>
        <time>2013-07-24T12:05:04Z</time>
      </trkpt>
      <trkpt lat="44.88231" lon="6.12532">
        <ele>1441.63</ele>
        <time>2013-07-24T12:05:17Z</time>
      </trkpt>
      <trkpt lat="44.88224" lon="6.12513">
        <ele>1438.75</ele>
        <time>2013-07-24T12:05:28Z</time>
      </trkpt>
      <trkpt lat="44.8822" lon="6.12506">
        <ele>1437.31</ele>
        <time>2013-07-24T12:05:33Z</time>
      </trkpt>
      <trkpt lat="44.88208" lon="6.1249">
        <ele>1436.35</ele>
        <time>2013-07-24T12:05:46Z</time>
      </trkpt>
      <trkpt lat="44.88197" lon="6.12464">
        <ele>1433.94</ele>
        <time>2013-07-24T12:06:01Z</time>
      </trkpt>
      <trkpt lat="44.8819" lon="6.12441">
        <ele>1433.94</ele>
        <time>2013-07-24T12:06:13Z</time>
      </trkpt>
      <trkpt lat="44.88189" lon="6.12433">
        <ele>1434.42</ele>
        <time>2013-07-24T12:06:17Z</time>
      </trkpt>
      <trkpt lat="44.88189" lon="6.12425">
        <ele>1434.91</ele>
        <time>2013-07-24T12:06:21Z</time>
      </trkpt>
      <trkpt lat="44.88184" lon="6.12416">
        <ele>1434.91</ele>
        <time>2013-07-24T12:06:27Z</time>
      </trkpt>
      <trkpt lat="44.8818" lon="6.12411">
        <ele>1435.87</ele>
        <time>2013-07-24T12:06:31Z</time>
      </trkpt>
      <trkpt lat="44.88176" lon="6.12402">
        <ele>1435.87</ele>
        <time>2013-07-24T12:06:38Z</time>
      </trkpt>
      <trkpt lat="44.88173" lon="6.12391">
        <ele>1436.83</ele>
        <time>2013-07-24T12:06:44Z</time>
      </trkpt>
      <trkpt lat="44.88173" lon="6.12388">
        <ele>1436.83</ele>
        <time>2013-07-24T12:06:46Z</time>
      </trkpt>
      <trkpt lat="44.88169" lon="6.12377">
        <ele>1437.79</ele>
        <time>2013-07-24T12:06:53Z</time>
      </trkpt>
      <trkpt lat="44.88166" lon="6.12372">
        <ele>1436.83</ele>
        <time>2013-07-24T12:06:57Z</time>
      </trkpt>
      <trkpt lat="44.88155" lon="6.12364">
        <ele>1438.75</ele>
        <time>2013-07-24T12:07:06Z</time>
      </trkpt>
      <trkpt lat="44.88149" lon="6.12335">
        <ele>1437.79</ele>
        <time>2013-07-24T12:07:21Z</time>
      </trkpt>
      <trkpt lat="44.88148" lon="6.12329">
        <ele>1438.27</ele>
        <time>2013-07-24T12:07:24Z</time>
      </trkpt>
      <trkpt lat="44.88145" lon="6.12315">
        <ele>1437.79</ele>
        <time>2013-07-24T12:07:31Z</time>
      </trkpt>
      <trkpt lat="44.8814" lon="6.12287">
        <ele>1436.83</ele>
        <time>2013-07-24T12:07:45Z</time>
      </trkpt>
      <trkpt lat="44.88139" lon="6.12284">
        <ele>1436.35</ele>
        <time>2013-07-24T12:07:47Z</time>
      </trkpt>
      <trkpt lat="44.88139" lon="6.12281">
        <ele>1436.35</ele>
        <time>2013-07-24T12:07:49Z</time>
      </trkpt>
      <trkpt lat="44.88139" lon="6.12274">
        <ele>1435.87</ele>
        <time>2013-07-24T12:07:53Z</time>
      </trkpt>
      <trkpt lat="44.88139" lon="6.12262">
        <ele>1434.42</ele>
        <time>2013-07-24T12:08:00Z</time>
      </trkpt>
      <trkpt lat="44.88137" lon="6.12254">
        <ele>1432.5</ele>
        <time>2013-07-24T12:08:05Z</time>
      </trkpt>
      <trkpt lat="44.88139" lon="6.12245">
        <ele>1432.02</ele>
        <time>2013-07-24T12:08:10Z</time>
      </trkpt>
      <trkpt lat="44.88136" lon="6.1224">
        <ele>1431.06</ele>
        <time>2013-07-24T12:08:14Z</time>
      </trkpt>
      <trkpt lat="44.88132" lon="6.12242">
        <ele>1431.54</ele>
        <time>2013-07-24T12:08:18Z</time>
      </trkpt>
      <trkpt lat="44.88129" lon="6.12243">
        <ele>1430.58</ele>
        <time>2013-07-24T12:08:21Z</time>
      </trkpt>
      <trkpt lat="44.88125" lon="6.12244">
        <ele>1429.62</ele>
        <time>2013-07-24T12:08:24Z</time>
      </trkpt>
      <trkpt lat="44.8812" lon="6.12244">
        <ele>1428.66</ele>
        <time>2013-07-24T12:08:28Z</time>
      </trkpt>
      <trkpt lat="44.88117" lon="6.12237">
        <ele>1427.7</ele>
        <time>2013-07-24T12:08:32Z</time>
      </trkpt>
      <trkpt lat="44.88116" lon="6.12215">
        <ele>1425.29</ele>
        <time>2013-07-24T12:08:43Z</time>
      </trkpt>
      <trkpt lat="44.88115" lon="6.12207">
        <ele>1424.81</ele>
        <time>2013-07-24T12:08:48Z</time>
      </trkpt>
      <trkpt lat="44.88114" lon="6.12201">
        <ele>1423.85</ele>
        <time>2013-07-24T12:08:52Z</time>
      </trkpt>
      <trkpt lat="44.88111" lon="6.12187">
        <ele>1422.41</ele>
        <time>2013-07-24T12:08:59Z</time>
      </trkpt>
      <trkpt lat="44.88108" lon="6.12179">
        <ele>1421.45</ele>
        <time>2013-07-24T12:09:04Z</time>
      </trkpt>
      <trkpt lat="44.88106" lon="6.12167">
        <ele>1419.52</ele>
        <time>2013-07-24T12:09:11Z</time>
      </trkpt>
      <trkpt lat="44.88104" lon="6.12164">
        <ele>1420</ele>
        <time>2013-07-24T12:09:13Z</time>
      </trkpt>
      <trkpt lat="44.88095" lon="6.12148">
        <ele>1418.08</ele>
        <time>2013-07-24T12:09:23Z</time>
      </trkpt>
      <trkpt lat="44.8809" lon="6.12141">
        <ele>1417.6</ele>
        <time>2013-07-24T12:09:28Z</time>
      </trkpt>
      <trkpt lat="44.88086" lon="6.1213">
        <ele>1416.64</ele>
        <time>2013-07-24T12:09:34Z</time>
      </trkpt>
      <trkpt lat="44.88082" lon="6.12121">
        <ele>1415.68</ele>
        <time>2013-07-24T12:09:39Z</time>
      </trkpt>
      <trkpt lat="44.88079" lon="6.12116">
        <ele>1416.16</ele>
        <time>2013-07-24T12:09:42Z</time>
      </trkpt>
      <trkpt lat="44.88075" lon="6.12108">
        <ele>1415.68</ele>
        <time>2013-07-24T12:09:47Z</time>
      </trkpt>
      <trkpt lat="44.88072" lon="6.121">
        <ele>1415.68</ele>
        <time>2013-07-24T12:09:52Z</time>
      </trkpt>
      <trkpt lat="44.88066" lon="6.12091">
        <ele>1414.72</ele>
        <time>2013-07-24T12:09:58Z</time>
      </trkpt>
      <trkpt lat="44.88064" lon="6.12083">
        <ele>1414.24</ele>
        <time>2013-07-24T12:10:02Z</time>
      </trkpt>
      <trkpt lat="44.88055" lon="6.12062">
        <ele>1413.76</ele>
        <time>2013-07-24T12:10:14Z</time>
      </trkpt>
      <trkpt lat="44.88053" lon="6.12056">
        <ele>1413.76</ele>
        <time>2013-07-24T12:10:18Z</time>
      </trkpt>
      <trkpt lat="44.88047" lon="6.12043">
        <ele>1413.28</ele>
        <time>2013-07-24T12:10:25Z</time>
      </trkpt>
      <trkpt lat="44.88044" lon="6.12036">
        <ele>1413.28</ele>
        <time>2013-07-24T12:10:29Z</time>
      </trkpt>
      <trkpt lat="44.8804" lon="6.12017">
        <ele>1411.83</ele>
        <time>2013-07-24T12:10:39Z</time>
      </trkpt>
      <trkpt lat="44.88037" lon="6.12008">
        <ele>1411.83</ele>
        <time>2013-07-24T12:10:44Z</time>
      </trkpt>
      <trkpt lat="44.88031" lon="6.11991">
        <ele>1411.35</ele>
        <time>2013-07-24T12:10:53Z</time>
      </trkpt>
      <trkpt lat="44.88028" lon="6.11987">
        <ele>1410.87</ele>
        <time>2013-07-24T12:10:56Z</time>
      </trkpt>
      <trkpt lat="44.88026" lon="6.1198">
        <ele>1410.87</ele>
        <time>2013-07-24T12:11:00Z</time>
      </trkpt>
      <trkpt lat="44.88023" lon="6.11964">
        <ele>1410.39</ele>
        <time>2013-07-24T12:11:08Z</time>
      </trkpt>
      <trkpt lat="44.88018" lon="6.11946">
        <ele>1409.43</ele>
        <time>2013-07-24T12:11:18Z</time>
      </trkpt>
      <trkpt lat="44.88013" lon="6.11937">
        <ele>1409.43</ele>
        <time>2013-07-24T12:11:25Z</time>
      </trkpt>
      <trkpt lat="44.88004" lon="6.11925">
        <ele>1408.95</ele>
        <time>2013-07-24T12:11:32Z</time>
      </trkpt>
      <trkpt lat="44.87992" lon="6.11897">
        <ele>1408.47</ele>
        <time>2013-07-24T12:11:48Z</time>
      </trkpt>
      <trkpt lat="44.8799" lon="6.1189">
        <ele>1407.99</ele>
        <time>2013-07-24T12:11:51Z</time>
      </trkpt>
      <trkpt lat="44.87988" lon="6.11885">
        <ele>1407.51</ele>
        <time>2013-07-24T12:11:54Z</time>
      </trkpt>
      <trkpt lat="44.87986" lon="6.11879">
        <ele>1407.99</ele>
        <time>2013-07-24T12:11:57Z</time>
      </trkpt>
      <trkpt lat="44.87982" lon="6.11874">
        <ele>1407.51</ele>
        <time>2013-07-24T12:12:01Z</time>
      </trkpt>
      <trkpt lat="44.8797" lon="6.11857">
        <ele>1407.03</ele>
        <time>2013-07-24T12:12:13Z</time>
      </trkpt>
      <trkpt lat="44.87966" lon="6.11849">
        <ele>1407.51</ele>
        <time>2013-07-24T12:12:19Z</time>
      </trkpt>
      <trkpt lat="44.87951" lon="6.11836">
        <ele>1408.47</ele>
        <time>2013-07-24T12:12:32Z</time>
      </trkpt>
      <trkpt lat="44.87946" lon="6.11831">
        <ele>1407.99</ele>
        <time>2013-07-24T12:12:36Z</time>
      </trkpt>
      <trkpt lat="44.87941" lon="6.11825">
        <ele>1407.99</ele>
        <time>2013-07-24T12:12:41Z</time>
      </trkpt>
      <trkpt lat="44.87936" lon="6.1182">
        <ele>1407.99</ele>
        <time>2013-07-24T12:12:45Z</time>
      </trkpt>
      <trkpt lat="44.87932" lon="6.11816">
        <ele>1407.99</ele>
        <time>2013-07-24T12:12:49Z</time>
      </trkpt>
      <trkpt lat="44.8793" lon="6.1181">
        <ele>1407.99</ele>
        <time>2013-07-24T12:12:52Z</time>
      </trkpt>
      <trkpt lat="44.87925" lon="6.11806">
        <ele>1407.99</ele>
        <time>2013-07-24T12:12:56Z</time>
      </trkpt>
      <trkpt lat="44.87911" lon="6.11791">
        <ele>1407.03</ele>
        <time>2013-07-24T12:13:10Z</time>
      </trkpt>
      <trkpt lat="44.87909" lon="6.11784">
        <ele>1407.51</ele>
        <time>2013-07-24T12:13:14Z</time>
      </trkpt>
      <trkpt lat="44.87904" lon="6.11777">
        <ele>1407.03</ele>
        <time>2013-07-24T12:13:19Z</time>
      </trkpt>
      <trkpt lat="44.87896" lon="6.11765">
        <ele>1406.55</ele>
        <time>2013-07-24T12:13:26Z</time>
      </trkpt>
      <trkpt lat="44.87895" lon="6.11762">
        <ele>1406.07</ele>
        <time>2013-07-24T12:13:28Z</time>
      </trkpt>
      <trkpt lat="44.87892" lon="6.11758">
        <ele>1406.07</ele>
        <time>2013-07-24T12:13:31Z</time>
      </trkpt>
      <trkpt lat="44.87889" lon="6.11749">
        <ele>1406.07</ele>
        <time>2013-07-24T12:13:36Z</time>
      </trkpt>
      <trkpt lat="44.87888" lon="6.11746">
        <ele>1405.58</ele>
        <time>2013-07-24T12:13:38Z</time>
      </trkpt>
      <trkpt lat="44.87884" lon="6.11732">
        <ele>1404.14</ele>
        <time>2013-07-24T12:13:46Z</time>
      </trkpt>
      <trkpt lat="44.87883" lon="6.11722">
        <ele>1404.14</ele>
        <time>2013-07-24T12:13:52Z</time>
      </trkpt>
      <trkpt lat="44.87883" lon="6.1172">
        <ele>1404.14</ele>
        <time>2013-07-24T12:13:53Z</time>
      </trkpt>
      <trkpt lat="44.87884" lon="6.117">
        <ele>1402.22</ele>
        <time>2013-07-24T12:14:03Z</time>
      </trkpt>
      <trkpt lat="44.87882" lon="6.11696">
        <ele>1403.66</ele>
        <time>2013-07-24T12:14:06Z</time>
      </trkpt>
      <trkpt lat="44.87881" lon="6.11692">
        <ele>1403.18</ele>
        <time>2013-07-24T12:14:08Z</time>
      </trkpt>
      <trkpt lat="44.87881" lon="6.11685">
        <ele>1402.7</ele>
        <time>2013-07-24T12:14:11Z</time>
      </trkpt>
      <trkpt lat="44.87878" lon="6.11676">
        <ele>1402.22</ele>
        <time>2013-07-24T12:14:16Z</time>
      </trkpt>
      <trkpt lat="44.87877" lon="6.11665">
        <ele>1400.78</ele>
        <time>2013-07-24T12:14:22Z</time>
      </trkpt>
      <trkpt lat="44.87876" lon="6.11658">
        <ele>1401.26</ele>
        <time>2013-07-24T12:14:26Z</time>
      </trkpt>
      <trkpt lat="44.87879" lon="6.11648">
        <ele>1400.3</ele>
        <time>2013-07-24T12:14:31Z</time>
      </trkpt>
      <trkpt lat="44.87878" lon="6.11638">
        <ele>1398.37</ele>
        <time>2013-07-24T12:14:37Z</time>
      </trkpt>
      <trkpt lat="44.87881" lon="6.11628">
        <ele>1397.89</ele>
        <time>2013-07-24T12:14:46Z</time>
      </trkpt>
      <trkpt lat="44.87886" lon="6.11624">
        <ele>1398.86</ele>
        <time>2013-07-24T12:14:57Z</time>
      </trkpt>
      <trkpt lat="44.87887" lon="6.1162">
        <ele>1398.37</ele>
        <time>2013-07-24T12:14:59Z</time>
      </trkpt>
      <trkpt lat="44.87885" lon="6.11606">
        <ele>1397.89</ele>
        <time>2013-07-24T12:15:10Z</time>
      </trkpt>
      <trkpt lat="44.87883" lon="6.11606">
        <ele>1397.89</ele>
        <time>2013-07-24T12:15:26Z</time>
      </trkpt>
      <trkpt lat="44.87883" lon="6.11605">
        <ele>1396.45</ele>
        <time>2013-07-24T12:15:47Z</time>
      </trkpt>
      <trkpt lat="44.87882" lon="6.11606">
        <ele>1397.89</ele>
        <time>2013-07-24T12:16:26Z</time>
      </trkpt>
      <trkpt lat="44.8788" lon="6.11607">
        <ele>1397.41</ele>
        <time>2013-07-24T12:16:38Z</time>
      </trkpt>
      <trkpt lat="44.8788" lon="6.11608">
        <ele>1397.41</ele>
        <time>2013-07-24T12:17:02Z</time>
      </trkpt>
      <trkpt lat="44.8788" lon="6.11607">
        <ele>1397.41</ele>
        <time>2013-07-24T12:17:09Z</time>
      </trkpt>
      <trkpt lat="44.87882" lon="6.116">
        <ele>1396.45</ele>
        <time>2013-07-24T12:17:15Z</time>
      </trkpt>
      <trkpt lat="44.87885" lon="6.11594">
        <ele>1395.01</ele>
        <time>2013-07-24T12:17:21Z</time>
      </trkpt>
      <trkpt lat="44.87886" lon="6.11593">
        <ele>1395.01</ele>
        <time>2013-07-24T12:17:22Z</time>
      </trkpt>
      <trkpt lat="44.8789" lon="6.11581">
        <ele>1394.05</ele>
        <time>2013-07-24T12:17:28Z</time>
      </trkpt>
      <trkpt lat="44.8789" lon="6.11576">
        <ele>1393.09</ele>
        <time>2013-07-24T12:17:32Z</time>
      </trkpt>
      <trkpt lat="44.87889" lon="6.11573">
        <ele>1393.09</ele>
        <time>2013-07-24T12:17:34Z</time>
      </trkpt>
      <trkpt lat="44.87888" lon="6.11562">
        <ele>1392.13</ele>
        <time>2013-07-24T12:17:40Z</time>
      </trkpt>
      <trkpt lat="44.87887" lon="6.11555">
        <ele>1391.17</ele>
        <time>2013-07-24T12:17:44Z</time>
      </trkpt>
      <trkpt lat="44.87885" lon="6.11552">
        <ele>1390.68</ele>
        <time>2013-07-24T12:17:46Z</time>
      </trkpt>
      <trkpt lat="44.87885" lon="6.11527">
        <ele>1388.76</ele>
        <time>2013-07-24T12:18:01Z</time>
      </trkpt>
      <trkpt lat="44.87884" lon="6.1152">
        <ele>1388.28</ele>
        <time>2013-07-24T12:18:05Z</time>
      </trkpt>
      <trkpt lat="44.87881" lon="6.11515">
        <ele>1387.8</ele>
        <time>2013-07-24T12:18:07Z</time>
      </trkpt>
      <trkpt lat="44.87879" lon="6.1151">
        <ele>1387.8</ele>
        <time>2013-07-24T12:18:09Z</time>
      </trkpt>
      <trkpt lat="44.87875" lon="6.11507">
        <ele>1387.8</ele>
        <time>2013-07-24T12:18:12Z</time>
      </trkpt>
      <trkpt lat="44.8787" lon="6.11497">
        <ele>1386.84</ele>
        <time>2013-07-24T12:18:19Z</time>
      </trkpt>
      <trkpt lat="44.87863" lon="6.11491">
        <ele>1386.84</ele>
        <time>2013-07-24T12:18:24Z</time>
      </trkpt>
      <trkpt lat="44.87846" lon="6.11469">
        <ele>1384.92</ele>
        <time>2013-07-24T12:18:40Z</time>
      </trkpt>
      <trkpt lat="44.87837" lon="6.11459">
        <ele>1384.44</ele>
        <time>2013-07-24T12:18:48Z</time>
      </trkpt>
      <trkpt lat="44.87833" lon="6.1145">
        <ele>1383.47</ele>
        <time>2013-07-24T12:18:53Z</time>
      </trkpt>
      <trkpt lat="44.87831" lon="6.11447">
        <ele>1382.99</ele>
        <time>2013-07-24T12:18:55Z</time>
      </trkpt>
      <trkpt lat="44.87828" lon="6.11441">
        <ele>1382.99</ele>
        <time>2013-07-24T12:18:59Z</time>
      </trkpt>
      <trkpt lat="44.87826" lon="6.11435">
        <ele>1382.51</ele>
        <time>2013-07-24T12:19:02Z</time>
      </trkpt>
      <trkpt lat="44.87815" lon="6.11416">
        <ele>1381.55</ele>
        <time>2013-07-24T12:19:14Z</time>
      </trkpt>
      <trkpt lat="44.87809" lon="6.11407">
        <ele>1381.55</ele>
        <time>2013-07-24T12:19:20Z</time>
      </trkpt>
      <trkpt lat="44.87807" lon="6.11401">
        <ele>1380.59</ele>
        <time>2013-07-24T12:19:23Z</time>
      </trkpt>
      <trkpt lat="44.87806" lon="6.11398">
        <ele>1380.59</ele>
        <time>2013-07-24T12:19:25Z</time>
      </trkpt>
      <trkpt lat="44.87804" lon="6.1139">
        <ele>1380.59</ele>
        <time>2013-07-24T12:19:29Z</time>
      </trkpt>
      <trkpt lat="44.87799" lon="6.11382">
        <ele>1380.11</ele>
        <time>2013-07-24T12:19:34Z</time>
      </trkpt>
      <trkpt lat="44.87789" lon="6.11372">
        <ele>1378.67</ele>
        <time>2013-07-24T12:19:43Z</time>
      </trkpt>
      <trkpt lat="44.87787" lon="6.1137">
        <ele>1378.67</ele>
        <time>2013-07-24T12:19:45Z</time>
      </trkpt>
      <trkpt lat="44.87786" lon="6.11356">
        <ele>1378.19</ele>
        <time>2013-07-24T12:19:51Z</time>
      </trkpt>
      <trkpt lat="44.87781" lon="6.1135">
        <ele>1377.23</ele>
        <time>2013-07-24T12:19:55Z</time>
      </trkpt>
      <trkpt lat="44.87783" lon="6.11331">
        <ele>1375.78</ele>
        <time>2013-07-24T12:20:04Z</time>
      </trkpt>
      <trkpt lat="44.87777" lon="6.1132">
        <ele>1374.82</ele>
        <time>2013-07-24T12:20:11Z</time>
      </trkpt>
      <trkpt lat="44.87767" lon="6.11295">
        <ele>1374.82</ele>
        <time>2013-07-24T12:20:26Z</time>
      </trkpt>
      <trkpt lat="44.87753" lon="6.11275">
        <ele>1375.78</ele>
        <time>2013-07-24T12:20:40Z</time>
      </trkpt>
      <trkpt lat="44.87749" lon="6.11264">
        <ele>1375.3</ele>
        <time>2013-07-24T12:20:55Z</time>
      </trkpt>
      <trkpt lat="44.87749" lon="6.11262">
        <ele>1375.3</ele>
        <time>2013-07-24T12:21:35Z</time>
      </trkpt>
      <trkpt lat="44.87747" lon="6.11263">
        <ele>1374.82</ele>
        <time>2013-07-24T12:22:31Z</time>
      </trkpt>
      <trkpt lat="44.87745" lon="6.1126">
        <ele>1374.82</ele>
        <time>2013-07-24T12:22:37Z</time>
      </trkpt>
      <trkpt lat="44.87745" lon="6.11255">
        <ele>1374.34</ele>
        <time>2013-07-24T12:22:41Z</time>
      </trkpt>
      <trkpt lat="44.87742" lon="6.11244">
        <ele>1374.34</ele>
        <time>2013-07-24T12:22:52Z</time>
      </trkpt>
      <trkpt lat="44.87741" lon="6.1124">
        <ele>1373.86</ele>
        <time>2013-07-24T12:22:54Z</time>
      </trkpt>
      <trkpt lat="44.87739" lon="6.11224">
        <ele>1373.86</ele>
        <time>2013-07-24T12:23:04Z</time>
      </trkpt>
      <trkpt lat="44.8773" lon="6.11207">
        <ele>1372.9</ele>
        <time>2013-07-24T12:23:16Z</time>
      </trkpt>
      <trkpt lat="44.87725" lon="6.11188">
        <ele>1371.46</ele>
        <time>2013-07-24T12:23:27Z</time>
      </trkpt>
      <trkpt lat="44.87722" lon="6.11168">
        <ele>1369.05</ele>
        <time>2013-07-24T12:23:39Z</time>
      </trkpt>
      <trkpt lat="44.87713" lon="6.11149">
        <ele>1366.17</ele>
        <time>2013-07-24T12:23:53Z</time>
      </trkpt>
      <trkpt lat="44.87709" lon="6.11137">
        <ele>1364.73</ele>
        <time>2013-07-24T12:24:01Z</time>
      </trkpt>
      <trkpt lat="44.87701" lon="6.11121">
        <ele>1362.33</ele>
        <time>2013-07-24T12:24:12Z</time>
      </trkpt>
      <trkpt lat="44.87693" lon="6.11109">
        <ele>1361.36</ele>
        <time>2013-07-24T12:24:21Z</time>
      </trkpt>
      <trkpt lat="44.87689" lon="6.11107">
        <ele>1359.44</ele>
        <time>2013-07-24T12:24:25Z</time>
      </trkpt>
      <trkpt lat="44.87686" lon="6.11103">
        <ele>1358.96</ele>
        <time>2013-07-24T12:24:28Z</time>
      </trkpt>
      <trkpt lat="44.87682" lon="6.11097">
        <ele>1358</ele>
        <time>2013-07-24T12:24:32Z</time>
      </trkpt>
      <trkpt lat="44.87676" lon="6.11084">
        <ele>1357.52</ele>
        <time>2013-07-24T12:24:40Z</time>
      </trkpt>
      <trkpt lat="44.87676" lon="6.11071">
        <ele>1356.08</ele>
        <time>2013-07-24T12:24:47Z</time>
      </trkpt>
      <trkpt lat="44.87675" lon="6.11047">
        <ele>1354.63</ele>
        <time>2013-07-24T12:25:01Z</time>
      </trkpt>
      <trkpt lat="44.8767" lon="6.1104">
        <ele>1354.15</ele>
        <time>2013-07-24T12:25:06Z</time>
      </trkpt>
      <trkpt lat="44.87666" lon="6.1103">
        <ele>1352.71</ele>
        <time>2013-07-24T12:25:12Z</time>
      </trkpt>
      <trkpt lat="44.87663" lon="6.11021">
        <ele>1352.23</ele>
        <time>2013-07-24T12:25:18Z</time>
      </trkpt>
      <trkpt lat="44.87659" lon="6.11013">
        <ele>1351.27</ele>
        <time>2013-07-24T12:25:23Z</time>
      </trkpt>
      <trkpt lat="44.87655" lon="6.11005">
        <ele>1350.31</ele>
        <time>2013-07-24T12:25:29Z</time>
      </trkpt>
      <trkpt lat="44.87655" lon="6.11002">
        <ele>1349.83</ele>
        <time>2013-07-24T12:25:30Z</time>
      </trkpt>
      <trkpt lat="44.87651" lon="6.10974">
        <ele>1347.43</ele>
        <time>2013-07-24T12:25:44Z</time>
      </trkpt>
      <trkpt lat="44.87643" lon="6.10967">
        <ele>1346.94</ele>
        <time>2013-07-24T12:25:50Z</time>
      </trkpt>
      <trkpt lat="44.8764" lon="6.10956">
        <ele>1346.46</ele>
        <time>2013-07-24T12:25:56Z</time>
      </trkpt>
      <trkpt lat="44.87639" lon="6.10942">
        <ele>1345.02</ele>
        <time>2013-07-24T12:26:03Z</time>
      </trkpt>
      <trkpt lat="44.87639" lon="6.1094">
        <ele>1345.02</ele>
        <time>2013-07-24T12:26:04Z</time>
      </trkpt>
      <trkpt lat="44.87633" lon="6.1093">
        <ele>1343.58</ele>
        <time>2013-07-24T12:26:10Z</time>
      </trkpt>
      <trkpt lat="44.87628" lon="6.10908">
        <ele>1342.14</ele>
        <time>2013-07-24T12:26:22Z</time>
      </trkpt>
      <trkpt lat="44.87624" lon="6.10905">
        <ele>1341.66</ele>
        <time>2013-07-24T12:26:25Z</time>
      </trkpt>
      <trkpt lat="44.87623" lon="6.10897">
        <ele>1340.22</ele>
        <time>2013-07-24T12:26:29Z</time>
      </trkpt>
      <trkpt lat="44.87622" lon="6.10895">
        <ele>1340.7</ele>
        <time>2013-07-24T12:26:30Z</time>
      </trkpt>
      <trkpt lat="44.87623" lon="6.10885">
        <ele>1340.22</ele>
        <time>2013-07-24T12:26:35Z</time>
      </trkpt>
      <trkpt lat="44.87621" lon="6.10876">
        <ele>1338.77</ele>
        <time>2013-07-24T12:26:40Z</time>
      </trkpt>
      <trkpt lat="44.87619" lon="6.10871">
        <ele>1338.77</ele>
        <time>2013-07-24T12:26:43Z</time>
      </trkpt>
      <trkpt lat="44.87618" lon="6.10868">
        <ele>1338.29</ele>
        <time>2013-07-24T12:26:45Z</time>
      </trkpt>
      <trkpt lat="44.87616" lon="6.10865">
        <ele>1337.33</ele>
        <time>2013-07-24T12:26:47Z</time>
      </trkpt>
      <trkpt lat="44.87614" lon="6.10862">
        <ele>1337.33</ele>
        <time>2013-07-24T12:26:49Z</time>
      </trkpt>
      <trkpt lat="44.87614" lon="6.10854">
        <ele>1337.33</ele>
        <time>2013-07-24T12:26:53Z</time>
      </trkpt>
      <trkpt lat="44.87611" lon="6.10846">
        <ele>1336.37</ele>
        <time>2013-07-24T12:26:58Z</time>
      </trkpt>
      <trkpt lat="44.87612" lon="6.10838">
        <ele>1335.89</ele>
        <time>2013-07-24T12:27:02Z</time>
      </trkpt>
      <trkpt lat="44.87612" lon="6.10806">
        <ele>1332.52</ele>
        <time>2013-07-24T12:27:18Z</time>
      </trkpt>
      <trkpt lat="44.8761" lon="6.10803">
        <ele>1333.01</ele>
        <time>2013-07-24T12:27:20Z</time>
      </trkpt>
      <trkpt lat="44.87603" lon="6.10797">
        <ele>1332.04</ele>
        <time>2013-07-24T12:27:25Z</time>
      </trkpt>
      <trkpt lat="44.87594" lon="6.1079">
        <ele>1332.52</ele>
        <time>2013-07-24T12:27:32Z</time>
      </trkpt>
      <trkpt lat="44.8759" lon="6.10781">
        <ele>1332.04</ele>
        <time>2013-07-24T12:27:37Z</time>
      </trkpt>
      <trkpt lat="44.87588" lon="6.10769">
        <ele>1332.04</ele>
        <time>2013-07-24T12:27:44Z</time>
      </trkpt>
      <trkpt lat="44.87579" lon="6.10751">
        <ele>1330.12</ele>
        <time>2013-07-24T12:27:57Z</time>
      </trkpt>
      <trkpt lat="44.87576" lon="6.10744">
        <ele>1329.16</ele>
        <time>2013-07-24T12:28:01Z</time>
      </trkpt>
      <trkpt lat="44.87573" lon="6.10734">
        <ele>1328.2</ele>
        <time>2013-07-24T12:28:06Z</time>
      </trkpt>
      <trkpt lat="44.8757" lon="6.10724">
        <ele>1327.24</ele>
        <time>2013-07-24T12:28:12Z</time>
      </trkpt>
      <trkpt lat="44.87562" lon="6.10707">
        <ele>1325.8</ele>
        <time>2013-07-24T12:28:24Z</time>
      </trkpt>
      <trkpt lat="44.87561" lon="6.10703">
        <ele>1325.8</ele>
        <time>2013-07-24T12:28:26Z</time>
      </trkpt>
      <trkpt lat="44.87558" lon="6.10691">
        <ele>1323.87</ele>
        <time>2013-07-24T12:28:33Z</time>
      </trkpt>
      <trkpt lat="44.87552" lon="6.10682">
        <ele>1322.91</ele>
        <time>2013-07-24T12:28:39Z</time>
      </trkpt>
      <trkpt lat="44.87537" lon="6.10662">
        <ele>1320.99</ele>
        <time>2013-07-24T12:28:54Z</time>
      </trkpt>
      <trkpt lat="44.87533" lon="6.10659">
        <ele>1320.99</ele>
        <time>2013-07-24T12:28:57Z</time>
      </trkpt>
      <trkpt lat="44.87529" lon="6.10649">
        <ele>1320.51</ele>
        <time>2013-07-24T12:29:03Z</time>
      </trkpt>
      <trkpt lat="44.87524" lon="6.10642">
        <ele>1319.07</ele>
        <time>2013-07-24T12:29:08Z</time>
      </trkpt>
      <trkpt lat="44.87513" lon="6.1062">
        <ele>1319.07</ele>
        <time>2013-07-24T12:29:21Z</time>
      </trkpt>
      <trkpt lat="44.87502" lon="6.106">
        <ele>1318.1</ele>
        <time>2013-07-24T12:29:34Z</time>
      </trkpt>
      <trkpt lat="44.87495" lon="6.10585">
        <ele>1317.62</ele>
        <time>2013-07-24T12:29:43Z</time>
      </trkpt>
      <trkpt lat="44.87493" lon="6.10575">
        <ele>1317.62</ele>
        <time>2013-07-24T12:29:48Z</time>
      </trkpt>
      <trkpt lat="44.8749" lon="6.10568">
        <ele>1317.14</ele>
        <time>2013-07-24T12:29:52Z</time>
      </trkpt>
      <trkpt lat="44.87487" lon="6.10558">
        <ele>1317.14</ele>
        <time>2013-07-24T12:29:57Z</time>
      </trkpt>
      <trkpt lat="44.87486" lon="6.10552">
        <ele>1316.18</ele>
        <time>2013-07-24T12:30:00Z</time>
      </trkpt>
      <trkpt lat="44.87481" lon="6.10528">
        <ele>1316.66</ele>
        <time>2013-07-24T12:30:13Z</time>
      </trkpt>
      <trkpt lat="44.87474" lon="6.10504">
        <ele>1314.26</ele>
        <time>2013-07-24T12:30:25Z</time>
      </trkpt>
      <trkpt lat="44.87469" lon="6.10484">
        <ele>1313.78</ele>
        <time>2013-07-24T12:30:35Z</time>
      </trkpt>
      <trkpt lat="44.87467" lon="6.10476">
        <ele>1312.82</ele>
        <time>2013-07-24T12:30:39Z</time>
      </trkpt>
      <trkpt lat="44.87465" lon="6.10468">
        <ele>1312.82</ele>
        <time>2013-07-24T12:30:43Z</time>
      </trkpt>
      <trkpt lat="44.87463" lon="6.10455">
        <ele>1312.82</ele>
        <time>2013-07-24T12:30:50Z</time>
      </trkpt>
      <trkpt lat="44.87453" lon="6.10424">
        <ele>1311.38</ele>
        <time>2013-07-24T12:31:06Z</time>
      </trkpt>
      <trkpt lat="44.87449" lon="6.10417">
        <ele>1311.38</ele>
        <time>2013-07-24T12:31:10Z</time>
      </trkpt>
      <trkpt lat="44.87444" lon="6.10389">
        <ele>1310.41</ele>
        <time>2013-07-24T12:31:24Z</time>
      </trkpt>
      <trkpt lat="44.87442" lon="6.10382">
        <ele>1309.93</ele>
        <time>2013-07-24T12:31:28Z</time>
      </trkpt>
      <trkpt lat="44.87442" lon="6.10372">
        <ele>1309.45</ele>
        <time>2013-07-24T12:31:32Z</time>
      </trkpt>
      <trkpt lat="44.87437" lon="6.10345">
        <ele>1308.97</ele>
        <time>2013-07-24T12:31:45Z</time>
      </trkpt>
      <trkpt lat="44.87437" lon="6.10335">
        <ele>1308.49</ele>
        <time>2013-07-24T12:31:50Z</time>
      </trkpt>
      <trkpt lat="44.87434" lon="6.10325">
        <ele>1308.01</ele>
        <time>2013-07-24T12:31:55Z</time>
      </trkpt>
      <trkpt lat="44.87428" lon="6.10312">
        <ele>1308.01</ele>
        <time>2013-07-24T12:32:03Z</time>
      </trkpt>
      <trkpt lat="44.87425" lon="6.10306">
        <ele>1308.49</ele>
        <time>2013-07-24T12:32:06Z</time>
      </trkpt>
      <trkpt lat="44.87423" lon="6.10297">
        <ele>1308.49</ele>
        <time>2013-07-24T12:32:11Z</time>
      </trkpt>
      <trkpt lat="44.8742" lon="6.1029">
        <ele>1307.05</ele>
        <time>2013-07-24T12:32:15Z</time>
      </trkpt>
      <trkpt lat="44.87418" lon="6.10284">
        <ele>1307.05</ele>
        <time>2013-07-24T12:32:19Z</time>
      </trkpt>
      <trkpt lat="44.87407" lon="6.10246">
        <ele>1305.61</ele>
        <time>2013-07-24T12:32:39Z</time>
      </trkpt>
      <trkpt lat="44.87404" lon="6.10241">
        <ele>1305.61</ele>
        <time>2013-07-24T12:32:42Z</time>
      </trkpt>
      <trkpt lat="44.874" lon="6.10233">
        <ele>1305.13</ele>
        <time>2013-07-24T12:32:47Z</time>
      </trkpt>
      <trkpt lat="44.87396" lon="6.10226">
        <ele>1305.13</ele>
        <time>2013-07-24T12:32:51Z</time>
      </trkpt>
      <trkpt lat="44.87388" lon="6.10213">
        <ele>1304.17</ele>
        <time>2013-07-24T12:33:00Z</time>
      </trkpt>
      <trkpt lat="44.87381" lon="6.10201">
        <ele>1303.69</ele>
        <time>2013-07-24T12:33:08Z</time>
      </trkpt>
      <trkpt lat="44.87379" lon="6.10198">
        <ele>1303.2</ele>
        <time>2013-07-24T12:33:10Z</time>
      </trkpt>
      <trkpt lat="44.87364" lon="6.10186">
        <ele>1303.69</ele>
        <time>2013-07-24T12:33:25Z</time>
      </trkpt>
      <trkpt lat="44.87363" lon="6.10184">
        <ele>1303.69</ele>
        <time>2013-07-24T12:33:51Z</time>
      </trkpt>
      <trkpt lat="44.87362" lon="6.10185">
        <ele>1303.69</ele>
        <time>2013-07-24T12:34:00Z</time>
      </trkpt>
      <trkpt lat="44.87357" lon="6.10185">
        <ele>1303.2</ele>
        <time>2013-07-24T12:34:17Z</time>
      </trkpt>
      <trkpt lat="44.87356" lon="6.10183">
        <ele>1303.2</ele>
        <time>2013-07-24T12:34:36Z</time>
      </trkpt>
      <trkpt lat="44.87354" lon="6.10185">
        <ele>1303.2</ele>
        <time>2013-07-24T12:34:49Z</time>
      </trkpt>
      <trkpt lat="44.87353" lon="6.10187">
        <ele>1302.72</ele>
        <time>2013-07-24T12:35:15Z</time>
      </trkpt>
      <trkpt lat="44.87352" lon="6.10186">
        <ele>1302.24</ele>
        <time>2013-07-24T12:35:17Z</time>
      </trkpt>
      <trkpt lat="44.87338" lon="6.10166">
        <ele>1301.76</ele>
        <time>2013-07-24T12:35:33Z</time>
      </trkpt>
      <trkpt lat="44.8732" lon="6.10141">
        <ele>1301.28</ele>
        <time>2013-07-24T12:35:52Z</time>
      </trkpt>
      <trkpt lat="44.87311" lon="6.10126">
        <ele>1300.32</ele>
        <time>2013-07-24T12:36:07Z</time>
      </trkpt>
      <trkpt lat="44.87305" lon="6.10122">
        <ele>1300.8</ele>
        <time>2013-07-24T12:36:17Z</time>
      </trkpt>
      <trkpt lat="44.873" lon="6.10116">
        <ele>1300.32</ele>
        <time>2013-07-24T12:36:22Z</time>
      </trkpt>
      <trkpt lat="44.87293" lon="6.10108">
        <ele>1299.84</ele>
        <time>2013-07-24T12:36:29Z</time>
      </trkpt>
      <trkpt lat="44.87286" lon="6.10102">
        <ele>1299.36</ele>
        <time>2013-07-24T12:36:35Z</time>
      </trkpt>
      <trkpt lat="44.87275" lon="6.10096">
        <ele>1298.88</ele>
        <time>2013-07-24T12:36:44Z</time>
      </trkpt>
      <trkpt lat="44.87271" lon="6.10089">
        <ele>1298.4</ele>
        <time>2013-07-24T12:36:50Z</time>
      </trkpt>
      <trkpt lat="44.87269" lon="6.10088">
        <ele>1298.4</ele>
        <time>2013-07-24T12:36:52Z</time>
      </trkpt>
      <trkpt lat="44.87261" lon="6.10083">
        <ele>1297.92</ele>
        <time>2013-07-24T12:37:04Z</time>
      </trkpt>
      <trkpt lat="44.87263" lon="6.10083">
        <ele>1296.96</ele>
        <time>2013-07-24T12:37:24Z</time>
      </trkpt>
      <trkpt lat="44.87261" lon="6.10083">
        <ele>1298.88</ele>
        <time>2013-07-24T12:40:33Z</time>
      </trkpt>
      <trkpt lat="44.87261" lon="6.10083">
        <ele>1297.44</ele>
        <time>2013-07-24T12:40:55Z</time>
      </trkpt>
      <trkpt lat="44.87259" lon="6.10074">
        <ele>1298.4</ele>
        <time>2013-07-24T12:41:01Z</time>
      </trkpt>
      <trkpt lat="44.87256" lon="6.10067">
        <ele>1297.44</ele>
        <time>2013-07-24T12:41:06Z</time>
      </trkpt>
      <trkpt lat="44.87255" lon="6.10063">
        <ele>1296.96</ele>
        <time>2013-07-24T12:41:08Z</time>
      </trkpt>
      <trkpt lat="44.8725" lon="6.10055">
        <ele>1297.44</ele>
        <time>2013-07-24T12:41:14Z</time>
      </trkpt>
      <trkpt lat="44.87242" lon="6.10044">
        <ele>1296.48</ele>
        <time>2013-07-24T12:41:22Z</time>
      </trkpt>
      <trkpt lat="44.87229" lon="6.10029">
        <ele>1296.48</ele>
        <time>2013-07-24T12:41:35Z</time>
      </trkpt>
      <trkpt lat="44.87209" lon="6.10007">
        <ele>1295.51</ele>
        <time>2013-07-24T12:41:53Z</time>
      </trkpt>
      <trkpt lat="44.87195" lon="6.09986">
        <ele>1295.03</ele>
        <time>2013-07-24T12:42:08Z</time>
      </trkpt>
      <trkpt lat="44.87176" lon="6.09972">
        <ele>1294.55</ele>
        <time>2013-07-24T12:42:24Z</time>
      </trkpt>
      <trkpt lat="44.87169" lon="6.09965">
        <ele>1294.07</ele>
        <time>2013-07-24T12:42:30Z</time>
      </trkpt>
      <trkpt lat="44.87158" lon="6.09956">
        <ele>1294.55</ele>
        <time>2013-07-24T12:42:40Z</time>
      </trkpt>
      <trkpt lat="44.87148" lon="6.09951">
        <ele>1294.55</ele>
        <time>2013-07-24T12:42:47Z</time>
      </trkpt>
      <trkpt lat="44.87144" lon="6.09948">
        <ele>1293.59</ele>
        <time>2013-07-24T12:42:50Z</time>
      </trkpt>
      <trkpt lat="44.87136" lon="6.09945">
        <ele>1293.11</ele>
        <time>2013-07-24T12:42:56Z</time>
      </trkpt>
      <trkpt lat="44.87115" lon="6.09926">
        <ele>1292.63</ele>
        <time>2013-07-24T12:43:14Z</time>
      </trkpt>
      <trkpt lat="44.87104" lon="6.09918">
        <ele>1291.67</ele>
        <time>2013-07-24T12:43:22Z</time>
      </trkpt>
      <trkpt lat="44.87091" lon="6.09913">
        <ele>1291.67</ele>
        <time>2013-07-24T12:43:32Z</time>
      </trkpt>
      <trkpt lat="44.87087" lon="6.09911">
        <ele>1291.19</ele>
        <time>2013-07-24T12:43:35Z</time>
      </trkpt>
      <trkpt lat="44.87072" lon="6.09887">
        <ele>1293.59</ele>
        <time>2013-07-24T12:43:53Z</time>
      </trkpt>
      <trkpt lat="44.8707" lon="6.09882">
        <ele>1293.59</ele>
        <time>2013-07-24T12:43:57Z</time>
      </trkpt>
      <trkpt lat="44.87057" lon="6.09862">
        <ele>1295.03</ele>
        <time>2013-07-24T12:44:11Z</time>
      </trkpt>
      <trkpt lat="44.87052" lon="6.09855">
        <ele>1295.03</ele>
        <time>2013-07-24T12:44:16Z</time>
      </trkpt>
      <trkpt lat="44.87046" lon="6.09845">
        <ele>1295.03</ele>
        <time>2013-07-24T12:44:24Z</time>
      </trkpt>
      <trkpt lat="44.87024" lon="6.09832">
        <ele>1295.03</ele>
        <time>2013-07-24T12:44:39Z</time>
      </trkpt>
      <trkpt lat="44.87024" lon="6.09831">
        <ele>1294.55</ele>
        <time>2013-07-24T12:44:40Z</time>
      </trkpt>
      <trkpt lat="44.87022" lon="6.09824">
        <ele>1294.55</ele>
        <time>2013-07-24T12:44:43Z</time>
      </trkpt>
      <trkpt lat="44.87018" lon="6.09817">
        <ele>1295.03</ele>
        <time>2013-07-24T12:44:48Z</time>
      </trkpt>
      <trkpt lat="44.87005" lon="6.09797">
        <ele>1295.03</ele>
        <time>2013-07-24T12:45:02Z</time>
      </trkpt>
      <trkpt lat="44.87001" lon="6.09789">
        <ele>1295.03</ele>
        <time>2013-07-24T12:45:06Z</time>
      </trkpt>
      <trkpt lat="44.86989" lon="6.09757">
        <ele>1294.55</ele>
        <time>2013-07-24T12:45:24Z</time>
      </trkpt>
      <trkpt lat="44.86977" lon="6.09731">
        <ele>1294.55</ele>
        <time>2013-07-24T12:45:39Z</time>
      </trkpt>
      <trkpt lat="44.86974" lon="6.09724">
        <ele>1294.07</ele>
        <time>2013-07-24T12:45:44Z</time>
      </trkpt>
      <trkpt lat="44.86971" lon="6.09715">
        <ele>1294.55</ele>
        <time>2013-07-24T12:45:50Z</time>
      </trkpt>
      <trkpt lat="44.86968" lon="6.09707">
        <ele>1295.03</ele>
        <time>2013-07-24T12:45:54Z</time>
      </trkpt>
      <trkpt lat="44.86961" lon="6.09678">
        <ele>1295.51</ele>
        <time>2013-07-24T12:46:09Z</time>
      </trkpt>
      <trkpt lat="44.86961" lon="6.09672">
        <ele>1295.51</ele>
        <time>2013-07-24T12:46:12Z</time>
      </trkpt>
      <trkpt lat="44.86955" lon="6.09646">
        <ele>1295.51</ele>
        <time>2013-07-24T12:46:26Z</time>
      </trkpt>
      <trkpt lat="44.8695" lon="6.09627">
        <ele>1295.99</ele>
        <time>2013-07-24T12:46:37Z</time>
      </trkpt>
      <trkpt lat="44.86948" lon="6.09616">
        <ele>1296.96</ele>
        <time>2013-07-24T12:46:43Z</time>
      </trkpt>
      <trkpt lat="44.86948" lon="6.09614">
        <ele>1296.96</ele>
        <time>2013-07-24T12:46:44Z</time>
      </trkpt>
      <trkpt lat="44.86946" lon="6.09608">
        <ele>1296.96</ele>
        <time>2013-07-24T12:46:47Z</time>
      </trkpt>
      <trkpt lat="44.86943" lon="6.09586">
        <ele>1297.44</ele>
        <time>2013-07-24T12:47:03Z</time>
      </trkpt>
      <trkpt lat="44.86942" lon="6.09576">
        <ele>1296.96</ele>
        <time>2013-07-24T12:47:08Z</time>
      </trkpt>
      <trkpt lat="44.86942" lon="6.09555">
        <ele>1296.96</ele>
        <time>2013-07-24T12:47:19Z</time>
      </trkpt>
      <trkpt lat="44.8694" lon="6.09544">
        <ele>1297.92</ele>
        <time>2013-07-24T12:47:25Z</time>
      </trkpt>
      <trkpt lat="44.86941" lon="6.09542">
        <ele>1296.96</ele>
        <time>2013-07-24T12:47:33Z</time>
      </trkpt>
      <trkpt lat="44.8694" lon="6.09529">
        <ele>1296.96</ele>
        <time>2013-07-24T12:47:40Z</time>
      </trkpt>
      <trkpt lat="44.86938" lon="6.09517">
        <ele>1296.96</ele>
        <time>2013-07-24T12:47:48Z</time>
      </trkpt>
      <trkpt lat="44.86933" lon="6.09504">
        <ele>1296.48</ele>
        <time>2013-07-24T12:47:55Z</time>
      </trkpt>
      <trkpt lat="44.86929" lon="6.09487">
        <ele>1296.48</ele>
        <time>2013-07-24T12:48:04Z</time>
      </trkpt>
      <trkpt lat="44.86925" lon="6.09474">
        <ele>1295.99</ele>
        <time>2013-07-24T12:48:11Z</time>
      </trkpt>
      <trkpt lat="44.86917" lon="6.09453">
        <ele>1295.03</ele>
        <time>2013-07-24T12:48:23Z</time>
      </trkpt>
      <trkpt lat="44.86916" lon="6.09443">
        <ele>1295.03</ele>
        <time>2013-07-24T12:48:29Z</time>
      </trkpt>
      <trkpt lat="44.86913" lon="6.09438">
        <ele>1294.55</ele>
        <time>2013-07-24T12:48:33Z</time>
      </trkpt>
      <trkpt lat="44.86912" lon="6.09431">
        <ele>1295.03</ele>
        <time>2013-07-24T12:48:37Z</time>
      </trkpt>
      <trkpt lat="44.86912" lon="6.09421">
        <ele>1294.55</ele>
        <time>2013-07-24T12:48:41Z</time>
      </trkpt>
      <trkpt lat="44.86909" lon="6.09411">
        <ele>1294.55</ele>
        <time>2013-07-24T12:48:47Z</time>
      </trkpt>
      <trkpt lat="44.86907" lon="6.09396">
        <ele>1293.59</ele>
        <time>2013-07-24T12:48:55Z</time>
      </trkpt>
      <trkpt lat="44.86905" lon="6.09381">
        <ele>1292.15</ele>
        <time>2013-07-24T12:49:02Z</time>
      </trkpt>
      <trkpt lat="44.86901" lon="6.09355">
        <ele>1290.71</ele>
        <time>2013-07-24T12:49:15Z</time>
      </trkpt>
      <trkpt lat="44.869" lon="6.09345">
        <ele>1290.71</ele>
        <time>2013-07-24T12:49:20Z</time>
      </trkpt>
      <trkpt lat="44.86896" lon="6.09315">
        <ele>1289.75</ele>
        <time>2013-07-24T12:49:36Z</time>
      </trkpt>
      <trkpt lat="44.86895" lon="6.09309">
        <ele>1290.23</ele>
        <time>2013-07-24T12:49:39Z</time>
      </trkpt>
      <trkpt lat="44.86896" lon="6.09292">
        <ele>1288.78</ele>
        <time>2013-07-24T12:49:50Z</time>
      </trkpt>
      <trkpt lat="44.86899" lon="6.09286">
        <ele>1287.82</ele>
        <time>2013-07-24T12:49:54Z</time>
      </trkpt>
      <trkpt lat="44.86909" lon="6.09267">
        <ele>1287.34</ele>
        <time>2013-07-24T12:50:05Z</time>
      </trkpt>
      <trkpt lat="44.86921" lon="6.09253">
        <ele>1285.9</ele>
        <time>2013-07-24T12:50:16Z</time>
      </trkpt>
      <trkpt lat="44.86934" lon="6.09239">
        <ele>1284.46</ele>
        <time>2013-07-24T12:50:30Z</time>
      </trkpt>
      <trkpt lat="44.86935" lon="6.0923">
        <ele>1284.46</ele>
        <time>2013-07-24T12:50:40Z</time>
      </trkpt>
      <trkpt lat="44.86932" lon="6.09233">
        <ele>1283.5</ele>
        <time>2013-07-24T12:50:43Z</time>
      </trkpt>
      <trkpt lat="44.86918" lon="6.09235">
        <ele>1280.13</ele>
        <time>2013-07-24T12:50:55Z</time>
      </trkpt>
      <trkpt lat="44.86897" lon="6.09233">
        <ele>1277.73</ele>
        <time>2013-07-24T12:51:13Z</time>
      </trkpt>
      <trkpt lat="44.86894" lon="6.09233">
        <ele>1277.73</ele>
        <time>2013-07-24T12:51:15Z</time>
      </trkpt>
      <trkpt lat="44.8689" lon="6.09232">
        <ele>1276.77</ele>
        <time>2013-07-24T12:51:17Z</time>
      </trkpt>
      <trkpt lat="44.86884" lon="6.09228">
        <ele>1276.29</ele>
        <time>2013-07-24T12:51:23Z</time>
      </trkpt>
      <trkpt lat="44.86873" lon="6.09224">
        <ele>1275.81</ele>
        <time>2013-07-24T12:51:38Z</time>
      </trkpt>
      <trkpt lat="44.86865" lon="6.09216">
        <ele>1274.85</ele>
        <time>2013-07-24T12:51:44Z</time>
      </trkpt>
      <trkpt lat="44.86863" lon="6.09209">
        <ele>1274.36</ele>
        <time>2013-07-24T12:51:47Z</time>
      </trkpt>
      <trkpt lat="44.86863" lon="6.092">
        <ele>1274.36</ele>
        <time>2013-07-24T12:51:52Z</time>
      </trkpt>
      <trkpt lat="44.86862" lon="6.09192">
        <ele>1274.85</ele>
        <time>2013-07-24T12:51:56Z</time>
      </trkpt>
      <trkpt lat="44.86859" lon="6.09181">
        <ele>1275.33</ele>
        <time>2013-07-24T12:52:03Z</time>
      </trkpt>
      <trkpt lat="44.86857" lon="6.09161">
        <ele>1277.25</ele>
        <time>2013-07-24T12:52:15Z</time>
      </trkpt>
      <trkpt lat="44.86862" lon="6.09147">
        <ele>1277.25</ele>
        <time>2013-07-24T12:52:23Z</time>
      </trkpt>
      <trkpt lat="44.86864" lon="6.0914">
        <ele>1277.73</ele>
        <time>2013-07-24T12:52:27Z</time>
      </trkpt>
      <trkpt lat="44.86863" lon="6.0912">
        <ele>1275.81</ele>
        <time>2013-07-24T12:52:40Z</time>
      </trkpt>
      <trkpt lat="44.86867" lon="6.09087">
        <ele>1275.81</ele>
        <time>2013-07-24T12:52:58Z</time>
      </trkpt>
      <trkpt lat="44.86869" lon="6.09083">
        <ele>1276.29</ele>
        <time>2013-07-24T12:53:00Z</time>
      </trkpt>
      <trkpt lat="44.86873" lon="6.09073">
        <ele>1275.81</ele>
        <time>2013-07-24T12:53:04Z</time>
      </trkpt>
      <trkpt lat="44.86877" lon="6.09064">
        <ele>1277.73</ele>
        <time>2013-07-24T12:53:14Z</time>
      </trkpt>
      <trkpt lat="44.86879" lon="6.09069">
        <ele>1278.69</ele>
        <time>2013-07-24T12:53:18Z</time>
      </trkpt>
      <trkpt lat="44.86884" lon="6.09073">
        <ele>1278.69</ele>
        <time>2013-07-24T12:53:26Z</time>
      </trkpt>
      <trkpt lat="44.86891" lon="6.09062">
        <ele>1280.61</ele>
        <time>2013-07-24T12:53:37Z</time>
      </trkpt>
      <trkpt lat="44.86899" lon="6.09053">
        <ele>1281.57</ele>
        <time>2013-07-24T12:53:51Z</time>
      </trkpt>
      <trkpt lat="44.86899" lon="6.09053">
        <ele>1282.06</ele>
        <time>2013-07-24T12:54:14Z</time>
      </trkpt>
      <trkpt lat="44.86899" lon="6.09053">
        <ele>1278.69</ele>
        <time>2013-07-24T12:54:15Z</time>
      </trkpt>
      <trkpt lat="44.86899" lon="6.09053">
        <ele>1281.57</ele>
        <time>2013-07-24T12:54:18Z</time>
      </trkpt>
    </trkseg>
  </trk>
</gpx>